GFSNE_sfc_wetblb_000.txt.gz
Wetbulb
46.22 46.31 46.08 46.89 45.53 44.50 43.93 43.05 40.19 36.49 38.51 42.38 46.20 48.83 51.19 52.87 51.60 52.71 52.65 50.50 48.44 48.68 49.48 51.19 53.07 55.05 55.45 55.96 56.03 56.07 57.05 56.90 56.59 55.49 54.37 52.85 51.58 50.76
44.30 43.88 44.45 45.45 45.18 44.67 43.55 43.23 42.76 40.44 37.51 42.36 42.76 48.62 48.69 49.02 50.07 50.79 51.21 49.97 46.53 46.44 46.78 48.40 50.04 51.67 53.10 53.87 53.97 54.38 54.91 54.65 54.12 53.23 52.37 50.89 49.90 48.90
42.19 43.18 43.40 44.20 44.20 44.31 43.74 42.77 41.74 41.80 39.30 41.94 44.00 45.64 46.62 46.76 47.03 48.72 50.23 50.52 49.74 44.55 44.74 46.47 47.81 48.99 50.12 50.55 50.55 51.22 51.20 50.96 50.75 50.30 50.17 49.21 48.38 47.42
39.35 39.95 40.80 42.20 42.71 43.73 43.45 41.52 41.28 42.34 40.36 39.73 42.74 43.54 43.97 46.20 46.97 45.72 47.01 49.07 49.75 45.94 44.64 46.01 47.40 48.25 47.49 46.92 46.47 46.53 46.42 46.55 46.54 47.04 47.31 47.15 46.60 45.87
38.30 38.56 39.13 39.68 40.43 41.82 41.67 41.51 41.55 40.87 41.98 41.68 40.75 43.32 43.88 45.74 44.70 44.62 43.77 44.82 47.31 47.03 44.11 44.49 46.05 46.56 45.60 45.01 44.22 43.70 43.56 43.21 43.08 43.01 43.20 43.37 43.88 44.01
35.59 36.25 36.65 37.35 37.90 38.84 39.68 39.98 40.51 40.38 41.16 40.88 40.11 40.86 42.43 43.78 43.36 41.32 39.40 41.45 40.06 43.12 44.89 44.92 44.43 44.09 44.05 43.76 42.88 42.69 42.63 41.99 41.22 40.73 40.04 39.38 39.54 40.14
33.17 33.33 34.54 35.04 35.47 36.17 36.99 38.63 39.48 39.17 39.39 39.44 39.90 40.90 40.98 41.38 39.78 40.90 39.91 37.58 36.72 37.20 37.88 40.36 43.82 43.21 42.74 41.68 41.92 41.94 41.37 40.87 40.40 39.78 38.92 37.30 36.43 36.32
30.80 32.30 33.41 34.14 34.30 33.65 33.81 34.30 35.74 36.09 35.86 38.35 38.53 39.15 40.13 41.98 42.18 40.17 36.80 34.45 34.12 34.59 34.20 32.69 37.35 40.21 40.68 41.20 40.59 39.81 39.72 39.59 39.31 38.59 37.45 35.80 34.80 34.28
31.09 32.03 32.45 33.67 33.52 33.92 33.70 33.01 32.94 33.40 32.73 35.41 36.30 39.37 39.80 42.61 43.32 39.89 37.33 38.32 35.90 33.84 35.75 29.74 31.97 32.34 36.21 38.18 38.36 38.36 38.30 38.16 37.88 36.90 35.68 34.57 33.84 33.21
31.05 31.72 31.96 32.93 33.70 33.46 33.72 33.87 34.72 36.11 35.88 35.21 36.93 39.04 42.30 43.67 43.82 42.65 39.04 36.91 33.70 33.30 32.37 28.26 30.08 28.33 31.57 32.63 36.79 37.37 36.69 36.10 36.22 35.64 34.93 34.34 33.82 32.72
31.04 31.75 31.96 32.11 32.45 33.05 32.46 32.14 32.66 34.27 36.09 35.84 36.02 36.47 36.30 37.17 38.58 43.92 36.07 34.33 30.04 30.48 29.52 28.24 27.68 27.65 30.51 31.89 32.74 35.78 35.60 35.04 35.57 35.00 35.09 34.04 32.22 31.02
31.04 32.26 31.20 31.72 31.26 31.31 32.14 31.85 31.29 32.37 34.84 34.71 35.31 36.25 36.77 37.94 35.74 40.26 38.61 35.80 31.32 29.05 30.58 25.56 26.20 25.66 22.66 28.26 31.91 33.29 34.25 34.77 34.73 34.60 33.71 32.28 31.18 30.50
30.81 32.31 34.15 31.93 31.36 31.46 31.63 32.77 32.28 33.72 33.48 34.90 34.80 34.76 35.36 38.66 38.57 37.76 38.19 39.48 32.83 30.32 31.48 29.46 26.64 23.80 24.13 24.74 28.70 30.46 31.42 31.20 31.32 31.69 31.47 31.16 30.55 31.00
30.87 32.03 32.81 30.97 30.24 31.97 31.66 31.42 31.26 31.69 34.23 35.00 34.44 34.14 33.79 34.21 37.57 39.96 38.36 38.28 38.84 38.98 31.61 30.78 27.84 27.71 25.05 23.61 22.89 26.60 27.58 28.54 28.37 27.74 29.01 29.37 28.95 25.67
30.44 30.15 28.10 28.62 29.33 30.25 31.76 31.37 30.85 32.63 33.22 32.58 34.64 34.69 35.29 36.32 37.19 36.13 31.49 31.30 31.11 31.50 31.22 31.86 30.21 30.13 28.85 25.64 22.03 23.04 23.36 25.29 27.30 28.65 28.26 25.56 24.50 24.64
30.08 30.35 29.77 29.02 31.35 32.92 32.89 31.90 32.39 33.41 32.69 33.61 34.14 35.66 37.38 33.24 31.99 32.22 28.77 26.97 24.50 25.05 29.48 31.88 30.35 28.80 27.25 26.75 24.05 22.64 23.87 21.81 25.52 26.52 25.87 25.28 25.85 26.77
28.22 30.44 29.84 28.75 29.63 31.63 33.49 32.41 32.68 33.09 34.03 36.13 35.38 32.99 32.40 29.73 29.02 30.27 29.12 27.56 25.47 24.19 25.77 28.07 29.89 30.62 28.27 26.62 24.35 23.52 24.31 24.89 25.37 25.04 24.07 22.64 24.06 26.11
28.95 27.70 27.45 27.92 27.17 27.63 28.55 31.13 32.71 32.43 33.54 34.49 33.83 32.70 31.11 29.81 27.75 28.32 28.44 29.13 24.35 24.89 26.10 26.71 26.18 24.20 23.14 23.44 27.28 24.76 25.00 24.00 23.89 23.52 23.38 22.64 23.96 26.42
27.27 26.70 26.40 25.84 25.78 25.27 25.98 27.23 27.33 29.03 30.63 29.93 30.41 30.91 30.86 29.54 28.75 28.87 27.62 28.35 24.60 25.65 25.35 25.66 24.68 24.76 21.24 20.11 21.48 21.88 24.91 24.22 22.32 21.76 24.18 24.52 24.87 25.60
27.49 26.04 25.40 25.41 25.27 25.24 24.75 24.50 25.68 27.86 27.90 27.69 28.01 27.66 27.97 27.81 28.09 26.91 27.19 25.59 24.50 23.21 22.58 24.44 25.65 26.64 26.09 20.45 19.49 21.01 24.54 22.94 22.55 23.37 22.16 23.70 24.93 18.15
26.55 26.10 26.80 26.29 25.65 24.90 25.21 25.27 25.07 25.01 26.59 27.36 26.91 26.80 27.82 26.99 26.12 26.27 25.65 24.83 24.14 23.55 22.88 24.15 22.25 23.02 22.96 22.03 16.53 16.12 17.02 17.90 22.31 23.17 22.77 21.86 20.64 21.47
27.75 26.46 26.22 26.49 25.81 25.43 26.03 26.60 26.01 25.02 24.59 25.73 26.73 27.24 27.38 25.62 23.64 22.66 22.72 23.23 23.11 23.46 18.88 18.99 21.66 22.97 23.53 21.44 17.16 16.50 16.33 17.03 14.47 14.00 15.05 16.39 21.24 19.65
27.35 28.05 28.55 27.94 27.66 27.23 26.74 25.78 24.44 24.25 24.84 25.28 25.49 25.31 25.99 24.84 24.60 24.26 23.74 21.83 19.77 19.52 20.09 19.86 20.99 22.38 20.88 19.70 18.34 18.31 14.63 15.19 17.90 17.31 17.28 12.62 13.44 14.45

GFSNE_sfc_wetblb_003.txt.gz
Wetbulb
45.88 46.49 45.78 46.18 47.18 47.59 47.74 46.25 42.94 38.88 40.01 44.21 44.95 50.37 52.72 52.35 51.90 53.20 53.39 52.33 49.35 48.44 49.65 51.79 54.31 55.54 55.81 56.51 56.66 56.50 56.73 57.03 57.53 57.23 57.30 57.41 57.39 56.13
43.74 44.29 44.57 45.30 45.64 46.61 46.59 45.85 45.39 42.32 39.11 43.40 44.45 47.36 51.21 51.57 51.98 51.31 51.90 50.36 49.28 46.66 46.80 48.15 50.61 53.51 53.99 54.54 54.96 54.82 55.12 55.31 56.08 56.25 56.29 56.30 55.88 55.06
42.29 42.41 42.58 43.98 43.30 44.04 44.54 44.59 43.20 43.16 39.76 42.80 44.98 46.60 47.07 49.86 49.63 49.98 50.26 49.70 50.65 46.27 44.79 46.07 47.16 48.85 51.06 51.33 52.06 52.94 52.86 53.27 54.30 54.69 54.72 54.53 54.30 53.23
40.03 40.64 40.76 41.57 42.27 43.27 43.15 42.92 43.03 43.55 41.30 39.28 43.06 43.73 45.27 47.87 48.46 48.60 47.95 49.26 48.84 47.74 45.17 44.71 45.59 46.12 47.40 48.54 48.77 49.32 49.91 50.52 50.93 51.19 51.60 51.60 51.88 51.92
38.88 39.10 39.39 39.95 39.74 40.79 41.39 41.57 42.44 42.59 42.38 40.36 40.18 43.30 43.70 45.67 46.35 47.48 47.34 47.75 47.21 46.70 44.56 42.73 44.11 45.19 46.10 46.80 47.34 47.70 47.51 46.97 46.63 46.73 46.87 46.84 47.74 47.97
37.39 37.12 36.37 36.88 37.15 37.94 38.80 39.63 40.80 40.57 40.86 40.20 39.96 40.40 42.14 43.84 44.90 44.22 42.03 43.31 43.25 43.19 44.19 42.76 42.94 44.72 45.53 46.31 46.58 47.09 46.55 45.50 44.57 43.54 42.75 41.88 42.20 43.64
33.82 33.24 34.10 34.72 34.77 34.89 35.20 35.56 36.53 37.88 39.04 38.86 38.40 39.26 39.67 39.97 40.56 43.64 42.24 41.48 38.80 39.91 39.65 38.22 41.26 44.35 46.59 45.94 47.81 46.64 45.34 43.95 43.45 43.02 42.11 40.58 40.37 41.18
30.01 31.28 32.59 32.86 33.19 33.15 33.23 33.36 33.67 34.37 33.88 35.68 37.49 37.40 38.87 40.41 42.07 41.87 41.71 36.75 35.65 37.18 37.07 35.14 37.92 38.01 42.86 46.91 45.14 44.11 43.54 43.11 42.49 42.11 41.14 39.81 39.26 38.30
29.78 31.01 31.70 32.56 32.99 33.57 33.18 32.89 32.67 32.61 31.55 33.63 31.93 35.28 38.06 40.79 41.79 40.85 41.11 38.27 38.21 36.37 36.18 31.66 33.47 32.74 32.65 37.75 41.79 41.54 41.74 41.65 41.43 40.55 39.28 37.95 36.56 35.68
30.27 31.06 31.38 32.02 32.67 33.03 33.44 33.63 34.08 34.96 35.10 34.14 34.14 35.34 37.38 40.59 40.40 40.52 41.59 39.89 33.99 35.18 35.76 29.69 30.17 30.87 32.49 33.77 39.34 40.88 40.29 39.72 39.42 38.69 37.60 36.05 34.90 34.08
30.98 31.56 32.07 32.12 32.19 32.46 31.78 31.00 31.93 33.61 35.56 35.33 35.51 35.40 35.25 35.44 36.22 37.57 37.39 35.35 30.63 31.46 31.83 29.75 28.34 28.49 31.47 31.40 32.11 36.81 38.57 38.26 37.51 36.65 35.41 34.54 33.82 33.27
31.33 31.99 31.09 30.77 31.05 31.40 31.48 31.05 30.10 31.63 32.77 33.91 35.43 35.14 35.37 36.21 34.22 36.16 35.91 36.48 32.95 29.57 31.58 28.01 28.12 27.87 25.70 30.31 31.37 31.69 31.72 33.72 34.61 34.77 34.37 33.66 32.69 30.88
30.03 31.38 33.19 32.07 31.95 31.81 31.69 31.64 31.41 32.62 32.16 32.58 33.27 35.44 35.13 37.08 37.46 39.12 37.20 36.48 34.06 34.88 32.90 28.55 26.39 26.06 26.61 27.67 30.85 31.57 31.76 31.66 31.85 32.74 34.46 33.46 32.15 31.48
29.53 30.33 31.55 31.97 31.75 30.51 29.70 29.99 31.67 31.66 32.10 32.64 33.47 33.68 34.59 35.21 37.42 38.91 39.67 39.01 36.52 37.82 33.72 32.06 27.72 26.46 25.56 25.99 25.57 29.56 30.92 31.54 31.81 31.20 31.41 32.09 31.68 26.76
31.25 30.90 30.39 29.87 29.79 29.48 29.36 29.18 29.25 31.54 31.26 30.97 31.81 33.70 35.68 37.25 37.51 37.53 36.68 32.92 32.14 32.82 33.31 33.40 31.58 29.90 30.37 26.98 25.20 26.22 26.52 27.77 29.58 28.99 29.32 29.14 28.70 26.77
30.40 30.72 30.18 29.56 30.26 30.90 31.99 33.28 30.87 32.40 31.60 31.19 32.38 34.88 36.85 36.35 35.88 36.10 31.92 30.06 28.79 29.07 32.29 32.47 32.73 31.40 30.42 28.34 26.66 24.78 26.72 24.77 27.47 28.05 28.23 27.43 25.80 25.43
28.74 31.08 30.43 29.88 29.80 31.11 33.41 32.88 32.19 33.01 31.91 32.39 33.31 34.10 34.11 34.64 34.05 32.74 30.13 29.71 25.96 28.02 27.55 30.17 31.22 32.34 29.62 27.35 24.54 25.01 24.74 25.06 27.09 26.44 25.46 23.96 24.97 25.99
29.91 28.35 27.95 27.97 27.29 28.36 30.54 31.51 32.42 31.78 32.45 33.05 32.80 34.46 33.27 32.20 30.80 31.56 30.72 29.78 26.69 26.81 26.61 28.12 27.69 26.03 25.68 26.37 27.61 24.40 24.92 24.32 26.04 25.78 25.43 23.25 22.87 25.03
28.20 27.22 26.48 26.94 27.13 26.82 27.62 28.62 30.20 32.79 33.66 33.46 34.01 33.54 32.79 31.15 29.49 29.44 30.61 28.37 26.81 26.12 26.28 27.30 26.79 25.72 22.60 21.38 23.52 28.59 25.93 25.84 25.40 23.68 24.57 24.20 23.78 24.60
27.58 26.70 26.89 26.30 25.74 26.12 26.79 26.86 28.55 29.03 29.51 30.04 31.30 32.41 32.32 30.91 29.83 28.75 29.23 28.32 27.97 26.44 25.79 26.51 27.14 27.33 26.18 21.96 21.35 22.11 27.45 25.52 24.06 22.78 23.09 25.62 20.33 21.79
28.07 27.10 27.29 26.48 26.41 26.33 26.02 26.92 27.66 28.23 28.89 28.81 28.75 29.01 30.26 30.17 29.76 29.75 28.72 28.15 27.16 26.24 24.22 25.06 26.42 29.79 26.21 24.63 19.74 18.83 18.59 23.49 25.17 25.56 25.04 23.41 20.97 20.48
27.80 27.62 28.43 28.19 27.80 26.92 27.56 27.01 26.37 26.84 28.04 27.33 28.29 28.64 28.63 28.92 27.50 27.04 26.68 25.43 25.32 25.54 21.77 22.47 24.47 24.74 24.01 21.98 19.39 17.84 17.86 17.97 18.64 19.17 19.41 19.90 21.06 18.62
25.78 27.04 27.28 27.90 28.12 27.89 26.83 26.21 25.62 26.00 26.35 27.05 27.02 26.52 26.07 24.65 25.81 26.41 25.90 22.50 21.96 21.35 21.30 21.27 23.00 24.61 22.81 21.28 18.82 17.41 15.90 16.03 16.90 16.50 16.37 15.25 16.05 16.36

GFSNE_sfc_wetblb_006.txt.gz
Wetbulb
39.49 39.79 39.88 40.62 41.41 41.34 41.21 40.39 37.59 34.07 35.71 39.49 38.57 41.63 42.39 48.72 49.80 50.32 50.78 50.81 49.29 47.94 48.32 49.60 52.07 54.42 55.68 56.61 57.20 57.67 58.12 58.28 58.22 57.94 57.95 58.00 57.99 58.39
38.96 38.53 38.77 39.48 39.78 40.23 40.30 40.60 40.84 38.82 35.07 39.58 40.61 39.58 40.83 43.63 48.41 48.21 49.25 49.48 48.33 47.34 46.87 47.18 49.01 51.38 53.39 54.55 55.12 55.61 56.11 56.49 56.67 56.88 56.95 57.17 57.41 57.64
37.34 37.16 37.11 38.11 37.70 38.23 38.87 38.96 38.61 38.76 35.89 38.31 40.72 40.93 39.08 39.43 41.33 46.57 47.76 47.45 49.05 46.46 44.90 45.52 46.04 47.13 48.47 52.12 52.55 53.31 54.08 54.51 54.69 55.50 56.04 56.35 57.31 57.56
35.47 35.59 35.68 37.90 36.27 37.08 37.43 37.03 37.45 38.20 37.15 35.40 38.40 39.22 38.65 38.45 39.33 39.91 45.50 46.95 45.54 46.24 45.10 44.84 44.77 45.12 45.59 45.82 48.75 50.34 51.15 51.39 51.53 52.92 53.84 54.62 55.90 56.27
34.71 34.29 34.59 35.04 34.30 35.15 35.80 35.95 36.64 38.18 37.39 36.58 36.37 38.85 39.10 37.73 36.73 37.80 39.56 43.36 45.41 46.11 43.79 42.89 43.56 44.23 44.59 44.53 45.53 48.21 49.02 49.08 48.22 48.76 49.95 50.90 52.25 52.78
34.31 34.14 33.96 33.46 32.96 32.90 33.43 33.30 34.46 34.04 34.92 34.99 35.75 36.47 37.26 37.99 36.18 34.18 34.53 38.45 39.30 43.74 43.58 42.73 42.60 43.65 43.98 44.10 43.99 45.61 48.79 48.69 48.18 48.10 46.12 45.32 46.50 47.98
31.77 32.02 31.62 32.23 34.05 33.30 32.19 31.29 31.46 31.63 32.42 33.15 33.66 34.73 34.89 34.81 33.42 34.50 34.01 34.91 37.00 37.65 39.06 40.52 39.89 43.17 44.06 43.54 44.47 44.87 46.86 48.37 47.63 47.36 46.89 45.21 43.73 44.42
29.16 29.99 30.08 31.54 31.41 32.44 32.47 32.67 32.09 29.69 29.24 30.12 31.33 32.38 33.13 34.43 34.78 33.67 32.92 31.33 34.58 33.89 35.96 37.45 35.33 38.18 38.54 43.64 44.38 43.79 44.56 46.66 47.29 46.62 45.64 44.73 43.99 42.72
28.00 28.28 28.96 30.63 31.11 30.83 31.46 32.23 32.27 32.55 31.13 30.08 27.90 29.30 31.04 32.25 34.68 32.78 32.13 32.09 35.43 34.08 34.79 32.88 32.85 33.98 33.87 37.91 40.81 42.13 43.67 44.87 46.53 45.84 44.15 42.76 41.38 40.24
28.52 28.58 28.38 28.52 29.60 30.26 30.11 30.15 31.25 32.25 32.69 32.29 30.86 30.78 31.29 32.77 33.67 35.10 34.27 33.42 34.17 33.21 31.71 32.22 30.28 30.23 32.64 33.87 39.64 40.97 42.73 43.48 44.29 43.75 42.65 40.81 39.37 38.24
29.70 29.68 29.71 29.06 30.57 32.09 30.35 29.79 29.45 30.05 33.72 35.09 34.93 34.48 34.24 33.94 33.94 33.19 31.27 32.23 31.97 31.43 31.75 29.04 28.47 28.24 29.81 30.71 32.86 38.45 39.56 41.48 42.27 41.71 41.07 39.95 38.61 37.00
30.46 31.21 31.72 31.68 31.60 31.39 29.92 29.27 28.03 28.82 30.19 30.49 31.03 32.88 34.49 33.74 34.28 33.42 31.62 30.19 31.10 29.59 31.58 26.19 27.45 27.99 25.83 30.12 30.94 32.67 33.39 36.06 39.25 38.91 38.34 37.26 36.05 34.19
28.38 28.20 29.17 30.63 31.10 31.60 32.20 29.97 29.25 30.23 29.96 29.87 30.31 30.34 31.49 32.60 32.71 33.44 33.19 32.06 31.78 32.29 29.42 27.18 26.35 26.65 27.12 26.82 29.39 31.02 31.69 31.88 31.72 33.06 36.62 36.11 35.65 33.04
27.96 29.24 29.65 31.07 31.08 31.48 30.86 30.88 31.21 30.71 31.01 30.57 29.85 29.16 30.61 31.54 32.50 33.64 33.80 33.74 35.55 35.43 31.62 28.77 24.63 25.58 26.73 26.00 24.57 29.76 30.47 31.40 31.75 30.89 31.07 32.47 32.74 32.19
28.64 29.37 30.60 30.79 30.79 30.11 30.61 30.28 29.32 28.33 27.62 28.33 28.95 29.68 30.82 31.50 33.36 33.31 33.03 34.98 33.69 33.63 32.57 31.65 27.51 27.87 28.29 25.76 25.50 27.32 27.46 29.55 30.91 30.03 29.92 27.97 25.23 25.21
29.37 29.17 28.40 28.38 28.96 29.46 29.86 30.79 30.54 29.79 27.63 27.61 29.52 29.97 32.01 32.52 32.84 33.20 31.34 31.02 28.96 29.08 31.44 31.54 30.16 28.87 27.45 27.75 27.94 26.21 27.11 25.11 28.82 29.30 29.22 28.27 27.61 28.39
29.28 28.51 27.76 27.01 26.40 26.70 28.12 30.83 28.38 28.09 28.04 29.97 29.23 29.60 30.75 30.97 32.07 31.58 30.04 28.80 27.18 26.98 27.50 30.05 30.92 30.26 29.21 28.32 25.79 26.17 25.93 26.18 27.64 26.95 25.85 23.13 25.22 26.80
27.71 25.78 24.14 24.17 25.01 25.60 26.04 28.95 27.72 26.67 26.95 26.34 26.88 29.94 31.05 31.43 30.54 29.82 30.14 27.92 27.18 26.15 25.76 26.39 26.09 24.95 25.61 25.85 28.46 24.56 25.05 25.65 26.04 25.90 25.05 23.13 22.87 25.73
25.26 23.72 23.30 23.88 23.30 24.64 25.42 27.06 27.53 30.86 30.34 28.59 27.47 30.72 28.97 28.39 29.58 28.80 28.88 27.92 26.74 26.35 26.34 26.25 25.31 24.12 21.47 19.03 23.09 28.22 23.78 24.73 24.59 23.78 24.50 24.18 23.11 24.08
26.37 24.84 23.92 23.40 24.71 23.33 24.59 25.49 27.24 28.24 28.24 28.85 30.86 31.25 27.86 26.65 27.14 27.85 26.76 25.77 25.05 25.97 25.15 25.73 24.79 25.85 23.47 19.92 19.44 19.62 28.20 24.33 23.52 22.91 23.02 22.01 23.21 26.59
24.54 24.39 25.73 25.10 23.68 24.72 24.50 24.50 25.78 25.96 27.47 27.92 28.10 28.50 28.78 28.67 28.00 27.82 24.74 25.42 24.83 24.87 23.49 24.17 25.86 26.87 22.65 20.86 18.04 15.34 18.18 28.38 26.28 23.67 23.87 19.65 18.61 19.31
22.56 23.89 24.41 25.36 25.77 24.37 23.54 23.68 23.85 24.64 25.97 25.42 24.90 25.10 26.56 27.34 26.59 25.12 24.79 24.01 24.56 22.71 19.97 22.15 24.23 23.92 20.87 19.44 15.10 13.51 14.36 17.19 22.56 23.48 22.90 21.35 19.88 16.10
19.97 21.15 22.75 23.67 24.46 25.12 24.91 23.58 23.08 23.09 23.60 24.64 24.05 24.14 22.50 21.49 23.23 21.67 20.58 20.28 20.21 20.00 20.29 21.11 24.04 23.81 21.05 18.70 16.78 15.65 14.65 15.53 16.74 14.17 12.97 19.31 19.98 20.36

GFSNE_sfc_wetblb_009.txt.gz
Wetbulb
37.27 37.42 37.71 38.28 38.92 39.07 39.05 38.21 35.31 31.41 32.88 37.16 37.11 40.31 41.87 42.99 46.77 46.83 48.86 49.62 48.89 47.78 47.37 48.78 50.40 51.74 52.30 53.71 54.96 57.97 58.50 58.47 58.70 58.56 58.61 58.70 58.86 59.36
37.32 35.84 36.25 37.28 37.90 37.79 38.13 38.29 37.51 35.10 32.05 37.04 38.35 39.42 40.22 41.71 43.06 44.88 46.07 48.35 47.60 46.61 46.05 46.41 47.29 48.81 49.75 50.18 51.74 53.25 56.53 57.08 57.37 57.55 57.69 57.97 58.40 58.46
34.79 34.41 34.52 35.40 35.37 35.94 36.40 36.43 35.89 35.89 32.56 34.98 37.57 38.88 38.50 39.61 40.82 40.25 44.00 45.49 46.07 45.48 44.31 44.85 45.19 45.54 45.90 46.21 46.61 48.65 51.34 55.17 55.70 56.05 56.57 57.25 58.17 58.23
33.90 32.63 33.36 35.69 33.53 33.74 34.11 33.73 34.03 34.93 33.67 31.63 34.59 36.10 36.52 38.04 38.13 38.14 39.43 44.02 44.50 45.39 44.96 43.13 43.54 44.45 44.24 43.94 43.76 44.14 45.11 48.40 52.98 53.68 54.27 55.55 56.52 57.01
32.85 32.42 32.76 32.60 31.81 32.31 32.25 32.42 33.35 34.93 34.19 32.96 32.61 35.20 35.67 36.10 36.75 36.34 36.59 37.53 43.08 45.34 43.51 41.17 41.61 42.22 43.91 43.89 44.08 44.08 44.29 44.12 46.79 50.46 50.94 51.72 52.79 53.89
31.21 30.99 30.82 30.55 29.68 29.66 30.18 30.21 31.42 30.87 31.60 31.17 31.06 31.96 33.57 35.42 34.76 34.79 33.59 33.57 34.83 42.37 43.20 42.23 40.83 42.50 43.17 43.53 43.24 43.64 43.73 44.38 44.27 46.35 48.19 48.17 48.77 50.39
29.28 29.98 30.36 31.52 33.76 33.02 31.06 29.74 29.39 28.87 29.49 29.59 28.92 29.78 31.12 31.34 32.98 32.45 32.16 31.42 32.46 35.13 35.65 36.61 36.65 37.60 39.47 42.48 43.40 43.96 43.83 43.51 43.68 43.91 46.07 47.35 47.27 48.13
27.01 28.20 28.99 30.89 30.82 32.10 32.11 32.14 30.96 27.88 27.17 27.16 27.38 27.28 28.84 30.77 34.22 33.36 32.27 30.27 27.11 32.58 31.80 34.31 34.43 36.47 36.49 40.16 41.50 41.70 43.19 43.50 43.53 43.56 44.05 46.50 46.56 46.51
26.54 26.80 27.57 29.14 30.10 29.00 30.12 30.93 30.74 31.59 30.46 29.41 27.40 27.21 27.65 29.81 31.26 29.46 31.55 31.93 30.25 31.61 32.29 33.39 25.32 32.12 31.04 35.08 37.11 38.55 39.69 42.60 42.72 42.98 42.84 44.35 46.43 45.93
27.67 27.85 27.63 27.63 28.43 28.58 28.15 27.31 28.18 29.14 30.54 30.86 30.36 30.06 30.33 30.43 29.94 30.53 30.22 32.63 32.88 33.73 32.95 31.51 24.21 25.23 24.87 28.82 35.32 37.04 39.37 41.33 42.13 42.31 42.43 43.46 44.98 44.63
29.26 29.52 30.21 29.58 30.84 31.99 29.90 28.80 28.02 28.43 31.69 33.18 33.67 33.95 34.00 33.66 32.76 29.92 28.09 27.74 27.63 31.19 32.12 31.01 27.98 27.57 23.64 23.38 28.17 34.83 36.38 39.18 41.07 41.76 42.58 43.05 43.86 44.18
27.84 28.45 30.00 29.30 30.86 31.71 30.41 29.37 27.67 28.16 28.91 29.37 29.76 31.48 33.32 33.51 33.82 32.44 31.07 27.63 27.18 26.55 27.78 31.08 27.38 28.00 25.60 21.02 24.16 31.84 33.03 35.77 39.87 40.86 42.04 43.04 43.13 44.94
26.90 27.43 28.32 30.10 30.73 31.18 31.54 30.16 28.90 30.16 29.62 29.06 28.71 29.11 29.63 30.45 31.35 32.90 33.40 32.08 29.38 27.96 31.64 30.77 27.13 26.82 25.47 22.28 22.32 30.48 31.32 32.48 33.45 35.99 40.50 41.28 40.99 42.93
27.13 28.32 28.46 29.66 30.31 30.56 30.89 31.16 31.05 30.03 30.32 29.27 28.68 28.37 28.68 29.51 30.44 32.38 32.82 32.95 32.81 31.47 31.50 32.45 28.86 27.21 25.44 24.18 24.77 24.99 29.81 31.40 32.11 31.63 32.23 33.99 36.33 37.63
29.65 30.06 30.75 30.97 30.72 29.57 30.11 30.47 29.85 29.41 27.58 26.76 26.95 28.76 29.36 30.53 31.43 31.99 32.60 33.31 32.98 32.77 32.77 31.82 30.34 28.63 27.75 20.89 23.92 22.03 27.60 28.92 30.43 29.30 29.32 29.50 29.16 30.30
28.77 28.74 27.10 27.51 27.27 26.65 26.92 28.96 29.94 30.26 28.84 27.08 26.62 28.24 30.77 30.62 29.95 31.44 31.07 31.91 31.11 30.90 32.59 32.53 31.43 30.25 28.14 25.72 27.64 26.56 27.28 25.94 28.78 27.86 26.48 26.14 26.53 27.83
27.23 25.21 23.78 22.77 23.43 25.22 25.75 27.30 26.04 24.46 28.75 27.05 26.67 27.62 28.67 29.37 30.23 31.69 31.66 30.09 27.61 27.05 27.43 29.44 30.38 29.55 28.86 28.14 26.26 27.10 26.24 27.32 28.48 27.46 26.47 25.04 26.04 26.53
25.99 20.37 20.64 21.80 21.49 23.12 23.71 25.67 27.42 24.30 24.87 25.88 25.33 26.96 28.58 29.39 29.41 30.22 30.30 29.07 27.90 26.29 26.82 26.43 26.38 26.42 26.37 24.98 28.39 25.14 26.07 26.22 26.78 26.21 25.99 23.67 23.71 25.99
23.73 23.19 19.72 20.55 22.17 22.84 23.43 24.52 25.42 27.60 29.18 24.85 26.91 29.25 29.34 27.18 28.92 28.68 28.53 27.01 24.18 24.15 26.06 25.28 24.69 20.80 19.27 15.28 22.07 28.50 24.79 24.97 24.90 24.02 25.23 24.76 23.75 24.84
23.45 22.23 22.93 21.15 22.00 22.36 22.90 23.03 24.49 25.47 27.32 27.56 30.00 26.93 26.89 25.26 25.32 26.68 26.14 21.18 23.43 23.89 22.99 24.54 24.36 21.57 19.96 19.85 18.74 19.66 28.21 24.03 24.57 23.08 21.76 22.67 25.26 27.00
19.97 21.59 21.96 22.40 23.10 22.60 21.83 21.97 22.71 23.85 23.13 24.32 24.87 26.76 23.48 19.11 23.74 23.12 19.23 17.28 18.63 20.93 22.30 22.79 22.35 22.19 22.45 22.89 18.01 15.29 18.16 28.77 26.97 24.46 21.76 20.98 19.97 19.77
17.62 18.56 18.96 19.57 20.06 22.35 22.55 22.17 21.63 22.70 22.63 22.69 22.79 22.31 23.43 24.68 23.70 23.20 20.53 21.42 21.87 19.10 19.48 21.32 23.20 23.38 19.07 20.13 14.54 12.91 15.33 18.07 23.30 25.02 25.49 23.60 20.16 16.74
15.97 16.11 16.33 16.29 17.26 17.96 18.87 21.98 21.78 20.57 21.29 21.34 21.71 21.66 22.12 21.56 21.88 20.36 18.90 19.42 20.37 20.38 20.80 21.07 22.21 21.51 18.80 17.58 15.14 13.60 12.08 14.29 14.88 14.02 15.85 22.81 24.06 24.82

GFSNE_sfc_wetblb_012.txt.gz
Wetbulb
36.91 36.52 36.11 36.99 37.25 37.45 36.92 35.93 33.41 29.73 31.22 35.58 36.50 39.96 40.35 41.03 41.86 42.05 44.15 47.34 47.72 47.54 47.18 47.89 49.56 50.68 51.01 51.66 52.34 52.00 54.17 57.04 58.68 58.48 58.59 58.85 59.18 59.47
36.22 34.83 35.28 36.04 36.33 36.49 36.53 36.10 35.23 32.94 29.51 34.25 35.46 37.71 39.58 40.67 42.30 42.08 40.97 44.69 45.35 45.82 45.40 45.51 46.50 47.96 47.91 49.10 49.44 49.99 49.87 52.52 52.44 57.59 57.60 58.03 58.59 58.86
34.31 34.10 33.91 34.36 34.00 34.32 34.67 34.84 33.98 33.58 30.68 32.90 35.77 37.34 37.20 37.66 39.37 40.88 42.03 40.90 41.71 43.69 42.38 43.29 43.34 44.17 43.56 44.30 45.65 45.92 47.80 49.00 49.98 50.74 56.75 57.46 58.30 58.62
32.24 32.44 32.57 34.29 32.20 32.16 31.98 32.00 32.43 32.73 31.29 29.18 32.18 33.86 34.69 36.61 37.61 38.26 39.86 41.32 40.87 42.71 43.04 43.52 43.55 43.11 41.78 43.42 41.83 42.34 43.55 44.90 45.97 47.52 48.32 55.36 56.68 57.36
31.89 31.30 31.46 31.37 30.04 29.87 29.82 29.93 30.67 32.69 31.86 30.54 30.06 32.44 33.79 34.78 35.29 36.26 37.23 38.04 39.18 41.95 41.90 41.99 41.96 42.92 42.19 41.83 41.42 42.96 43.06 43.12 43.11 43.67 44.57 45.66 52.83 54.45
29.44 29.24 29.61 29.42 29.08 28.85 29.03 28.87 29.46 28.76 29.12 28.62 28.68 29.63 31.59 33.11 33.41 32.40 32.63 34.76 34.58 37.56 41.17 41.74 41.63 41.06 41.11 41.85 42.28 42.60 43.00 43.09 43.11 43.06 42.78 42.25 42.98 49.62
28.35 28.52 28.79 30.14 32.38 32.22 30.53 29.28 28.90 27.83 27.21 26.59 26.03 27.13 28.18 28.90 29.21 30.83 31.05 30.99 32.55 33.10 34.55 37.00 37.33 37.25 38.31 40.70 41.66 42.29 42.03 42.32 41.98 42.93 43.07 42.71 42.61 43.50
26.55 27.25 27.61 29.50 29.16 30.85 31.84 31.96 30.85 27.82 26.64 26.43 26.19 25.54 26.22 28.04 29.74 29.59 31.22 30.60 28.99 29.47 31.63 31.50 33.58 33.61 35.75 35.63 39.75 40.21 40.67 41.15 42.35 42.50 42.74 42.11 42.56 43.25
27.04 26.97 27.06 28.29 29.48 28.52 29.69 30.87 30.49 31.21 29.91 28.11 26.63 26.90 27.05 28.43 28.55 27.66 28.29 28.32 28.41 32.08 33.10 31.83 31.08 32.81 32.03 35.31 38.04 38.01 38.32 38.88 39.29 40.02 41.48 41.38 41.34 40.78
27.66 27.63 27.81 27.99 28.94 28.73 28.51 28.16 28.30 28.27 28.58 28.93 28.98 29.52 30.09 30.56 30.01 29.42 28.82 28.58 28.73 31.16 34.05 30.03 30.67 28.56 22.22 26.98 35.22 37.10 37.67 37.89 38.21 38.76 39.34 40.55 40.70 40.41
28.26 28.15 28.20 28.41 29.93 31.43 29.09 28.66 28.65 28.39 30.87 32.26 32.35 32.20 32.53 32.99 32.35 30.16 28.08 26.99 25.25 26.53 30.47 31.55 31.51 24.57 23.82 22.34 26.82 34.07 35.05 35.85 36.53 36.73 38.07 39.68 40.78 40.45
26.33 27.28 28.95 28.63 29.72 30.31 28.84 27.96 27.03 27.96 28.54 28.41 29.19 31.06 32.22 31.80 32.78 32.60 30.25 26.85 26.38 23.32 26.54 29.56 27.68 26.64 28.69 17.23 20.45 22.38 24.78 33.10 35.47 36.07 37.30 39.37 40.34 41.34
26.15 26.83 27.41 29.71 30.58 30.70 30.96 28.79 28.29 29.32 28.84 28.61 28.70 28.52 28.97 28.54 29.40 31.07 32.68 31.31 28.40 27.35 28.52 29.99 25.69 23.22 26.94 24.43 18.37 20.58 24.49 27.43 32.36 33.94 36.71 39.01 39.91 41.17
26.94 27.85 28.96 30.45 29.99 30.31 30.07 30.86 30.87 29.87 29.53 28.41 27.60 27.56 27.73 27.81 28.73 29.92 30.68 32.07 32.97 31.35 30.78 29.33 25.55 23.37 20.74 17.90 20.02 19.31 19.43 22.88 31.23 31.15 32.16 35.70 38.68 39.81
29.14 29.09 29.08 28.83 27.81 26.83 28.62 29.13 28.51 28.47 28.10 27.14 25.94 26.43 28.22 29.23 30.13 29.55 28.58 29.84 30.87 32.01 32.40 30.58 28.94 25.51 24.86 21.35 25.40 19.02 18.76 20.09 23.14 27.83 27.58 29.33 31.80 34.41
26.65 26.35 23.82 24.61 22.66 25.12 26.63 27.30 28.10 28.69 28.90 27.85 26.98 27.40 28.88 29.67 29.01 28.74 29.06 30.16 30.09 29.95 32.32 32.00 31.16 30.65 25.34 23.55 24.57 19.49 20.64 19.96 20.79 26.67 26.55 26.92 28.30 29.31
26.85 22.51 21.65 21.34 22.14 23.35 24.33 25.59 27.44 27.65 24.48 27.19 26.80 25.55 26.68 27.46 28.66 27.72 29.39 29.21 28.44 29.02 29.35 31.33 32.19 32.00 29.07 26.97 25.06 25.98 25.32 25.09 22.20 26.22 26.15 24.64 25.70 26.42
24.35 21.27 17.20 20.25 20.48 21.83 22.08 22.64 23.96 26.00 25.87 20.79 17.55 20.05 21.32 24.87 23.93 25.23 28.37 29.34 28.33 27.62 26.53 26.92 27.10 26.59 26.33 25.21 29.19 25.07 25.48 25.38 23.07 26.07 26.32 23.70 22.88 25.55
22.03 20.64 18.81 20.46 20.65 21.14 21.20 21.77 22.06 24.61 27.76 28.08 26.26 27.36 27.98 26.30 29.18 28.92 27.21 26.29 25.67 25.86 26.06 26.83 27.36 25.96 21.66 20.03 21.40 27.89 24.27 25.29 23.16 24.28 25.59 24.67 23.14 24.06
19.58 18.90 18.10 18.61 20.14 21.22 20.69 20.41 21.18 22.70 22.43 24.49 26.81 24.33 25.51 22.66 20.59 23.49 25.54 22.38 23.25 23.47 23.34 24.71 24.54 24.24 20.93 17.82 15.93 14.99 27.72 24.26 24.28 22.43 22.01 23.83 25.56 27.35
17.05 17.48 17.27 16.73 17.12 17.71 19.58 20.23 21.09 20.60 21.18 21.74 21.95 22.54 21.01 15.20 20.06 19.74 20.56 21.97 20.78 21.90 21.79 21.67 22.07 23.99 22.74 20.96 14.59 14.19 21.46 28.67 26.22 22.97 22.97 21.43 19.93 20.41
15.09 15.31 15.61 15.38 14.75 15.46 16.04 18.14 20.04 20.94 19.65 19.58 19.96 20.16 21.30 22.24 22.34 23.06 20.93 20.57 20.94 18.61 19.87 21.64 23.85 23.62 20.17 18.10 10.68 7.20 14.85 18.70 23.94 25.16 26.12 24.06 20.73 17.24
13.21 12.93 13.01 13.35 13.21 13.07 14.16 14.25 18.81 19.23 19.46 18.45 18.10 18.89 18.71 18.74 19.20 18.11 16.90 19.50 20.68 20.83 20.82 20.16 20.77 20.04 18.38 16.80 14.96 11.33 12.96 15.25 15.54 14.96 13.89 22.68 26.16 25.32

GFSNE_sfc_wetblb_015.txt.gz
Wetbulb
37.51 36.25 34.89 34.70 35.28 35.96 35.99 35.06 32.00 27.88 28.33 32.23 32.81 36.62 37.71 38.80 40.60 40.39 40.68 42.70 43.93 44.04 44.24 46.12 48.83 50.72 50.72 51.06 51.42 52.08 52.20 52.85 55.24 56.77 59.12 59.22 59.27 59.52
36.08 34.51 34.21 34.93 35.17 35.55 35.33 35.25 34.53 31.58 28.15 31.85 33.40 33.72 35.68 38.34 39.82 40.26 40.62 43.26 42.83 42.51 43.07 44.19 44.93 46.47 47.63 48.31 49.69 49.86 49.83 50.28 50.18 50.25 53.63 58.33 58.76 58.87
34.18 33.82 33.28 33.86 33.33 33.11 33.52 33.60 32.67 32.17 29.05 31.10 32.99 34.31 33.19 33.67 35.97 37.46 38.79 39.47 40.70 41.58 41.99 42.13 42.96 43.22 44.05 44.54 44.18 45.68 46.02 47.89 48.96 49.08 50.43 52.68 58.20 58.89
31.74 31.42 31.50 33.41 31.79 31.77 31.42 30.97 31.00 31.61 29.99 27.91 30.67 31.24 31.80 33.18 34.97 35.40 37.07 39.03 38.73 40.23 40.99 41.34 42.45 42.41 42.09 41.59 41.32 41.90 42.53 43.24 44.52 46.82 48.16 48.69 51.33 55.65
30.66 30.36 30.44 30.39 29.10 29.33 29.65 28.82 29.30 31.01 30.53 29.12 28.55 30.63 31.25 32.14 32.26 33.83 34.37 35.32 36.91 39.56 39.28 39.56 40.92 42.29 42.09 41.58 41.97 40.52 40.80 40.49 40.44 41.71 43.59 45.11 47.34 48.41
29.05 28.73 28.21 27.85 27.36 27.53 27.91 27.85 28.61 27.80 28.02 27.32 27.00 27.37 29.08 31.31 30.92 29.57 29.80 32.55 33.35 36.26 37.95 38.02 39.18 41.20 41.75 41.67 40.51 39.93 42.57 42.54 42.11 41.88 41.33 40.36 41.09 44.31
27.90 27.92 27.98 28.93 31.24 30.39 28.84 27.88 27.99 27.32 27.05 26.75 26.33 26.76 26.57 26.47 26.22 27.92 28.21 29.89 31.44 32.61 33.89 35.33 35.78 37.44 40.47 41.47 41.67 42.47 42.02 41.58 40.92 40.65 41.08 41.36 40.81 41.61
26.17 27.09 27.51 29.45 29.02 30.47 30.62 31.16 30.43 27.53 27.08 26.77 26.60 25.44 26.21 27.17 27.63 27.16 26.58 26.12 25.35 29.22 32.53 33.41 34.35 33.94 35.33 37.16 40.14 40.24 40.88 41.27 41.54 41.60 41.56 41.20 40.95 41.03
26.44 26.59 27.08 28.29 29.22 28.22 29.08 29.78 29.95 30.52 29.69 28.91 26.93 26.35 25.73 26.70 27.30 26.43 27.19 26.54 26.40 29.27 28.91 28.80 29.28 31.93 34.77 35.24 37.83 39.28 39.64 39.74 39.54 39.62 39.26 39.07 39.46 39.59
26.86 27.11 27.25 27.11 28.21 28.61 28.13 27.81 27.84 28.16 28.83 28.36 28.16 28.26 28.53 28.80 29.17 29.08 27.65 27.46 28.05 27.53 29.18 26.84 29.02 31.13 26.11 28.94 34.66 37.53 38.44 38.44 38.39 38.59 37.93 37.90 37.89 38.50
26.93 27.13 26.91 26.94 28.91 30.45 27.98 26.81 26.86 27.29 30.65 32.02 32.20 31.17 31.50 32.09 31.47 29.64 27.73 26.56 24.37 24.99 23.70 26.63 26.25 28.02 28.37 27.47 29.35 34.67 36.98 37.45 37.01 36.46 36.62 36.71 36.80 37.74
25.74 27.32 28.56 27.92 29.36 29.97 28.23 27.55 26.39 26.94 27.68 28.19 28.89 30.67 32.02 31.21 31.97 31.11 29.72 26.40 25.60 23.65 23.23 24.90 23.60 24.23 23.77 20.79 20.16 21.91 23.83 32.61 34.20 35.45 36.04 35.98 36.29 37.09
25.36 26.21 27.94 29.55 29.67 30.21 30.69 28.18 27.84 29.54 28.15 27.98 28.37 28.91 29.07 29.18 28.98 30.43 31.44 30.59 27.46 26.20 27.10 26.83 22.27 22.93 27.01 22.99 17.74 18.69 26.01 29.48 30.23 32.30 33.73 34.78 35.46 36.97
26.18 28.25 27.72 28.68 28.40 28.06 27.15 27.91 29.35 29.00 29.07 27.94 27.65 27.83 28.11 28.26 28.72 29.75 30.46 31.33 31.49 30.86 30.08 29.90 26.97 25.62 25.73 26.74 26.90 16.56 16.13 18.04 24.57 22.93 24.31 31.50 34.17 36.04
29.12 28.38 29.21 26.92 26.26 25.14 26.34 27.63 27.65 27.00 26.77 26.31 26.11 27.05 28.21 29.17 29.52 29.10 29.86 30.47 31.69 32.44 32.56 31.15 28.36 25.19 24.02 22.08 19.46 22.79 17.56 16.19 19.73 15.50 17.93 23.52 28.37 30.47
26.73 26.73 24.90 24.30 23.33 24.57 25.43 26.12 26.71 27.76 27.03 27.14 27.00 27.74 28.73 28.91 28.59 29.31 28.37 28.38 28.26 28.48 32.05 32.60 31.94 30.78 28.16 27.10 24.60 24.58 16.26 21.15 22.00 15.34 16.39 16.47 23.60 27.75
24.52 23.17 21.06 19.96 20.33 21.28 21.89 22.92 23.31 23.69 25.73 22.75 23.34 24.79 25.69 26.58 27.11 27.68 28.44 28.72 27.21 27.03 27.81 30.47 31.98 31.78 31.28 30.64 26.83 26.30 18.22 19.34 17.69 18.68 19.46 15.98 18.59 24.15
23.04 20.32 17.00 16.29 18.05 20.00 19.63 19.41 20.44 21.52 23.24 26.59 24.64 21.02 21.20 23.96 24.11 24.65 28.37 28.00 27.13 26.79 27.79 29.16 29.77 27.43 26.42 26.34 29.70 23.66 24.16 23.46 19.81 17.85 17.63 16.08 18.64 25.42
18.96 18.06 15.61 14.53 15.43 17.78 19.34 19.49 19.29 21.21 23.17 24.30 25.70 27.22 27.18 27.59 27.27 26.50 27.08 27.90 27.00 22.98 24.10 26.08 26.97 26.32 23.48 21.96 23.01 27.83 23.58 22.18 18.32 17.41 17.46 17.45 20.85 23.96
17.49 16.65 15.16 14.98 15.24 16.18 16.83 19.08 20.03 20.06 18.84 20.14 21.46 21.97 23.08 24.20 24.01 25.10 25.40 22.54 22.05 21.71 21.73 24.24 24.55 25.72 24.76 22.62 20.38 20.76 27.69 22.10 17.55 13.51 17.11 22.67 24.99 27.10
15.12 14.92 15.04 14.62 13.60 13.94 13.60 14.34 19.61 20.06 17.26 16.72 17.58 18.18 19.34 21.96 23.98 23.11 21.15 23.49 23.30 22.86 22.13 22.13 22.16 24.19 22.42 22.04 16.81 14.65 20.43 28.27 24.77 15.09 18.83 18.52 19.57 20.90
13.10 13.33 13.47 13.50 12.63 12.30 11.99 12.21 15.72 19.00 17.79 16.78 16.36 15.72 16.11 19.11 19.84 21.08 20.18 20.05 18.24 18.04 19.42 21.60 23.97 24.20 21.35 19.80 13.46 11.23 11.48 16.03 22.02 23.17 25.01 23.64 20.68 17.86
11.43 11.29 11.02 11.37 12.06 12.39 12.65 11.77 12.37 14.91 18.40 15.86 14.52 15.21 13.42 11.63 15.31 13.22 12.54 15.89 14.81 13.80 16.98 17.84 19.36 18.58 17.67 17.41 15.95 13.42 11.37 12.46 13.99 16.81 15.66 23.74 26.13 25.87

GFSNE_sfc_wetblb_021.txt.gz
Wetbulb
39.02 38.57 38.39 39.04 39.52 39.24 38.98 37.82 34.53 31.28 33.56 37.47 36.99 40.60 41.11 41.93 42.05 42.54 42.50 41.76 42.11 42.16 41.65 41.64 42.15 44.10 44.81 45.17 45.83 49.06 50.82 51.57 51.51 52.25 52.87 54.37 55.77 56.99
39.60 39.26 39.16 39.67 39.49 39.30 38.44 37.92 36.76 33.79 30.73 35.70 36.90 38.77 39.99 39.70 40.52 41.19 41.26 42.05 40.65 40.59 39.88 40.86 42.77 42.91 42.57 43.05 43.41 44.70 45.89 50.26 50.41 50.50 51.18 50.56 53.22 55.87
39.12 38.31 37.73 38.12 37.02 37.09 37.30 36.75 35.94 35.54 32.25 34.79 37.24 38.59 38.19 38.36 38.95 40.09 40.50 40.35 40.52 39.65 39.95 41.14 40.86 40.63 40.68 40.93 41.14 42.69 43.63 44.33 48.09 48.46 49.91 49.99 50.80 53.30
36.07 36.14 35.57 35.59 35.59 36.16 35.70 34.90 35.04 35.56 33.66 31.49 34.48 35.47 36.05 37.41 37.79 37.72 37.88 38.63 39.33 39.04 39.87 39.35 39.21 38.95 39.26 39.38 39.72 40.67 41.72 41.94 43.20 45.45 45.89 47.55 48.42 48.36
34.76 34.06 33.79 33.82 32.79 33.22 33.17 32.63 33.19 33.20 33.41 31.76 31.32 34.22 34.68 35.65 35.21 36.23 36.45 37.46 37.88 38.17 37.46 37.68 38.24 38.78 38.86 39.29 40.01 40.01 41.00 40.68 40.29 42.13 42.26 42.94 43.84 45.06
33.69 33.13 32.60 32.12 31.67 31.28 31.04 31.22 31.43 31.13 31.45 30.69 30.55 31.31 32.38 34.11 34.02 32.57 32.76 35.77 35.38 36.75 36.78 36.44 37.11 37.89 38.78 38.67 38.88 39.76 40.52 41.00 40.44 40.63 40.71 39.66 39.39 41.23
32.64 32.54 32.60 32.11 31.44 31.12 30.94 31.21 30.86 29.52 28.66 27.67 27.46 29.15 29.48 29.68 29.17 31.53 31.33 33.22 34.55 35.82 35.20 36.05 37.13 38.14 38.58 38.39 38.61 38.87 39.85 41.02 40.93 40.43 41.25 40.38 39.34 39.57
29.49 30.43 30.97 30.68 30.77 30.03 29.99 30.11 29.84 28.17 27.71 28.10 27.93 27.52 28.47 30.06 31.02 30.53 30.62 29.30 28.72 36.14 33.84 33.53 36.21 35.77 37.38 38.84 37.65 38.42 39.16 39.76 40.07 40.28 41.56 40.48 39.55 38.80
29.68 29.51 29.36 30.08 30.32 30.56 29.62 29.12 29.30 29.70 29.06 29.07 27.29 27.94 28.10 29.98 30.62 29.96 30.02 30.11 30.06 33.40 33.16 31.19 34.84 33.54 37.08 36.26 36.58 37.33 37.54 38.35 39.29 40.23 40.46 39.45 38.68 38.42
29.51 29.60 29.20 29.07 28.92 28.25 28.40 28.90 29.85 30.31 30.64 30.88 30.43 30.86 31.37 32.17 31.78 31.15 30.98 30.97 32.39 32.75 33.35 27.85 33.62 32.92 35.66 36.65 35.64 35.67 36.60 37.59 38.26 39.21 39.67 39.36 38.41 37.75
29.18 28.78 28.73 28.22 29.23 30.18 29.42 29.23 29.34 30.20 31.87 32.13 32.13 32.18 32.29 32.13 32.38 32.02 30.05 28.63 28.47 29.82 33.51 29.79 31.27 31.41 33.41 35.11 37.58 35.70 36.10 36.87 37.11 37.82 38.74 38.67 38.18 37.33
28.90 29.59 29.30 29.29 28.95 29.36 30.29 28.64 27.04 27.98 28.72 29.41 30.05 31.05 32.26 32.95 31.96 32.82 32.38 28.83 28.52 27.59 32.36 29.60 29.86 30.89 28.79 35.49 36.35 37.59 37.69 35.32 35.89 36.64 38.03 37.70 37.21 38.55
27.39 28.03 29.77 29.43 29.97 29.74 27.78 27.81 27.46 28.72 28.45 28.84 29.14 29.97 31.16 32.08 32.44 33.51 32.99 32.26 29.91 29.31 32.39 31.35 30.30 30.87 30.03 30.64 34.55 36.12 37.12 35.91 37.10 37.12 35.72 36.24 36.01 37.08
27.16 28.75 30.17 27.58 26.78 26.62 26.58 26.59 26.89 27.41 29.06 28.95 28.87 28.71 29.31 30.33 31.53 32.29 33.22 33.52 34.23 32.42 33.17 32.54 30.66 30.15 29.89 29.51 29.24 34.58 35.97 35.75 35.99 34.94 34.19 34.15 33.28 34.12
28.90 28.09 26.72 25.13 24.48 25.21 25.22 25.58 25.82 27.10 27.13 27.57 28.40 29.40 30.26 31.14 32.37 32.37 33.36 33.31 33.62 33.44 33.30 33.60 32.25 31.69 31.37 30.21 29.50 31.32 32.46 33.08 33.68 33.82 35.84 36.06 36.75 36.61
26.57 27.34 24.97 22.93 23.15 23.55 24.90 25.91 26.40 26.25 25.73 26.57 27.95 30.06 31.39 30.58 30.63 31.91 31.01 31.14 30.33 30.52 32.94 33.11 32.82 32.69 31.64 31.43 31.01 30.16 33.02 31.92 34.12 34.59 35.09 35.32 35.45 35.12
25.45 24.22 22.26 21.45 21.96 22.53 23.24 23.73 25.29 25.62 25.44 26.13 27.34 28.62 29.78 30.32 29.93 30.77 30.75 30.58 29.27 28.99 29.80 32.16 32.40 32.88 33.41 32.75 30.32 31.27 31.89 31.95 33.39 34.13 31.34 33.73 35.48 35.46
22.13 19.88 19.25 19.63 19.53 20.25 20.86 21.52 23.05 23.48 24.21 24.57 26.08 27.29 28.27 28.92 28.69 30.12 29.76 29.19 28.74 29.40 29.79 31.22 31.66 31.00 31.20 31.92 32.97 30.74 31.24 31.31 32.13 32.21 31.81 31.16 33.32 34.85
18.77 18.25 17.71 17.71 18.35 19.53 20.02 20.23 20.34 22.46 23.74 23.58 24.18 24.87 26.60 29.05 28.65 28.94 29.38 29.51 28.79 29.66 30.95 32.47 31.64 30.17 27.61 25.83 29.20 28.39 30.06 31.47 31.77 30.18 30.98 30.42 31.63 32.85
17.08 16.77 16.46 16.47 17.19 17.69 18.49 18.96 20.25 21.74 22.58 22.29 22.82 23.42 24.61 26.12 27.19 27.80 28.18 28.53 29.30 29.45 29.29 30.04 30.28 30.27 28.97 28.77 27.82 27.70 27.91 30.72 30.10 30.05 29.15 29.81 29.57 26.59
14.94 15.38 15.91 15.94 15.99 16.74 17.63 18.23 19.54 20.39 20.99 21.75 22.19 22.24 23.13 24.18 24.37 25.26 26.43 25.88 27.02 28.62 27.08 26.94 26.70 26.29 29.22 29.35 26.16 24.82 25.85 28.17 29.04 29.96 28.44 28.34 28.17 28.47
14.15 14.07 14.59 15.12 15.57 16.07 17.25 17.39 18.96 19.91 20.02 21.02 21.44 22.33 22.44 23.35 23.40 23.65 24.68 25.35 25.52 25.70 25.01 26.39 27.09 27.89 27.84 26.63 23.79 22.16 23.04 24.84 25.96 26.07 26.37 26.39 27.96 26.59
13.13 13.43 13.86 14.43 14.79 15.55 15.98 16.76 17.02 18.28 18.43 18.98 20.56 21.42 21.68 21.73 23.21 24.02 24.60 24.63 24.73 24.98 24.89 24.96 24.76 24.43 23.79 24.00 23.55 22.86 22.00 23.24 24.99 25.29 25.58 25.78 25.49 26.22

GFSNE_sfc_wetblb_024.txt.gz
Wetbulb
42.12 41.53 41.22 40.36 40.13 39.88 39.45 38.61 36.07 32.37 35.42 40.53 41.53 45.28 44.86 45.00 44.64 44.95 44.71 43.36 42.85 42.67 42.73 42.87 41.57 41.36 41.93 44.05 44.95 45.24 46.09 47.85 49.78 51.99 51.72 52.70 53.41 54.28
41.60 40.51 40.16 40.47 40.03 39.82 39.25 39.11 37.67 36.18 33.72 38.52 38.99 41.18 42.51 41.91 42.98 43.18 42.97 42.54 41.39 41.82 41.14 41.21 40.91 40.83 42.47 43.18 42.38 42.40 42.97 44.20 46.10 48.67 51.31 51.08 51.51 51.78
40.16 39.19 39.35 40.53 39.92 39.60 39.74 38.93 37.81 37.40 34.28 37.37 39.41 41.01 40.97 41.10 41.43 42.58 42.78 42.70 42.93 40.80 40.18 40.43 40.23 41.22 41.91 41.13 40.80 40.64 41.06 41.27 42.73 44.78 46.87 49.79 49.93 50.73
38.65 38.53 37.72 37.77 37.90 38.57 38.48 37.88 37.79 38.17 36.29 34.41 37.48 38.10 38.97 40.48 40.71 40.55 40.39 41.11 41.71 40.42 40.26 39.93 40.57 40.86 39.95 39.51 38.98 39.23 39.48 39.94 41.33 42.55 43.25 45.76 47.83 48.18
37.62 37.07 36.92 37.02 36.47 36.84 36.71 36.32 36.54 36.34 36.43 34.95 34.67 37.32 37.93 38.81 38.36 39.12 39.21 39.90 40.27 40.05 38.81 38.57 39.15 39.15 38.88 38.41 38.53 38.77 38.89 39.59 39.53 40.19 40.55 41.51 43.80 45.18
36.63 36.40 36.25 35.73 35.39 35.21 34.92 34.58 34.44 34.54 34.76 34.08 34.06 34.49 35.89 37.40 37.58 36.04 35.89 38.48 38.28 39.51 39.17 37.62 37.72 38.25 38.45 38.69 38.75 39.28 39.59 39.23 39.31 39.61 39.74 38.99 39.70 40.62
35.16 34.89 35.08 34.77 32.77 32.65 32.68 33.21 33.66 33.52 33.39 31.34 30.16 31.27 32.31 32.30 32.25 34.20 32.86 34.62 36.57 37.47 37.19 37.15 38.76 39.56 40.48 38.42 38.09 38.38 37.92 38.36 39.25 39.70 40.17 39.53 39.26 39.34
33.23 33.74 34.04 33.52 33.44 32.47 31.75 31.24 30.98 29.29 28.65 28.73 28.92 28.90 30.04 31.69 32.78 32.25 32.59 32.25 30.77 37.24 36.26 36.07 37.72 37.08 38.32 40.20 38.69 38.40 38.61 39.15 39.66 39.59 39.70 39.27 39.15 40.11
33.43 33.02 32.76 33.40 32.52 31.73 31.09 31.03 30.27 29.90 29.24 30.10 28.48 28.94 29.11 31.24 31.79 31.04 31.80 31.60 31.93 34.73 34.79 33.56 36.98 35.39 37.45 37.04 36.87 37.14 37.36 37.87 38.01 38.35 38.48 38.67 38.70 39.12
32.80 32.66 31.90 30.85 30.81 29.90 29.67 29.99 30.38 31.06 31.65 31.88 32.08 32.60 32.73 32.87 32.73 32.56 32.64 32.76 33.64 34.44 34.90 30.83 35.86 34.61 36.95 37.60 36.65 37.19 36.84 36.58 36.57 36.96 38.39 38.70 39.07 38.48
30.12 30.55 31.15 30.63 30.42 30.80 30.41 29.96 30.50 31.63 32.79 32.91 32.80 32.77 32.52 32.27 32.83 33.78 31.54 30.56 30.50 31.80 35.42 32.71 33.93 33.70 35.05 36.33 39.22 36.46 36.43 36.11 35.97 36.99 37.38 38.52 39.05 38.46
29.08 30.23 30.24 30.65 30.02 29.98 30.42 30.60 28.70 28.66 29.95 31.45 31.29 32.36 32.40 32.97 31.98 33.37 33.28 30.33 30.45 30.06 33.92 31.59 32.01 31.77 30.03 36.68 37.26 38.08 39.25 35.73 35.47 36.26 36.90 37.91 38.40 40.43
27.77 29.00 31.10 30.48 28.27 27.99 27.85 28.73 27.41 28.94 28.15 29.12 30.52 31.90 32.88 32.66 33.41 34.58 34.50 33.73 31.21 30.89 34.02 32.89 32.82 32.04 31.53 31.80 35.47 37.17 37.68 38.37 38.71 38.09 35.88 37.25 37.43 38.48
27.38 29.32 30.60 28.02 27.03 26.43 26.70 27.20 26.63 27.13 29.81 30.38 30.78 31.31 31.70 32.15 33.56 34.46 35.00 34.86 35.61 33.88 34.99 34.01 32.73 32.01 31.48 30.95 30.57 35.24 37.08 38.08 37.46 37.64 38.09 37.30 35.93 35.72
29.24 28.11 27.89 26.26 25.89 26.32 26.47 25.46 26.60 28.84 28.07 27.87 28.88 30.03 31.72 33.08 32.93 33.45 34.51 34.97 34.80 35.07 34.67 34.71 35.23 33.32 32.37 31.38 31.18 33.28 33.73 35.94 35.94 36.19 35.68 36.67 36.76 36.94
26.78 28.32 26.86 25.67 26.42 26.60 27.04 27.23 28.46 29.09 28.09 27.85 28.27 30.75 32.91 33.59 31.64 33.31 32.41 33.21 32.31 31.87 35.26 35.47 34.21 32.87 31.55 32.12 32.11 31.94 34.98 33.39 35.69 35.83 36.56 36.23 37.83 37.89
25.40 26.80 25.31 24.46 24.92 25.31 25.45 26.01 27.57 27.50 26.96 28.29 28.91 29.35 30.61 32.49 31.18 31.89 30.68 31.52 30.90 31.06 31.64 33.21 33.85 33.25 33.03 32.54 31.66 32.63 32.96 33.81 35.93 35.96 34.83 34.53 36.46 36.87
24.12 22.63 22.17 21.95 22.72 23.60 23.90 24.46 25.59 25.25 25.98 26.73 27.84 28.29 28.16 30.35 30.82 32.18 31.19 30.12 29.82 31.39 31.84 33.28 32.92 31.97 31.92 32.21 33.25 31.47 33.50 33.74 34.84 35.14 34.44 31.88 33.50 36.89
21.05 20.98 20.49 20.38 21.04 22.22 22.52 23.12 22.97 24.40 25.65 25.67 26.19 26.38 26.80 27.77 28.72 30.16 31.04 31.71 30.71 30.68 31.76 33.93 33.03 31.36 28.63 28.01 30.31 28.55 31.69 33.38 34.72 33.82 32.67 32.09 32.11 34.59
19.55 19.33 18.95 19.69 20.10 20.38 21.34 21.34 22.50 23.85 24.22 24.54 25.05 25.73 25.96 26.31 26.71 27.10 28.09 28.53 29.79 31.09 31.60 31.35 31.39 32.11 30.52 29.89 30.74 28.47 27.96 30.13 33.66 32.95 32.13 33.05 30.87 26.64
18.11 18.34 18.93 19.08 19.47 20.14 20.98 21.37 22.50 22.89 23.39 23.92 24.26 24.64 25.51 25.90 25.99 26.10 26.70 27.22 27.30 28.58 28.28 27.49 27.98 27.76 31.59 32.60 28.99 27.45 27.62 28.54 29.71 32.24 32.65 31.07 30.09 30.93
17.72 17.64 18.35 18.82 19.07 19.45 20.40 21.07 21.84 22.15 22.38 22.76 23.39 24.28 25.08 25.81 25.25 25.54 26.41 26.40 26.74 27.24 27.15 28.31 29.14 29.16 29.29 27.89 27.39 25.75 26.82 27.95 27.62 27.13 27.20 26.71 28.04 28.63
17.16 17.32 17.94 18.35 18.68 18.73 18.92 20.08 20.57 21.28 21.22 21.71 22.51 23.45 24.88 24.59 25.57 26.12 26.41 27.02 26.68 27.08 26.90 27.12 28.28 28.76 27.02 27.22 27.33 26.26 25.15 26.54 28.77 27.92 27.06 26.78 26.60 27.26

GFSNE_sfc_wetblb_027.txt.gz
Wetbulb
42.50 41.78 41.04 41.21 41.06 40.46 39.74 38.76 36.14 32.85 34.32 40.20 40.02 45.15 46.20 46.69 46.76 46.57 46.11 44.79 43.82 43.32 43.55 43.77 43.63 43.46 42.97 42.80 43.01 44.07 45.72 46.10 46.85 48.51 49.90 52.14 52.72 52.85
41.73 41.38 41.26 41.64 41.27 40.97 39.43 38.61 37.94 35.73 32.47 37.91 39.25 42.04 43.25 42.69 44.22 44.33 43.83 44.02 42.62 42.43 42.29 42.57 43.00 42.66 42.17 41.77 41.67 43.65 44.01 43.98 44.12 44.81 46.77 48.29 52.03 52.10
40.21 39.86 39.64 40.71 40.05 40.09 40.42 40.21 39.04 38.08 34.32 37.07 39.07 41.37 41.94 42.32 42.58 44.05 43.94 43.99 43.87 41.31 40.44 41.36 41.43 41.15 41.03 40.81 41.67 43.09 42.21 41.48 41.65 42.08 43.04 45.18 47.35 50.67
39.24 39.05 38.20 38.20 38.00 38.59 38.29 37.49 37.94 38.46 37.04 35.21 37.65 38.32 39.43 41.34 41.59 42.08 41.27 41.83 43.04 41.41 41.27 40.73 40.71 40.45 40.22 40.08 40.93 40.40 39.86 39.85 40.03 40.21 40.36 41.77 43.37 45.20
37.87 37.41 37.19 37.16 36.39 37.03 37.03 36.70 36.96 36.64 36.99 35.76 35.37 38.16 38.83 39.70 39.50 40.46 40.80 41.55 41.06 41.16 39.63 39.82 40.19 40.36 40.40 40.48 40.17 39.46 39.00 38.50 38.39 38.76 39.44 40.26 40.96 41.69
36.97 36.76 36.56 36.10 35.84 36.02 35.74 35.75 35.41 34.99 34.93 34.91 35.23 35.72 36.87 38.43 38.61 37.32 37.32 39.86 39.57 40.07 39.93 38.52 39.23 39.44 39.30 39.05 38.65 38.85 38.80 38.52 38.57 38.67 38.63 38.39 38.63 39.87
35.38 35.89 36.47 36.53 34.38 33.93 32.94 32.65 32.85 32.48 33.13 33.27 33.50 34.22 33.96 33.30 33.46 35.74 35.27 36.54 37.68 38.56 38.40 39.11 39.84 39.70 40.29 39.09 38.95 38.90 38.32 38.59 39.33 39.03 38.10 37.76 38.25 39.17
33.11 34.52 35.77 35.67 35.27 33.98 33.41 32.75 32.04 29.56 28.64 29.06 29.40 29.98 30.59 32.11 32.99 32.45 33.47 32.40 31.05 38.05 35.45 36.14 38.41 37.64 38.70 39.81 38.69 37.79 37.75 38.80 38.36 38.41 38.65 38.66 39.16 39.08
33.02 33.47 33.51 34.58 34.16 34.07 32.55 31.92 31.44 31.32 30.17 29.97 28.14 29.03 29.36 31.50 32.23 31.66 31.93 32.15 31.72 34.78 35.28 33.79 37.85 36.42 39.07 38.07 37.50 37.28 37.54 37.39 38.37 38.46 38.09 37.61 37.52 37.32
32.40 32.29 32.18 32.13 32.35 31.24 30.67 30.56 30.99 31.86 32.46 32.47 31.63 31.94 33.11 34.24 34.27 33.41 33.30 33.08 34.21 35.21 36.22 30.94 36.33 35.25 37.42 38.63 37.78 37.50 37.05 36.80 37.40 37.30 37.22 36.50 36.63 37.24
30.23 31.11 31.08 31.02 31.59 31.80 30.88 30.37 29.72 31.25 33.26 33.68 33.39 33.30 33.04 32.91 33.27 32.88 30.55 29.28 30.33 32.05 35.77 33.18 34.18 34.17 35.44 36.33 38.19 37.21 36.95 36.75 36.51 36.51 36.31 36.47 36.56 37.66
29.37 29.81 29.98 30.40 30.46 30.76 30.56 29.20 27.64 29.01 30.38 30.64 31.42 32.20 32.77 33.47 32.52 33.09 31.86 28.71 28.86 28.84 33.90 31.61 32.82 33.31 30.96 36.59 37.07 37.93 38.23 36.09 35.98 36.44 36.53 36.44 36.96 38.63
27.74 28.16 30.20 30.50 28.89 28.13 27.86 27.92 27.52 29.27 28.42 28.83 29.78 31.27 33.01 34.06 34.40 34.71 34.26 32.60 30.07 29.83 33.33 32.74 32.56 33.26 32.67 32.30 35.65 37.11 37.90 38.42 38.69 38.36 36.10 36.17 36.54 37.47
26.81 29.32 30.40 28.16 28.00 27.40 27.13 27.43 27.93 27.17 28.57 29.64 30.34 30.51 32.34 33.94 34.26 35.33 35.74 35.73 35.87 33.80 35.35 34.48 33.44 32.60 31.74 31.70 30.92 35.27 36.49 37.61 38.07 38.52 37.29 38.07 35.84 36.80
28.66 27.83 27.08 28.34 27.27 27.64 28.53 27.35 26.95 28.14 29.79 28.62 28.89 29.57 31.54 33.73 34.64 34.54 35.21 35.27 36.02 35.73 35.29 35.54 33.98 33.36 33.25 31.54 30.96 32.97 33.58 36.08 37.66 36.91 35.89 35.05 34.88 35.56
26.23 26.58 28.35 27.37 27.67 28.35 29.11 29.20 29.76 30.14 28.80 28.78 29.15 30.47 32.61 33.27 33.77 33.92 32.34 33.35 33.04 32.87 35.21 35.37 34.89 33.54 31.56 32.30 32.12 31.76 33.69 32.25 36.10 36.35 34.80 34.25 35.16 36.57
24.14 27.09 25.83 24.74 24.23 25.86 26.95 27.39 28.57 28.35 28.00 28.33 28.72 29.53 29.90 30.76 32.50 33.97 32.32 31.64 30.62 31.07 31.95 34.22 35.08 34.64 33.60 32.22 30.48 32.25 33.01 33.35 35.14 35.72 34.80 33.87 35.08 35.79
23.75 23.38 22.81 22.38 21.86 23.05 23.96 24.82 26.23 25.92 25.95 27.02 27.73 27.85 27.57 28.48 29.06 31.67 32.95 32.30 30.41 31.02 31.53 33.19 34.04 31.29 31.11 31.47 32.68 31.14 32.52 33.30 34.71 35.34 35.38 33.28 33.31 37.36
21.88 21.77 21.09 20.82 20.92 21.73 22.94 23.20 23.27 25.29 26.31 25.79 26.47 26.73 26.90 27.06 28.14 28.55 30.00 30.77 30.55 32.22 32.50 33.94 34.32 33.03 28.97 27.42 30.46 30.30 31.09 32.60 34.05 33.75 34.72 33.18 31.78 33.95
20.82 20.30 19.74 20.52 20.84 20.24 20.91 21.41 22.56 24.45 24.94 25.05 25.79 26.25 26.56 26.85 27.51 26.71 27.18 27.70 27.95 29.16 30.98 32.60 31.09 28.61 27.59 27.43 28.86 27.69 29.22 29.64 30.95 31.26 33.41 34.18 31.66 28.41
19.50 19.41 20.16 20.09 19.85 20.18 21.33 22.19 23.13 23.42 23.84 24.05 24.94 25.13 26.01 26.74 26.34 26.58 26.95 27.42 28.06 28.19 27.55 27.65 28.76 28.89 30.42 32.90 29.52 27.74 27.75 28.71 29.34 29.61 31.96 32.61 30.23 30.68
19.05 18.77 19.20 19.71 19.70 19.67 20.56 21.54 22.50 22.74 22.49 22.23 23.53 24.91 26.07 26.85 25.91 26.42 26.88 26.69 26.89 27.54 27.93 29.81 30.48 29.94 29.70 28.14 26.90 26.23 27.25 28.33 28.64 28.06 27.51 27.29 27.15 26.12
18.13 18.74 19.26 19.28 19.33 19.32 19.20 19.54 20.01 21.15 21.03 21.51 21.85 23.28 25.42 25.10 25.93 26.57 26.45 26.56 26.33 26.41 26.89 27.39 28.83 29.08 27.39 27.10 27.29 26.50 25.52 27.13 29.03 26.48 26.45 28.06 28.57 28.39

GFSNE_sfc_wetblb_030.txt.gz
Wetbulb
40.15 40.73 40.83 40.62 39.68 39.29 39.18 38.04 34.89 30.86 30.84 35.08 37.78 42.57 44.65 44.84 44.88 45.27 43.89 44.50 43.73 43.56 43.85 44.52 45.08 44.84 44.53 44.41 44.01 43.83 43.87 44.54 46.27 47.20 47.57 49.03 50.64 52.94
39.16 39.13 39.44 39.79 40.07 40.18 39.97 39.21 37.70 34.58 30.72 34.87 36.42 37.97 39.25 41.21 43.16 43.50 42.43 44.79 43.70 42.86 42.19 42.97 43.57 44.11 44.09 44.14 43.36 42.62 42.16 42.27 44.27 44.92 45.24 45.84 47.51 49.27
37.93 37.86 37.60 38.27 37.28 37.09 36.58 37.16 37.20 36.67 33.37 34.83 36.91 37.88 37.57 37.99 39.34 40.46 41.74 40.05 39.46 41.43 41.12 41.77 41.81 41.95 42.35 42.31 41.99 41.97 41.79 41.81 42.97 43.06 43.08 43.75 44.60 46.20
36.54 35.36 35.18 36.96 33.93 34.16 34.41 33.85 33.97 34.44 32.24 30.21 32.57 33.98 35.25 36.95 37.64 37.74 39.37 40.69 38.74 41.24 41.37 40.97 41.20 41.13 40.76 40.58 40.37 40.13 40.47 41.69 41.59 40.90 40.62 40.90 41.52 42.90
33.44 33.49 33.69 33.81 32.32 32.41 33.15 33.45 33.41 34.74 32.99 31.43 30.33 31.85 32.36 33.89 34.35 35.17 35.49 35.74 39.08 41.18 39.77 40.06 40.62 41.15 40.94 40.39 39.96 39.77 40.02 39.92 39.27 39.15 39.10 39.16 39.55 40.10
32.32 32.48 32.84 32.81 32.16 31.90 31.09 30.06 31.35 29.36 29.52 29.12 29.39 30.26 31.09 32.76 33.18 32.16 30.65 33.27 33.89 38.66 39.20 37.90 39.02 40.14 40.81 40.52 39.93 40.11 40.12 39.74 39.19 38.62 37.93 37.59 37.44 38.79
30.40 31.73 32.44 34.20 36.15 33.57 31.80 29.37 28.64 27.53 27.11 27.22 26.96 27.76 28.39 29.07 28.79 29.59 28.33 28.88 30.82 33.32 32.68 33.16 33.56 34.59 36.13 39.35 39.27 39.63 39.41 39.37 38.94 38.65 38.34 37.93 38.01 38.27
27.78 29.37 31.55 33.80 33.57 34.32 34.28 33.80 31.54 27.67 25.92 25.51 25.86 24.80 26.06 27.56 28.65 27.46 27.37 26.71 26.30 31.55 30.20 28.88 32.36 31.79 33.97 34.70 37.87 38.61 37.87 37.37 38.19 38.94 38.39 38.34 38.08 37.26
28.11 28.87 29.73 32.08 31.69 31.08 31.03 31.62 31.56 32.03 29.99 28.00 26.05 26.24 25.70 27.06 27.94 27.27 26.48 27.30 27.75 29.90 30.27 29.18 27.88 30.75 32.63 36.35 38.01 38.17 37.91 37.40 37.62 37.70 38.21 37.98 37.54 37.23
27.39 27.07 27.31 27.79 28.87 29.48 28.72 28.18 29.32 29.98 31.05 31.34 30.45 29.13 29.60 30.41 31.37 32.18 32.16 30.97 30.78 30.71 30.52 27.66 28.33 30.42 29.98 32.08 37.54 38.65 38.16 37.56 37.31 37.27 37.28 37.23 36.90 36.21
26.70 27.38 27.76 27.01 29.60 31.18 29.00 27.11 27.44 28.05 32.37 33.23 33.88 33.91 33.48 33.52 33.16 30.36 27.34 25.83 24.14 25.97 29.55 30.68 28.96 28.88 30.20 31.58 32.12 37.20 37.72 37.25 36.92 36.68 36.69 37.08 37.05 36.24
25.82 27.03 28.80 28.64 30.02 29.52 27.81 26.98 24.85 25.53 26.98 28.47 28.57 29.06 30.55 30.62 31.60 31.20 29.71 27.47 26.06 24.41 27.52 27.65 27.91 27.18 26.14 29.78 32.35 31.15 30.16 35.77 36.55 36.65 36.92 36.81 36.68 34.07
24.62 24.90 26.42 29.01 28.36 28.64 28.32 26.22 25.44 27.37 27.42 27.05 26.64 27.23 28.47 29.46 30.69 31.93 32.28 31.07 28.31 26.51 29.29 29.91 27.52 25.78 27.86 28.25 27.02 29.81 31.74 33.57 33.88 33.45 36.62 36.77 36.76 36.10
23.92 24.97 27.35 27.11 28.48 28.22 27.47 27.98 28.71 27.72 25.88 25.34 26.26 27.86 28.81 30.10 31.82 32.62 33.28 33.97 33.45 31.39 31.53 32.73 31.13 29.87 29.01 27.33 26.08 27.79 29.30 31.03 31.67 28.51 30.68 34.34 36.51 36.32
24.52 25.56 25.90 27.15 28.29 27.65 28.29 29.29 28.57 27.01 26.24 26.93 27.11 28.46 28.70 29.14 30.92 31.72 32.06 32.37 31.34 32.94 34.07 32.30 32.31 31.23 28.76 28.19 27.06 26.00 26.42 27.30 30.99 32.34 28.48 32.25 27.48 32.39
23.83 23.13 24.33 26.72 25.24 26.02 27.29 28.02 27.88 28.26 26.65 27.08 26.84 28.15 29.90 29.51 28.81 32.77 26.90 25.36 25.82 28.87 30.59 30.94 29.96 30.99 29.25 27.40 26.69 26.63 26.80 24.79 29.64 33.71 30.97 28.89 33.19 34.37
22.14 23.68 23.77 22.36 21.94 22.41 23.76 24.45 26.18 26.08 24.98 25.57 26.23 26.52 27.24 27.47 26.84 26.82 30.99 27.91 23.34 23.51 26.04 30.66 29.47 29.41 27.94 27.89 25.90 27.02 27.14 27.04 28.05 29.51 32.41 31.41 32.22 33.33
22.13 21.39 20.33 19.99 19.58 20.55 21.77 21.60 23.14 23.96 24.14 24.60 24.57 25.69 25.16 25.27 25.76 27.05 26.10 26.00 28.48 26.77 26.34 26.99 32.02 28.75 28.62 28.22 31.73 28.29 26.91 26.98 28.91 31.85 32.59 30.89 30.03 32.92
20.14 19.64 18.95 18.93 19.46 20.37 20.28 20.70 20.64 23.00 24.47 23.40 24.63 23.94 24.92 24.92 25.16 25.92 26.71 25.23 22.50 23.03 26.18 31.56 31.20 28.73 27.05 25.56 29.08 30.20 28.11 29.47 29.50 29.21 32.24 32.32 27.73 27.88
19.55 18.77 18.31 18.86 19.32 18.72 18.97 19.51 20.25 21.99 21.63 21.84 22.76 23.32 23.10 24.09 25.62 24.78 25.76 25.32 26.52 25.66 25.81 25.01 22.70 23.51 23.07 22.48 24.73 23.37 29.67 27.79 28.19 25.49 26.41 30.82 27.69 30.23
17.63 18.35 18.65 18.63 18.41 18.49 18.43 18.74 19.33 20.26 20.20 19.91 20.45 21.29 23.03 25.02 23.70 24.97 24.96 24.56 25.41 26.37 25.57 23.36 22.13 24.09 24.86 25.38 27.47 23.32 24.92 28.71 27.47 25.12 25.81 29.30 27.41 26.73
15.82 16.93 17.86 17.97 17.88 17.60 17.51 17.74 17.91 17.92 17.88 18.21 18.13 19.35 21.39 23.50 22.63 24.18 24.06 23.61 24.61 24.42 24.93 25.48 27.34 26.60 25.30 25.89 23.40 19.81 22.44 23.19 27.39 28.27 28.42 27.05 24.65 22.91
12.66 15.74 16.87 16.84 16.91 16.70 17.08 16.37 16.25 15.37 15.26 15.74 15.95 17.03 19.62 20.00 21.78 23.86 21.55 23.19 23.65 19.54 19.93 22.32 23.92 24.89 23.86 24.82 23.34 19.38 17.35 20.89 26.16 23.41 23.59 27.87 28.42 28.26

GFSNE_sfc_wetblb_033.txt.gz
Wetbulb
37.39 37.61 37.34 37.80 39.38 39.55 39.35 37.92 33.97 28.85 28.80 32.80 32.65 37.50 39.31 41.09 42.69 42.57 43.20 44.36 44.07 43.33 43.28 44.62 45.68 45.59 45.02 44.18 44.02 44.32 44.04 44.10 44.36 45.15 46.52 47.62 48.15 49.91
37.15 36.12 35.87 36.87 37.60 38.74 38.55 37.76 37.86 34.84 30.36 32.22 35.09 35.24 37.93 39.29 41.69 41.70 41.48 41.48 42.68 43.18 42.66 43.37 44.01 44.70 44.60 44.67 44.76 44.12 43.41 43.14 42.88 42.90 44.47 45.55 45.93 46.85
36.00 35.19 34.74 35.06 33.79 33.95 34.62 33.90 34.42 35.31 31.90 33.20 35.52 36.87 34.98 35.51 37.75 38.73 40.42 39.79 39.63 42.56 41.81 42.03 42.19 42.72 42.75 42.81 43.01 43.48 43.42 42.85 41.91 41.86 42.73 44.03 44.28 44.73
31.44 30.97 31.98 33.70 30.73 31.18 31.19 30.65 30.67 31.09 29.40 27.64 29.13 30.37 31.40 33.24 33.89 34.54 37.62 39.52 39.11 40.71 41.45 41.48 41.53 41.55 41.28 41.17 41.04 41.27 41.26 41.34 41.51 41.84 41.99 41.96 42.22 42.58
30.96 30.58 30.04 30.06 29.17 29.93 30.52 29.93 29.85 31.73 28.49 26.38 26.36 28.93 29.52 31.07 32.32 32.51 33.08 34.12 37.07 40.45 39.40 39.82 41.02 41.49 41.32 40.83 40.51 40.34 40.21 39.77 39.41 40.18 40.68 40.71 40.52 40.44
29.87 29.27 29.30 29.10 28.89 29.29 30.60 29.33 29.52 27.10 26.46 25.68 25.67 26.39 27.45 29.62 30.27 28.82 28.33 30.39 31.19 35.71 37.13 36.55 37.74 39.17 40.47 40.91 40.44 40.23 40.10 40.01 39.52 39.23 38.77 37.81 37.77 38.69
27.99 28.84 29.15 30.69 33.53 33.57 31.34 29.63 27.67 25.41 24.72 24.42 23.97 24.22 24.27 24.94 25.11 26.75 26.12 26.76 27.95 30.45 30.45 31.50 31.89 32.26 33.69 37.50 39.31 40.34 40.26 40.07 39.98 39.58 39.17 38.43 37.75 37.84
25.72 26.97 27.49 29.93 30.60 31.57 32.43 31.91 30.79 27.59 26.68 25.78 25.63 23.98 24.42 25.24 26.45 24.83 24.59 23.95 23.84 28.51 27.59 26.14 30.16 30.18 32.01 32.89 36.81 38.25 38.87 39.38 39.30 39.47 39.12 38.43 38.29 37.99
24.60 25.45 25.52 28.06 28.22 28.42 29.44 30.37 30.28 31.44 29.92 27.82 25.09 25.23 25.09 26.16 26.81 25.15 24.38 23.99 25.00 26.91 26.38 26.59 24.26 27.14 30.29 34.28 37.32 38.00 38.36 38.35 38.31 37.98 37.55 37.01 37.04 36.81
25.25 25.07 24.84 25.34 26.80 27.38 26.85 26.43 27.36 28.52 29.46 30.18 28.99 28.05 28.49 29.17 29.28 29.36 28.74 30.60 30.22 28.88 29.73 25.20 26.89 28.34 28.25 29.70 35.85 37.78 38.06 38.09 37.93 37.61 37.38 36.80 36.34 36.23
26.61 25.87 25.69 25.36 27.93 29.82 27.59 25.05 25.83 26.93 30.62 31.87 32.74 32.33 32.68 32.75 33.78 31.98 27.99 26.76 25.11 25.41 25.43 26.55 26.69 27.49 25.66 26.78 29.37 35.41 36.68 37.17 37.53 37.57 37.29 37.08 36.87 36.35
24.62 25.16 26.89 26.06 27.85 29.16 26.61 25.94 23.16 23.97 24.58 25.52 26.96 28.22 29.27 29.16 30.66 29.68 27.75 26.01 25.67 25.42 28.37 26.27 25.86 25.27 20.10 24.94 30.20 31.00 30.09 34.79 36.36 37.04 37.45 37.41 37.03 34.87
22.85 23.05 24.38 26.45 27.06 28.04 29.12 26.60 25.31 26.56 27.04 26.83 26.01 25.67 26.64 27.91 28.90 30.36 31.26 29.32 27.51 27.43 29.48 29.16 23.72 24.42 25.28 24.36 25.23 26.47 26.74 28.96 30.68 32.83 36.30 36.91 37.14 36.49
21.52 22.84 24.37 26.39 28.19 28.10 27.38 28.58 29.29 28.39 26.76 25.26 25.02 25.55 26.20 28.42 29.70 30.49 31.44 32.64 32.88 31.98 31.19 31.36 29.67 28.14 27.49 25.47 25.20 26.79 26.32 28.64 27.74 29.34 29.90 33.26 35.66 36.72
22.84 24.43 25.82 26.74 25.89 25.55 27.09 27.09 27.31 27.35 26.85 25.58 25.88 26.20 27.22 29.56 30.61 30.62 32.87 31.24 30.53 31.71 33.20 32.48 31.46 31.47 30.56 28.16 24.71 23.80 25.56 26.69 25.67 25.98 25.58 31.22 32.52 25.47
23.48 23.37 24.25 24.29 23.52 23.84 24.58 24.83 25.47 25.38 24.59 23.61 24.51 26.21 28.16 27.51 24.77 28.30 27.26 29.51 22.63 23.89 29.82 31.01 31.20 30.89 29.80 29.30 28.46 27.30 24.39 25.35 27.62 29.08 32.23 32.84 30.91 30.94
22.77 22.33 21.15 20.41 20.18 21.06 21.84 22.78 23.37 23.72 23.33 23.82 23.89 24.57 25.43 25.67 25.42 26.15 23.49 23.99 24.24 26.80 25.29 26.61 28.39 28.94 30.69 29.01 27.84 28.20 26.76 25.07 27.59 28.01 30.71 31.00 32.28 32.67
20.73 18.58 17.28 17.76 18.26 19.15 19.19 19.80 21.21 21.82 22.91 22.94 23.52 23.54 23.16 23.31 24.41 25.50 23.70 20.29 19.06 22.49 23.67 27.41 30.35 30.08 29.55 29.74 32.41 29.13 28.14 28.07 27.34 29.47 31.37 29.25 30.15 28.41
17.74 17.50 16.27 16.75 17.76 18.43 18.28 18.50 18.58 21.30 22.45 21.73 21.16 21.43 22.58 23.43 24.03 22.02 22.92 22.20 19.75 21.41 26.88 23.94 22.32 20.75 20.29 18.70 26.46 29.46 25.34 28.10 30.08 28.49 30.71 30.89 29.44 31.70
16.86 16.97 16.22 17.09 17.44 17.13 17.22 17.40 17.86 19.04 18.36 18.52 19.01 19.25 19.74 22.49 22.10 21.39 21.29 20.68 22.59 21.76 24.31 23.67 19.96 19.63 18.10 18.47 22.28 21.76 29.18 21.48 22.77 22.67 23.29 29.02 27.59 30.26
12.64 15.66 16.81 16.70 16.30 16.21 15.33 15.59 15.90 15.96 15.19 15.41 15.71 17.32 17.92 20.77 20.31 22.71 21.67 20.66 20.94 22.43 22.13 20.49 24.30 23.02 22.35 21.04 22.08 14.90 15.90 28.41 26.66 21.84 22.54 21.01 26.42 26.48
6.29 11.98 15.68 16.35 15.03 15.14 15.04 14.29 14.01 12.54 12.23 12.86 12.80 13.87 16.03 19.18 18.74 20.77 20.25 20.33 19.60 15.55 18.58 21.86 24.48 26.32 20.69 22.77 19.59 9.95 13.94 23.84 24.80 28.01 28.34 26.85 24.03 22.69
2.90 7.71 10.62 12.17 12.90 14.07 15.32 13.54 12.48 9.65 10.18 10.47 11.07 11.76 12.82 15.27 16.77 18.41 19.51 19.35 19.37 16.78 18.93 20.52 22.21 22.81 21.64 23.36 21.58 14.40 14.01 14.09 20.35 18.92 18.52 27.70 28.35 28.35

GFSNE_sfc_wetblb_036.txt.gz
Wetbulb
35.57 35.43 35.07 35.56 36.11 35.91 35.78 37.17 35.00 29.30 29.08 30.80 31.17 35.18 36.00 37.85 40.33 40.30 42.25 41.64 41.54 41.77 42.92 43.13 43.45 44.79 46.46 45.63 44.96 45.21 45.10 44.59 43.90 43.34 43.56 45.36 46.57 47.45
37.58 36.53 34.84 34.69 34.62 35.37 36.64 35.36 36.04 33.49 29.96 31.46 32.28 33.75 35.58 37.93 38.91 40.12 40.83 41.12 40.56 41.04 40.53 42.68 43.25 43.90 43.91 44.10 44.25 44.26 44.27 43.79 43.45 43.02 42.58 42.61 44.75 45.51
31.23 30.85 31.08 32.33 30.59 30.35 30.78 30.84 30.14 30.91 28.92 29.56 32.61 34.22 32.63 31.36 33.50 35.36 38.95 39.83 40.05 40.11 40.39 40.76 42.42 42.99 43.09 43.39 43.72 44.37 44.52 44.29 43.30 42.24 41.82 42.12 43.36 44.24
29.52 29.97 30.22 31.13 28.25 28.56 28.48 27.88 28.80 29.69 28.04 25.67 27.14 28.35 28.50 29.73 30.24 30.50 34.15 36.43 36.95 40.03 40.46 40.54 40.70 41.41 41.53 41.43 41.45 41.74 42.32 42.66 42.56 42.63 41.92 41.42 41.61 42.11
28.74 28.93 28.41 28.07 26.69 27.12 27.24 27.77 28.58 30.61 27.88 26.04 24.88 26.85 27.53 28.61 28.62 30.36 30.97 31.44 34.86 37.95 37.80 38.03 39.83 40.77 41.34 41.09 40.82 40.82 40.72 40.38 40.18 40.44 40.51 41.15 41.79 41.13
28.12 27.63 27.09 26.94 26.42 26.81 28.19 27.64 28.41 26.43 25.98 24.80 24.50 25.17 26.04 27.19 26.83 26.15 25.94 28.10 28.57 33.36 35.59 35.76 36.75 37.82 38.50 39.40 40.15 40.47 40.32 40.29 39.70 39.21 38.75 38.37 38.57 39.70
26.82 26.72 27.18 28.38 30.02 29.80 28.94 28.23 27.75 26.20 25.98 25.66 24.90 24.06 23.53 23.01 23.00 24.29 24.34 25.10 26.03 28.29 28.95 29.87 30.34 31.36 32.39 35.43 37.53 39.59 40.21 39.94 39.88 39.43 39.03 38.21 37.70 38.12
24.50 25.26 25.96 27.54 26.67 28.95 29.43 30.19 30.02 27.14 25.88 25.12 25.28 24.42 24.06 23.44 24.21 23.88 23.21 21.88 20.37 26.94 26.44 25.28 28.69 28.36 30.48 32.34 35.98 37.23 38.11 39.03 39.34 39.35 39.18 38.62 38.37 37.83
24.29 24.60 25.54 27.26 26.96 26.27 27.73 28.61 28.75 29.61 28.67 28.06 26.76 25.59 24.69 24.85 24.90 23.50 23.02 22.87 22.91 26.15 25.62 24.61 22.98 24.96 28.58 32.16 36.03 37.20 37.65 37.93 38.21 38.27 38.13 37.77 37.26 36.83
25.69 25.39 24.63 24.02 24.94 25.91 25.76 26.58 26.30 26.76 27.57 28.14 27.51 27.21 27.36 27.72 27.28 27.62 27.04 24.82 27.26 30.18 27.23 23.88 22.87 24.71 25.32 28.36 34.58 36.17 36.86 37.70 37.87 37.93 37.74 37.32 36.65 36.21
25.78 25.44 24.62 23.76 26.18 27.85 26.73 25.24 25.10 25.46 28.51 29.32 29.79 30.42 31.31 32.16 31.23 29.67 28.01 27.08 25.46 25.67 24.10 24.78 24.61 22.39 23.24 26.43 27.76 33.93 35.96 36.69 37.20 37.34 37.51 37.54 37.08 36.31
23.38 23.72 25.05 24.39 26.09 26.94 25.40 24.51 23.23 24.24 24.28 24.41 24.71 26.38 27.98 27.56 29.15 27.63 26.33 23.41 23.57 22.97 25.99 24.75 23.15 23.29 20.30 23.63 28.11 28.97 29.12 34.15 35.61 36.43 36.93 37.37 37.43 34.76
21.55 21.20 22.71 25.21 27.35 27.79 27.40 25.91 25.98 27.14 26.99 26.60 26.55 26.02 26.09 26.71 27.61 29.19 29.39 28.37 26.53 25.70 28.55 28.33 23.15 22.65 25.96 22.34 22.34 23.87 24.23 24.59 26.65 28.99 35.63 36.87 37.20 36.65
20.40 21.77 23.44 26.97 25.88 25.84 26.16 27.37 27.74 26.65 26.51 26.29 25.35 25.33 25.81 27.09 28.77 29.99 31.39 31.87 32.04 30.24 30.37 31.19 27.76 24.89 22.21 21.67 22.04 23.41 22.52 24.51 22.87 24.81 25.85 31.71 34.65 35.95
22.20 24.48 25.34 24.52 24.37 24.07 25.26 25.60 25.07 24.61 24.15 22.95 23.99 25.44 27.16 28.85 29.46 29.57 31.19 31.06 31.03 31.69 32.31 32.12 31.26 30.69 29.16 26.61 27.39 26.92 24.39 22.77 20.39 20.90 20.44 24.08 28.62 29.33
22.27 22.38 22.63 22.83 22.03 22.66 22.68 23.47 23.79 23.46 23.52 22.92 23.43 25.04 26.87 26.81 25.81 27.25 25.70 24.13 25.14 26.08 27.81 30.23 31.71 31.19 29.14 28.84 28.31 27.25 28.30 25.81 20.80 27.81 28.52 22.88 29.96 31.86
16.62 15.95 18.94 18.52 18.69 19.71 19.84 20.91 22.24 22.42 21.77 22.44 22.44 23.34 23.96 24.87 25.58 24.57 21.85 21.74 21.83 22.74 24.64 25.78 26.47 30.57 31.15 31.08 27.16 27.56 26.84 27.52 24.09 25.60 25.04 29.92 30.84 32.11
15.14 11.37 14.57 15.73 16.20 17.45 17.14 18.02 19.12 19.93 20.25 20.88 20.58 20.65 21.03 22.39 23.59 22.26 20.94 17.90 17.08 20.02 23.41 26.61 27.29 28.92 29.28 28.81 31.61 28.80 29.02 28.01 23.41 24.36 28.06 29.69 29.76 31.77
10.08 10.65 12.06 14.23 15.53 16.26 16.09 16.61 16.52 17.85 18.86 18.17 18.22 18.41 19.15 20.15 21.88 19.78 20.51 21.03 18.23 20.25 24.69 21.00 18.98 17.56 15.58 13.95 26.00 28.62 23.91 21.86 27.16 28.00 26.92 29.32 28.13 30.41
11.00 8.26 12.37 14.81 15.39 15.53 15.40 15.06 15.31 14.87 14.00 14.56 15.17 15.78 16.53 18.56 19.18 20.36 20.13 18.35 17.41 20.48 22.58 21.33 19.45 19.45 17.77 15.97 19.52 20.79 28.38 17.38 20.44 17.59 23.07 25.77 25.19 29.96
9.55 9.80 8.62 14.61 14.03 14.57 13.35 12.91 10.90 10.50 10.19 9.66 11.86 12.89 13.86 16.68 17.13 18.63 17.70 17.63 15.22 19.27 17.82 17.21 19.11 21.59 21.68 17.32 16.99 15.45 13.43 26.68 26.38 23.40 21.50 21.61 23.51 25.48
3.91 7.79 8.73 10.75 10.58 11.74 12.37 10.70 10.79 9.07 8.82 8.87 8.59 9.00 10.53 14.16 15.30 16.55 17.17 14.05 15.72 13.95 15.59 19.32 22.86 24.13 20.75 22.78 17.82 12.91 18.22 23.61 25.17 26.62 27.20 26.29 22.87 20.78
0.68 4.56 3.01 3.05 7.87 9.05 12.30 10.24 9.42 5.82 8.09 7.75 8.22 8.94 8.66 10.71 13.38 13.33 13.31 12.67 13.88 12.73 15.70 17.33 19.76 22.28 21.98 22.65 22.07 12.59 11.73 11.29 15.57 17.61 14.20 26.66 28.04 28.45

GFSNE_sfc_wetblb_039.txt.gz
Wetbulb
34.72 35.83 36.42 35.64 35.88 34.80 34.76 35.76 32.64 27.21 27.98 31.07 30.00 33.89 34.91 35.45 37.44 37.12 38.44 41.65 40.82 40.84 41.08 41.23 43.57 43.33 44.36 46.13 45.64 45.98 46.76 46.23 45.24 44.53 44.35 45.33 46.12 46.74
34.81 33.33 31.96 31.84 31.84 31.06 31.46 31.74 30.93 29.10 25.32 29.86 30.65 32.17 33.97 36.35 35.43 33.42 36.62 41.21 41.45 40.84 39.28 39.44 40.96 42.96 43.38 42.62 42.52 43.12 44.23 44.84 44.24 43.59 42.72 42.57 43.31 44.85
28.90 28.86 29.34 30.30 29.64 30.22 28.98 29.09 28.38 28.39 25.74 27.44 30.39 31.87 31.14 28.91 30.56 31.53 33.29 33.83 37.63 40.63 40.20 39.59 38.97 40.05 42.05 42.59 42.10 41.75 41.30 42.20 44.29 43.60 43.14 42.83 42.68 43.73
27.65 27.80 28.47 30.06 27.04 27.02 26.64 26.11 26.53 26.99 26.35 25.29 26.64 26.98 26.99 28.17 28.63 28.54 32.25 34.72 32.29 37.69 38.79 40.75 40.13 39.99 40.32 41.18 41.15 41.28 42.25 42.38 42.91 43.21 42.43 42.25 41.94 42.40
27.47 26.93 26.38 26.08 24.96 25.21 25.61 25.88 26.67 29.04 27.13 26.34 26.01 26.30 26.40 27.03 27.00 27.52 28.28 28.55 32.34 34.81 35.86 36.84 37.53 39.77 40.65 40.33 40.43 40.63 40.85 40.96 41.07 41.47 41.44 41.48 41.70 41.73
27.51 26.98 26.01 25.73 25.27 25.12 25.74 26.89 28.12 27.94 26.77 26.37 25.69 25.70 26.46 27.03 26.05 24.91 24.10 26.41 26.55 31.02 32.79 34.29 35.99 36.58 37.94 38.77 40.33 40.48 40.45 40.60 40.25 39.71 39.09 38.58 38.95 40.30
26.81 26.72 26.36 27.76 30.15 28.22 26.27 24.92 24.91 26.30 25.74 24.89 24.69 25.09 24.23 23.32 23.05 23.90 23.31 23.58 24.83 26.74 26.97 28.02 30.10 31.89 31.94 34.46 35.90 38.62 40.31 40.19 40.11 39.76 39.20 38.22 37.78 38.61
25.14 25.70 25.94 27.99 26.92 28.43 27.87 28.24 27.44 24.97 24.19 23.97 23.89 23.43 23.82 23.52 23.60 23.06 22.48 21.30 20.04 25.56 24.73 23.63 27.38 27.77 29.92 30.90 34.54 36.52 37.48 38.24 39.41 39.52 39.29 38.71 38.17 37.78
24.84 25.06 25.38 26.41 26.11 25.08 26.16 27.30 27.36 28.37 27.54 25.98 24.45 24.57 24.45 24.90 24.34 22.96 22.20 22.25 23.00 24.97 24.36 24.69 22.22 23.95 28.42 31.00 34.42 36.21 37.06 37.41 37.70 38.00 38.30 38.06 37.60 36.96
24.56 24.58 24.12 23.54 24.17 24.87 25.02 25.50 25.87 27.05 27.13 27.13 26.81 26.80 27.82 27.91 26.66 26.63 26.23 25.37 25.66 25.92 28.57 25.39 22.96 23.72 25.77 26.13 32.18 33.81 35.65 36.89 37.22 37.47 37.59 37.19 36.78 36.55
23.93 24.07 23.47 22.48 24.77 27.07 25.27 23.99 24.29 24.94 28.30 29.63 29.69 29.54 29.58 29.85 30.78 29.22 26.81 25.43 22.76 23.31 24.12 23.83 24.12 21.21 21.64 24.90 27.10 32.41 33.70 35.73 36.36 37.04 37.30 37.34 36.97 36.58
22.20 22.79 24.03 24.16 25.85 27.99 25.57 24.19 22.43 24.21 25.47 25.53 25.68 26.47 27.46 27.25 28.58 26.82 23.95 23.26 23.11 19.21 24.94 23.77 23.31 23.29 18.93 21.18 22.74 24.35 24.93 33.66 35.69 36.28 36.94 37.13 37.19 34.19
21.41 21.41 22.74 25.27 26.06 26.23 26.27 25.15 25.31 26.20 26.00 26.68 26.85 26.86 27.13 26.78 26.24 26.69 26.90 25.52 23.73 23.41 27.08 26.09 22.18 21.63 23.86 21.64 21.24 22.57 24.20 23.68 24.82 27.70 34.83 35.97 36.76 36.02
21.18 22.12 23.25 24.97 25.07 24.83 24.70 25.69 25.93 24.61 24.51 24.18 24.84 25.96 26.33 27.45 28.72 29.21 29.35 29.90 30.03 29.02 30.07 29.64 26.44 24.36 25.11 20.90 23.95 23.09 22.46 20.38 20.97 20.92 21.78 29.06 33.45 35.69
22.75 23.04 23.80 23.33 23.18 22.99 23.66 24.31 23.88 22.93 22.58 21.14 21.94 23.50 25.47 27.43 28.66 28.92 30.38 31.20 31.34 31.75 32.06 31.87 30.83 29.98 28.82 27.25 26.87 26.85 27.51 25.98 19.85 18.68 18.78 20.26 22.52 29.54
19.53 18.58 18.26 21.30 20.43 21.12 21.06 21.77 22.06 22.04 21.69 21.13 21.45 23.54 25.75 26.16 26.25 27.79 26.71 26.57 24.92 24.82 29.40 28.40 30.86 31.35 29.25 29.36 29.06 27.70 28.32 26.40 21.04 19.73 27.36 21.00 27.32 28.13
11.85 10.57 13.19 15.36 16.71 17.95 18.18 19.28 20.02 20.24 18.82 19.64 19.98 20.24 21.22 23.31 24.52 25.99 24.27 22.33 20.65 21.94 23.67 25.17 28.50 30.98 31.27 30.80 28.35 27.56 25.45 26.06 24.48 23.56 23.59 20.77 23.28 27.47
12.42 6.67 3.05 4.31 12.08 15.38 15.10 15.86 17.12 16.48 16.55 17.88 17.92 18.36 18.58 19.16 21.94 23.06 22.48 19.34 17.84 21.19 22.63 23.73 21.98 26.46 28.82 27.42 30.79 28.79 27.99 28.14 27.03 25.17 23.60 26.86 27.65 26.25
7.19 4.79 0.70 4.50 7.41 14.70 14.55 14.66 13.64 13.74 14.94 14.59 15.20 15.09 16.51 17.84 19.67 20.72 20.12 19.14 19.14 22.16 22.84 24.56 22.22 17.12 14.35 11.37 21.20 28.10 23.81 21.90 18.61 17.60 25.59 28.20 28.01 26.87
9.15 5.14 2.87 5.59 7.74 13.63 14.13 13.25 12.80 10.91 10.23 10.42 11.78 12.00 12.89 15.24 16.75 18.01 18.11 15.05 15.31 18.28 19.61 20.81 20.05 23.04 22.50 18.22 19.62 17.13 27.30 23.65 22.58 20.72 17.33 18.30 22.87 29.32
8.23 8.25 4.04 5.96 6.97 9.97 9.49 9.38 6.80 7.25 7.82 6.21 8.49 8.99 9.07 12.21 14.41 15.68 16.19 12.25 12.34 17.45 15.91 15.07 16.71 21.58 21.91 18.90 14.05 14.40 17.58 25.93 25.83 23.77 23.61 20.65 21.33 25.75
3.30 6.81 7.31 6.38 2.45 3.71 3.05 3.73 7.56 5.33 6.62 7.06 6.55 6.66 7.34 9.51 12.34 12.85 14.05 13.22 13.12 13.29 14.72 17.83 20.49 21.93 18.31 19.91 16.84 13.60 20.81 22.86 25.01 25.12 26.19 26.33 18.78 16.60
2.00 4.63 1.84 -0.24 0.64 0.46 5.83 3.29 4.54 0.62 5.51 6.66 6.22 7.15 5.96 6.94 10.88 10.88 10.61 11.67 12.54 11.94 12.73 14.66 17.64 19.61 18.31 19.50 19.18 15.37 10.46 14.10 16.33 15.95 13.39 24.68 27.59 28.25

GFSNE_sfc_wetblb_042.txt.gz
Wetbulb
33.91 33.64 33.72 34.49 36.10 35.04 34.09 34.20 30.58 25.10 25.28 28.39 29.69 34.50 35.58 36.52 37.35 37.18 36.36 38.51 41.75 41.61 40.88 40.48 41.42 42.28 44.05 45.60 46.06 45.95 48.93 49.50 48.40 48.01 48.64 49.22 49.37 50.24
32.42 29.48 29.19 29.86 29.57 30.27 29.74 31.57 31.45 29.61 25.22 28.24 29.52 31.89 34.23 35.79 36.69 35.22 34.27 37.51 37.82 40.55 41.03 39.53 39.55 40.46 41.12 43.04 43.53 43.21 43.58 44.66 45.52 45.18 44.62 45.68 46.93 47.39
28.76 28.53 28.84 29.76 29.18 28.71 28.72 27.89 27.13 27.40 24.43 26.65 28.98 31.25 31.35 32.39 32.44 32.20 33.85 34.15 34.92 36.58 39.03 40.10 40.13 39.22 39.04 40.35 41.94 41.25 40.98 41.72 42.48 43.35 43.70 43.75 44.19 45.87
28.17 27.58 27.37 28.98 25.69 25.85 25.90 25.70 26.01 26.40 25.46 24.68 27.82 28.58 28.86 29.91 29.90 29.96 31.65 33.23 32.98 33.97 36.80 37.20 39.03 40.06 39.15 38.70 40.05 41.18 41.20 40.68 40.84 41.10 41.48 42.68 43.04 44.20
27.29 26.96 26.57 26.00 24.77 25.11 25.26 25.23 25.85 27.49 28.34 28.00 27.37 28.03 27.76 28.54 28.73 29.29 29.10 29.83 31.40 33.58 33.78 34.96 36.53 37.28 40.09 39.80 39.74 40.26 40.01 40.80 40.14 40.26 40.72 40.88 42.10 43.18
27.51 27.18 26.54 25.97 25.13 24.94 25.62 24.74 25.92 25.54 25.46 25.28 25.87 26.20 27.15 28.65 28.04 26.91 26.44 27.98 28.12 30.57 31.97 32.46 33.30 35.12 36.96 38.39 39.95 40.31 40.16 40.25 40.23 40.24 39.82 39.21 39.14 40.62
27.13 27.38 27.48 28.28 30.66 29.40 27.56 25.97 24.25 23.85 24.41 24.41 23.81 24.34 24.83 25.39 24.79 26.73 25.21 25.58 26.25 28.04 28.48 28.90 29.58 31.50 33.42 34.54 35.61 37.76 40.05 40.25 40.36 40.09 39.71 39.42 38.91 38.99
26.24 26.61 26.29 27.51 26.64 28.17 27.56 27.32 26.32 24.11 23.94 23.60 23.53 23.33 23.97 24.89 25.90 25.41 24.49 23.59 22.95 27.80 26.65 27.14 29.97 29.23 30.72 32.13 33.57 35.52 37.11 37.89 39.77 39.93 39.66 38.94 38.37 38.24
23.77 23.70 24.04 25.39 25.23 24.61 25.36 26.32 26.42 27.19 26.68 26.34 25.20 24.79 24.90 26.17 26.50 25.18 24.20 24.43 24.33 26.67 26.63 25.82 27.51 28.28 30.48 31.57 33.84 34.93 36.32 36.88 37.46 38.04 38.83 38.29 37.68 36.96
23.25 22.97 22.95 22.99 23.72 24.30 24.79 24.89 25.29 25.89 26.54 26.51 25.78 26.08 27.08 27.87 28.13 27.89 27.05 25.69 26.81 27.68 27.91 24.11 28.85 27.54 29.87 29.74 31.80 33.35 34.12 35.41 36.63 37.02 37.12 37.32 37.11 37.01
23.24 23.54 23.47 22.90 24.80 27.25 26.58 24.52 24.28 25.05 28.07 29.42 30.12 30.19 30.10 30.06 29.68 27.94 26.18 25.54 23.11 25.13 27.24 26.94 26.60 26.03 26.74 28.52 29.73 31.76 33.30 34.46 35.59 36.54 36.74 36.88 37.05 36.49
22.57 23.33 24.20 24.32 25.72 26.23 24.36 23.71 21.93 24.34 25.11 25.86 27.25 28.10 28.70 28.33 28.83 27.69 26.28 23.80 24.26 22.81 25.66 25.46 25.57 25.93 24.23 26.70 27.55 29.46 29.93 32.43 34.54 35.78 36.36 37.02 36.97 37.24
21.61 21.87 23.19 24.76 25.28 25.65 25.51 23.73 23.96 25.35 24.39 24.84 25.57 27.16 28.44 28.40 28.05 27.93 27.09 25.24 23.49 23.21 27.54 27.57 25.15 24.98 26.62 26.30 27.05 28.60 28.34 29.20 31.16 33.73 35.39 36.36 36.72 36.89
20.92 22.08 22.28 24.26 24.09 24.13 23.50 24.73 24.77 23.60 23.24 23.18 22.79 23.68 24.76 26.20 28.00 29.48 29.59 28.29 28.33 27.00 29.26 29.71 27.90 26.62 26.45 25.07 25.23 27.95 28.69 28.01 27.78 29.28 29.85 29.94 32.72 35.93
21.78 21.27 22.11 22.06 21.80 21.89 22.14 22.79 22.12 21.26 20.85 20.18 20.35 21.43 23.47 25.95 27.75 28.21 29.61 31.52 30.74 30.26 30.39 31.46 29.89 29.26 28.76 27.43 27.43 27.65 28.88 29.55 26.92 27.78 27.42 28.58 30.51 31.51
18.27 17.18 16.16 19.55 17.01 18.98 19.60 20.08 20.63 19.97 19.13 18.74 19.54 20.86 22.89 23.83 24.85 27.30 26.79 27.57 26.89 28.48 30.73 31.36 31.99 31.46 29.89 29.36 29.46 28.65 29.40 27.71 28.15 28.79 28.50 27.65 29.35 30.59
10.41 9.74 12.12 11.94 13.68 15.90 16.70 17.22 18.02 17.30 15.97 17.15 18.03 18.42 19.42 21.10 22.92 25.59 25.60 24.67 23.65 24.42 26.96 28.62 30.40 31.30 32.51 31.18 28.67 29.06 29.28 28.98 30.12 29.60 27.68 27.00 28.58 30.75
11.82 5.54 0.50 -0.22 5.90 12.69 14.12 14.36 15.10 13.39 13.88 14.83 16.03 16.15 16.40 17.74 20.06 22.69 23.01 22.06 21.95 23.98 24.76 25.64 24.84 27.92 29.45 28.01 30.29 29.14 29.07 28.83 28.32 28.29 28.10 26.91 27.82 30.87
7.54 5.02 -2.40 -2.58 2.31 11.11 13.56 13.54 12.63 12.08 12.82 12.16 12.88 13.20 14.05 16.05 18.20 19.49 19.67 19.98 20.16 21.64 22.67 24.47 25.32 22.85 19.65 18.88 22.29 28.60 26.16 25.22 22.76 22.89 24.67 27.99 28.07 29.65
9.62 6.09 2.44 2.49 6.46 10.84 12.29 11.88 11.63 10.05 9.32 9.64 10.07 9.64 10.39 13.23 15.40 16.50 16.93 15.14 16.67 19.06 19.77 21.46 21.77 22.69 22.29 21.44 22.93 23.57 27.11 24.93 23.59 22.39 22.59 23.92 24.94 26.70
8.86 9.45 5.69 6.52 7.56 8.05 2.47 2.67 3.11 7.39 7.21 6.12 7.12 7.95 7.13 10.14 12.82 14.26 15.05 13.45 12.53 16.07 15.93 17.15 19.22 21.25 22.90 23.30 20.93 21.34 23.24 25.87 25.93 24.68 24.26 23.02 22.40 25.11
6.06 8.59 9.38 8.05 4.87 4.44 -0.77 -3.85 0.80 3.38 6.88 7.37 6.86 6.55 6.56 7.87 10.80 11.46 12.18 12.01 13.54 14.22 14.75 17.68 21.31 23.15 23.09 22.94 21.67 19.16 22.48 23.66 25.41 25.18 26.24 26.28 23.97 20.72
5.75 7.21 5.66 2.85 2.66 1.47 6.45 1.68 0.89 -3.14 3.94 6.30 6.70 7.92 6.37 6.91 9.83 10.33 11.18 12.26 12.56 12.58 13.40 15.36 17.42 19.71 21.11 21.01 21.24 20.51 18.69 21.66 22.60 22.81 23.37 24.01 27.01 27.54

GFSNE_sfc_wetblb_045.txt.gz
Wetbulb
41.66 41.09 40.37 40.52 39.82 38.17 38.22 36.28 32.63 29.07 30.47 35.13 35.12 38.85 38.93 39.31 39.31 40.60 40.42 40.36 39.18 39.40 40.44 41.61 41.52 41.26 41.57 43.69 44.60 46.58 46.88 53.14 53.09 53.28 53.76 54.25 54.87 55.60
39.60 37.18 36.83 37.00 36.55 36.85 36.11 35.45 34.61 31.88 29.04 33.45 34.26 35.73 36.71 36.70 37.59 38.11 38.62 39.17 38.54 38.23 38.30 39.35 40.52 41.28 40.56 41.48 42.78 43.31 44.57 45.49 46.89 49.44 50.67 50.48 51.10 52.02
36.70 35.38 35.13 35.60 34.66 34.38 33.97 33.22 31.98 31.58 28.16 30.81 33.52 34.97 34.85 35.12 36.13 37.70 38.65 38.87 39.18 37.34 36.90 36.81 37.94 39.55 40.31 39.69 40.93 41.70 41.88 42.45 43.38 43.89 44.73 46.04 47.24 47.99
34.42 34.37 33.86 33.52 33.02 32.88 32.21 31.25 30.84 31.25 29.06 27.04 30.68 31.79 32.98 34.36 34.88 35.29 36.09 37.46 37.77 37.07 35.48 35.56 35.80 36.38 38.65 39.28 39.79 39.95 40.86 40.44 41.35 41.45 41.70 42.29 43.12 44.30
33.53 32.85 32.59 32.35 31.54 31.82 31.33 30.61 30.71 30.57 30.10 27.62 28.00 30.75 30.92 31.63 31.70 33.57 34.82 35.95 36.50 35.74 35.07 34.99 34.73 35.47 35.79 37.83 39.62 39.44 39.55 40.39 40.34 40.46 40.43 40.23 40.40 41.14
33.16 32.85 32.46 31.79 31.24 30.80 29.92 29.31 29.15 27.79 27.61 26.79 27.23 27.86 28.89 30.83 30.29 29.11 29.42 32.93 33.78 35.44 34.63 34.07 33.92 34.39 34.72 35.94 38.06 39.95 39.90 40.23 40.56 39.95 39.36 38.91 38.93 39.76
32.65 31.89 31.63 30.96 29.85 29.30 28.77 28.37 28.20 26.40 25.66 25.14 24.93 25.87 26.07 26.82 26.36 28.70 27.68 29.17 31.85 33.97 33.41 34.48 35.03 35.81 36.35 35.26 36.49 37.04 40.08 40.16 40.02 39.78 39.81 39.50 38.61 39.37
28.72 28.95 28.99 27.90 28.01 27.17 26.65 26.86 26.95 24.89 24.34 24.65 24.93 24.64 25.68 26.46 27.45 27.04 26.93 26.41 25.74 33.26 32.22 32.21 35.34 34.23 35.63 36.97 36.08 34.55 35.61 37.67 40.19 39.90 39.73 39.34 39.13 38.47
27.55 27.05 26.89 27.24 26.88 26.96 26.46 26.62 27.26 27.68 27.31 27.79 26.16 26.45 25.72 27.52 27.87 27.73 27.45 27.10 26.77 29.93 30.81 28.96 33.54 32.63 35.48 35.31 33.80 34.39 35.06 35.89 36.82 38.15 39.26 38.82 38.37 37.67
27.26 26.98 26.39 26.32 26.65 25.57 26.78 27.95 26.98 27.79 28.13 28.02 28.93 29.28 29.59 29.89 29.46 29.04 28.86 28.92 29.39 30.34 30.79 24.77 31.98 31.90 35.06 35.91 33.77 33.58 33.80 34.49 35.72 36.66 37.42 38.04 37.48 37.13
26.91 27.09 26.46 25.80 25.61 26.78 26.35 25.23 25.14 25.94 28.27 28.51 28.68 29.23 30.18 30.53 31.35 30.52 28.63 26.68 25.82 27.74 31.03 28.27 29.67 31.31 33.08 34.07 35.98 33.23 33.14 33.97 34.99 35.71 36.54 37.06 37.21 37.10
26.92 26.62 25.24 25.05 25.10 25.71 25.53 25.04 22.86 24.44 25.28 26.01 27.31 28.53 29.62 31.19 29.98 30.53 29.61 26.25 25.84 26.65 31.10 27.96 29.69 30.10 29.07 34.81 35.58 36.71 36.63 33.07 33.73 34.88 35.99 36.92 36.82 38.59
25.19 24.90 25.50 24.06 24.80 24.63 24.66 24.64 24.29 24.82 24.57 25.15 25.79 27.02 28.14 29.32 30.58 31.78 31.60 29.83 26.69 26.94 30.84 30.24 29.51 30.22 29.94 31.23 34.39 36.02 37.07 36.20 36.46 36.02 35.01 36.28 36.84 37.01
24.25 24.79 24.46 23.41 23.10 22.90 23.21 23.31 23.44 23.50 23.94 23.64 23.69 24.41 25.20 26.40 28.39 29.63 30.95 32.57 31.77 30.14 31.58 30.89 29.45 29.47 29.87 29.85 29.78 33.66 35.44 36.89 36.42 35.39 36.35 35.66 34.97 36.40
25.37 23.42 21.92 21.55 21.33 22.15 21.37 21.45 21.89 22.34 21.39 21.40 21.51 22.90 24.40 26.32 27.93 29.51 31.45 33.08 33.08 31.64 31.47 32.10 30.98 31.38 31.40 30.11 29.99 31.40 31.52 33.69 35.75 35.49 34.88 35.92 36.22 36.94
23.22 22.80 20.27 20.15 19.44 20.19 21.47 21.72 21.80 20.22 19.16 20.03 20.98 22.73 24.66 25.65 26.54 28.80 28.93 30.05 30.09 31.42 33.30 32.67 32.57 32.61 31.22 31.90 31.59 31.56 32.28 30.33 33.52 34.33 34.66 33.62 34.33 34.71
21.25 21.48 20.43 19.56 19.21 19.69 20.52 19.84 19.83 18.25 17.81 19.51 20.37 21.09 22.06 23.22 24.96 27.10 27.23 28.10 27.90 28.15 29.80 31.66 32.25 33.72 33.50 33.27 31.52 31.88 32.13 32.59 34.40 33.59 33.30 32.59 34.42 36.18
21.46 19.78 18.21 17.63 17.51 17.61 18.20 18.10 18.46 16.06 16.73 18.17 18.93 19.79 20.01 21.40 22.62 25.00 25.73 25.81 25.63 26.54 27.62 29.15 30.50 32.18 31.31 30.59 31.14 31.61 32.50 32.20 31.64 31.83 30.23 28.37 29.45 33.80
21.08 20.36 18.89 17.67 17.38 17.53 17.59 17.74 16.55 16.37 15.31 16.92 17.55 17.52 18.68 20.49 21.69 22.41 23.42 23.95 24.17 25.34 26.56 28.14 28.23 28.02 26.77 26.29 29.77 29.13 30.33 30.30 29.56 30.14 30.06 29.09 29.10 31.11
21.31 20.50 19.63 19.18 17.94 17.70 17.26 16.88 16.31 16.13 15.12 14.83 16.10 16.76 16.74 18.50 19.80 20.25 21.11 20.78 21.85 22.98 24.29 26.38 27.10 26.40 25.37 25.01 25.40 28.78 27.52 28.98 29.00 28.61 29.11 30.02 30.62 27.96
22.70 21.24 21.06 19.84 19.09 18.32 17.79 16.73 15.83 15.54 13.81 13.64 15.19 15.23 15.80 16.59 17.96 19.07 19.84 18.15 18.45 21.01 21.33 23.27 25.35 24.32 26.77 28.02 26.08 27.33 28.48 26.72 27.36 27.27 27.08 27.90 29.27 29.32
24.02 22.37 21.68 20.80 19.99 18.79 18.11 17.00 16.96 16.49 14.96 14.67 14.40 15.20 15.53 16.04 16.58 16.96 18.25 18.49 18.88 19.91 20.84 23.03 25.38 26.67 27.21 26.13 26.55 26.00 26.96 27.50 26.69 26.07 26.12 26.03 26.47 25.59
24.69 23.80 22.88 21.40 20.53 19.29 17.88 17.74 16.49 16.49 14.54 13.69 14.69 14.86 14.42 14.59 15.95 16.90 17.06 17.16 17.45 18.19 19.65 20.58 23.12 25.37 25.50 24.64 25.28 26.57 24.76 25.75 27.34 27.60 28.73 24.60 26.16 27.26

GFSNE_sfc_wetblb_048.txt.gz
Wetbulb
43.25 43.28 41.68 41.51 40.38 40.29 39.40 38.08 34.51 30.70 32.29 36.44 36.50 40.33 40.50 40.78 40.54 40.72 40.15 39.61 39.96 40.24 39.57 39.02 39.29 40.07 41.42 42.20 42.29 42.65 44.84 47.16 47.44 51.51 55.43 55.44 55.93 56.90
42.49 40.98 40.36 39.62 39.48 39.33 38.60 37.89 36.90 34.06 30.55 35.53 36.27 37.97 38.97 38.53 39.54 39.80 39.49 39.64 38.76 39.14 39.32 38.02 38.40 38.85 39.08 41.14 41.39 41.63 42.75 44.56 45.29 46.71 53.18 54.79 55.39 55.60
40.84 39.54 38.55 39.08 38.17 38.02 37.86 37.09 35.58 35.12 31.60 33.91 35.95 37.20 36.87 37.09 37.59 38.12 38.95 39.16 39.71 39.44 39.04 37.06 36.64 37.38 37.49 37.86 40.52 40.52 41.55 42.36 43.80 43.65 45.58 50.03 54.37 54.86
38.78 38.22 37.49 37.37 37.04 37.13 36.54 35.52 35.06 35.22 32.95 30.50 33.85 34.23 34.30 35.95 36.09 35.58 35.83 37.30 37.99 38.38 37.20 35.16 35.71 36.26 36.42 37.47 38.39 40.00 40.28 40.92 41.03 41.75 42.63 42.89 45.38 49.77
37.98 37.23 36.87 36.35 35.49 35.85 35.49 34.33 34.17 33.77 33.05 30.41 30.48 32.45 32.86 34.03 33.60 34.18 34.02 35.29 36.80 37.75 37.50 36.26 36.70 36.08 35.75 35.67 36.55 38.66 39.96 40.02 39.75 39.96 40.50 40.65 40.77 41.89
37.57 37.17 36.25 35.29 34.69 34.12 32.90 32.73 32.69 31.94 30.98 28.91 28.97 28.50 30.68 31.72 31.79 30.92 31.34 33.95 34.02 35.95 36.78 35.95 35.37 36.40 36.28 35.32 35.67 36.34 39.24 39.96 39.80 39.62 39.24 39.23 39.17 39.70
36.64 35.35 34.86 32.89 29.94 29.65 29.74 30.49 30.26 28.95 27.70 26.76 26.28 27.07 28.08 29.24 29.02 31.37 30.47 31.61 33.16 33.88 33.50 35.13 36.24 37.29 38.34 37.38 36.50 37.16 37.81 39.78 39.83 40.11 39.78 39.31 38.77 39.38
33.40 33.62 33.53 31.62 31.05 28.37 28.29 27.56 27.87 26.77 25.63 25.25 25.96 25.63 28.23 28.63 29.59 29.54 30.14 29.08 27.77 34.79 32.69 32.07 35.56 35.44 36.54 38.67 35.64 34.71 34.62 35.73 39.33 39.99 39.51 39.23 39.47 38.79
32.71 32.15 31.33 31.44 30.69 30.91 28.84 27.65 28.37 28.91 28.26 29.52 27.20 27.39 28.11 29.82 29.97 29.23 28.91 28.66 28.92 31.61 32.21 31.07 34.30 33.10 35.34 36.50 35.37 34.25 34.73 35.34 35.95 37.51 39.46 38.66 38.31 37.92
32.36 31.56 31.01 30.49 30.30 27.63 26.60 27.62 28.02 28.92 28.79 28.67 29.31 29.42 29.77 30.36 30.43 30.23 30.80 30.74 31.63 31.96 32.81 28.11 32.20 31.91 35.17 36.91 35.76 34.70 34.61 34.65 34.85 35.99 36.94 38.44 38.21 37.76
31.70 31.69 30.22 29.29 27.23 26.02 26.13 25.73 26.44 27.49 29.18 28.84 28.66 28.85 29.14 29.58 30.69 32.06 29.15 28.10 27.87 29.06 32.55 30.96 31.27 31.24 33.49 35.10 37.16 35.51 34.71 34.31 34.58 35.47 35.91 36.78 37.63 37.63
31.01 30.91 28.91 26.82 24.68 25.00 25.20 25.16 23.76 25.65 26.06 26.30 27.42 28.86 29.75 31.25 30.37 32.55 31.36 28.33 27.78 27.85 31.67 30.75 30.49 31.58 29.52 35.11 36.45 37.82 37.83 33.70 33.92 34.47 35.11 35.88 36.89 40.03
28.79 29.24 29.52 25.54 24.17 24.21 24.09 24.70 24.46 25.08 24.72 25.79 26.23 26.96 28.51 30.10 30.85 31.58 32.13 31.45 29.65 29.11 32.53 32.24 30.87 31.20 31.29 31.74 35.29 36.69 37.80 37.36 38.11 36.84 34.25 35.47 36.71 36.81
27.91 29.02 28.25 24.22 23.33 23.08 23.80 22.56 22.64 23.77 26.22 24.62 24.65 24.80 26.47 27.11 28.24 30.04 31.24 32.49 33.36 32.75 34.10 33.63 30.19 30.81 30.83 30.98 30.95 35.15 36.23 37.25 37.81 36.52 37.69 36.87 35.68 36.47
28.77 26.56 23.99 22.90 22.80 23.81 23.21 22.10 22.83 25.00 23.44 23.06 22.90 23.82 25.43 27.40 29.10 30.90 32.46 33.89 34.47 34.83 33.18 33.67 32.25 31.82 32.17 30.95 31.80 32.99 33.24 35.11 35.80 35.81 35.84 35.72 36.42 37.21
28.24 27.71 25.19 22.42 23.20 23.61 25.17 25.23 25.15 23.73 21.84 22.46 22.36 24.55 26.68 27.31 28.10 29.90 29.32 30.51 31.23 33.18 33.56 33.89 33.20 32.72 31.22 32.55 32.67 32.55 33.57 32.44 34.69 35.64 34.34 35.02 37.47 38.21
25.07 26.95 26.42 25.38 24.02 24.65 24.77 24.54 24.49 23.33 22.02 22.58 22.56 23.04 23.89 24.81 26.15 28.56 28.51 28.89 29.50 29.54 31.09 33.57 34.38 33.92 33.86 33.23 32.77 33.32 32.94 33.43 34.75 34.53 34.57 33.20 34.81 35.93
25.23 25.92 25.72 25.21 23.36 23.09 22.98 23.40 23.80 21.82 20.99 20.83 22.01 22.28 22.00 22.81 23.60 26.35 27.31 27.10 27.20 28.01 28.89 30.19 31.46 33.87 32.15 31.54 31.05 33.12 34.47 34.05 33.74 33.01 32.05 30.67 31.26 34.35
24.78 25.84 26.18 25.34 24.49 23.44 23.16 22.67 22.07 22.24 20.40 20.51 20.73 21.57 21.81 21.87 23.24 23.93 24.60 24.71 25.15 26.36 27.75 29.15 28.99 28.47 28.16 28.06 30.22 29.03 32.09 31.95 31.73 30.70 30.64 30.28 30.05 31.99
25.28 25.48 25.44 25.71 24.75 23.56 23.27 22.45 22.11 22.00 21.63 20.34 20.26 20.40 20.85 21.35 21.99 22.03 22.94 22.34 22.78 24.32 25.69 27.90 28.36 27.18 26.93 26.94 27.53 29.68 28.07 30.29 29.69 28.98 29.35 31.59 32.98 28.56
26.85 26.34 26.61 26.17 25.37 24.63 23.97 22.79 21.81 21.81 19.87 19.77 20.53 19.56 20.09 20.25 20.92 21.84 22.34 21.65 21.87 23.51 23.06 24.50 26.96 26.23 28.25 29.36 27.38 28.20 28.24 27.41 28.31 28.75 28.86 29.41 29.44 29.97
27.77 27.00 26.96 26.97 26.43 25.23 24.26 23.37 22.41 22.47 21.56 20.86 20.35 20.78 20.50 20.05 19.79 20.27 21.15 21.08 21.83 22.63 23.24 25.47 27.53 28.13 28.20 27.44 28.60 27.97 28.07 28.64 27.41 26.33 26.32 26.22 27.90 28.31
28.83 28.02 27.76 26.99 26.87 25.96 24.12 23.32 22.04 22.06 21.24 20.09 20.18 20.57 19.72 19.19 19.57 20.27 20.56 20.67 21.07 21.45 22.50 23.66 26.44 28.64 27.91 27.11 26.63 28.60 27.07 26.90 28.24 28.60 28.46 25.95 26.42 26.90

GFSNE_sfc_wetblb_051.txt.gz
Wetbulb
44.51 43.92 42.63 42.05 41.62 40.64 39.31 38.02 35.62 31.28 31.66 36.63 37.47 40.38 41.33 41.57 41.70 41.78 41.48 40.83 40.72 40.13 39.62 39.98 39.66 40.16 39.77 39.86 40.32 41.51 42.43 43.08 43.91 44.94 47.53 48.08 51.22 55.93
43.29 42.45 41.68 41.18 40.27 39.48 38.80 38.41 37.83 35.33 31.94 36.05 36.93 39.01 40.10 38.80 40.11 40.52 40.40 40.69 39.64 39.79 39.52 39.59 40.30 39.56 38.69 38.54 38.99 39.87 41.55 42.23 42.85 43.52 46.18 46.42 49.09 54.68
42.36 41.05 40.14 40.34 38.47 38.47 38.42 38.34 36.88 36.56 32.55 34.85 37.29 38.66 38.16 38.17 38.30 39.17 39.45 39.18 39.40 38.67 39.08 39.62 39.47 38.18 37.09 37.14 36.91 37.65 38.72 40.76 41.64 42.12 43.88 44.97 46.20 49.65
39.49 39.52 38.17 38.14 37.83 37.74 37.81 36.25 36.30 36.37 34.22 31.66 34.61 35.33 34.60 36.63 36.54 36.25 36.26 36.58 37.30 37.27 37.70 38.21 37.05 37.29 37.46 37.24 36.75 37.62 37.86 39.15 40.65 40.87 41.64 43.23 43.40 44.81
38.61 37.96 37.28 37.01 35.82 36.04 35.90 35.35 35.18 34.48 34.52 33.06 32.31 33.75 33.67 34.86 33.66 34.64 34.64 35.34 36.07 37.28 36.84 37.03 37.29 37.92 37.90 37.23 37.00 36.87 37.08 37.48 39.14 39.88 40.12 40.51 40.80 41.52
38.33 38.12 37.26 36.05 34.78 33.59 32.20 31.86 31.95 31.34 31.64 31.24 30.77 30.07 30.71 32.06 32.81 31.23 31.06 33.69 33.47 35.26 36.28 35.99 36.84 37.59 37.44 37.44 37.21 36.76 36.74 37.15 38.58 39.49 39.57 38.77 38.87 40.14
37.55 36.81 36.38 34.01 31.77 31.01 30.01 30.11 29.74 28.62 27.96 27.19 26.57 27.29 27.74 28.57 28.79 30.97 29.41 30.71 32.70 33.59 33.71 35.12 35.94 36.44 37.40 37.60 37.57 37.42 37.26 37.23 38.64 39.69 39.62 38.97 38.54 38.72
34.84 35.08 35.20 34.47 33.45 31.44 30.99 30.23 28.56 26.91 25.81 26.63 26.39 25.91 27.25 28.63 30.65 30.02 29.92 28.45 27.19 34.62 32.64 32.47 35.11 34.39 36.03 37.79 35.76 35.76 35.65 34.95 36.48 38.92 39.57 39.36 38.89 38.44
34.62 33.88 33.29 33.54 32.52 31.93 30.36 29.55 29.22 29.76 28.93 29.15 27.30 27.08 27.23 29.61 28.94 28.18 28.22 28.42 28.29 31.93 31.82 30.44 34.10 32.83 35.68 35.96 36.87 35.60 35.07 35.25 35.30 36.60 39.01 38.75 38.21 37.97
34.37 33.70 32.90 32.35 30.97 28.00 27.64 26.95 27.33 27.91 29.33 29.57 29.06 28.83 28.96 29.43 29.12 28.83 29.57 30.04 31.12 32.32 33.16 28.07 32.93 32.00 34.74 35.92 36.13 36.54 35.65 35.34 35.30 35.49 36.37 37.69 38.10 37.71
32.90 33.40 32.58 31.02 27.98 26.63 25.41 24.90 25.42 26.86 29.54 29.51 29.09 28.93 29.16 29.54 30.03 30.31 28.51 28.44 28.18 29.66 32.94 30.55 31.59 31.34 33.46 34.47 36.61 36.51 36.30 35.78 35.42 35.45 35.90 36.00 37.19 37.89
31.93 32.10 29.42 27.67 25.22 24.96 24.44 24.40 23.23 24.90 25.09 25.50 26.85 28.41 29.55 30.27 30.61 30.86 30.78 28.38 28.22 27.90 32.12 29.38 30.36 30.74 29.03 34.80 36.07 37.46 37.62 35.34 34.98 34.82 35.06 35.61 36.13 38.51
29.51 30.07 31.09 26.61 25.53 24.40 24.30 24.57 24.65 24.04 24.14 25.46 26.63 27.26 28.61 29.45 30.27 31.43 31.73 30.88 28.58 28.35 32.56 31.79 30.29 30.66 30.29 30.35 34.24 36.80 37.88 37.50 36.38 35.04 34.94 35.63 36.18 36.12
28.29 29.79 30.48 26.60 25.17 24.00 24.35 24.97 23.93 23.94 26.34 25.24 25.21 25.18 25.88 27.03 28.48 30.35 31.39 32.57 33.41 32.13 34.21 34.02 30.97 30.09 29.87 29.42 29.89 34.91 36.43 37.86 38.13 37.56 38.16 36.44 35.48 36.13
29.78 29.13 26.79 26.38 25.75 25.45 25.88 24.48 24.06 26.16 24.40 22.95 23.40 23.79 25.67 27.65 29.15 30.73 32.34 32.93 33.51 33.35 35.12 34.43 32.65 32.12 31.44 29.45 30.37 33.04 32.86 35.06 36.84 36.43 36.62 36.21 36.54 36.60
29.29 30.12 28.17 26.51 26.05 25.36 26.17 27.58 27.21 26.52 23.84 23.11 23.25 24.70 26.41 26.79 26.84 28.73 28.79 29.71 30.12 32.35 33.55 33.69 33.41 32.75 30.51 31.47 31.92 32.00 33.93 32.10 35.33 35.64 34.78 36.13 36.38 37.76
27.11 28.15 27.97 28.17 26.73 26.84 26.93 26.52 26.86 26.19 24.26 23.55 23.04 23.38 23.61 24.29 24.98 27.68 27.60 28.18 27.61 28.42 29.87 32.67 33.80 33.32 33.16 31.94 30.25 32.08 33.45 33.25 34.79 34.46 33.71 33.16 35.42 36.77
26.76 26.14 26.94 28.09 26.44 25.72 25.51 25.28 25.83 24.92 24.36 22.69 22.68 22.72 22.45 22.51 23.09 25.43 26.38 25.85 25.51 26.81 27.82 29.76 30.70 31.37 31.64 29.95 30.04 31.32 34.22 34.11 33.85 33.39 33.20 32.25 33.22 35.68
24.74 26.04 27.13 27.29 27.20 25.93 25.93 25.40 24.35 24.75 23.44 23.81 22.50 22.44 21.85 21.89 23.37 23.63 24.53 24.64 23.89 24.66 27.06 29.58 29.33 28.17 26.21 27.01 29.34 29.58 31.36 30.92 32.16 30.73 31.23 30.82 31.26 32.98
26.89 26.63 26.75 27.26 27.23 26.20 26.29 25.44 24.78 24.76 24.05 22.97 22.54 22.57 21.57 20.96 21.46 22.33 22.83 22.68 22.85 23.24 24.97 27.59 28.97 26.66 24.63 24.58 26.38 29.13 28.98 31.00 30.60 29.26 29.30 31.42 31.89 29.09
28.11 28.51 29.34 28.35 27.63 27.40 27.16 25.91 24.85 23.72 23.34 22.46 22.65 22.24 22.22 21.02 20.44 21.54 21.82 22.01 22.27 23.12 22.78 24.04 26.42 27.41 28.48 29.72 26.78 27.65 28.03 28.35 28.93 29.40 29.27 29.31 30.77 30.14
29.88 28.97 29.27 29.22 28.57 28.15 27.35 26.19 24.81 24.11 24.02 23.47 22.81 22.77 22.84 21.57 20.68 19.93 20.96 20.57 21.38 21.98 23.22 25.32 28.45 29.08 28.27 27.29 27.61 27.29 27.49 28.74 27.68 27.12 27.03 26.80 26.95 27.36
30.92 30.69 30.93 30.43 29.44 28.32 27.00 25.79 24.41 24.33 23.90 22.91 22.31 22.56 21.62 20.48 21.78 21.65 20.75 21.04 21.25 21.03 21.63 23.06 26.01 28.68 28.06 27.07 26.74 27.81 26.67 27.13 28.28 27.70 27.51 26.57 26.98 26.92

GFSNE_sfc_wetblb_054.txt.gz
Wetbulb
40.27 40.66 40.19 40.17 39.53 37.95 36.09 34.51 30.47 26.67 28.28 31.65 31.26 34.29 34.95 35.06 36.99 36.23 35.30 39.84 41.39 40.40 40.35 40.83 40.76 40.73 40.71 40.86 40.85 40.82 40.90 41.06 42.16 43.16 43.86 44.82 45.48 48.17
40.51 39.20 38.19 38.16 37.34 36.76 34.28 33.98 32.81 30.43 27.54 31.18 32.16 32.62 34.34 36.78 37.32 35.01 35.32 39.59 39.10 39.72 39.54 39.46 40.21 39.92 40.87 40.31 40.09 39.61 39.41 39.62 39.90 41.06 42.42 43.38 44.11 47.16
37.59 37.49 37.23 37.50 35.95 34.85 34.41 33.53 32.53 32.35 28.45 30.61 32.52 33.11 31.75 31.75 32.71 33.32 34.75 33.65 34.11 37.77 38.49 38.44 38.62 38.64 39.05 39.60 38.99 38.32 38.20 38.26 38.60 39.25 41.22 42.43 43.41 45.79
36.85 36.94 36.11 37.78 34.84 33.94 32.85 31.81 30.49 30.36 28.44 26.08 29.11 30.05 29.85 30.62 30.21 30.25 33.05 34.53 33.40 36.34 37.18 37.79 37.95 37.92 38.13 38.04 37.91 38.06 37.83 37.32 37.74 37.55 38.87 41.05 42.55 44.06
37.24 36.12 35.48 33.93 32.43 31.52 29.40 28.39 28.34 30.29 28.48 26.71 26.04 28.79 28.64 28.54 28.22 29.21 30.23 30.48 33.94 36.47 36.65 37.04 37.39 37.48 37.52 37.78 37.86 37.74 37.51 37.33 36.91 37.21 38.00 39.59 40.34 41.52
36.27 35.75 35.41 33.75 29.14 27.86 28.00 25.70 27.44 25.61 25.83 24.98 24.80 25.38 25.97 27.43 27.69 26.76 27.06 28.79 29.01 33.32 34.70 34.68 36.05 36.82 37.11 37.68 37.74 37.75 37.72 37.52 37.18 36.81 37.71 38.49 38.92 39.41
35.81 35.31 33.49 32.62 33.98 29.23 27.34 25.07 25.14 24.09 23.92 23.04 22.84 23.81 24.18 25.01 25.12 27.00 26.41 27.63 28.29 29.57 29.92 30.46 31.22 32.34 32.98 35.75 36.78 37.89 38.13 37.95 37.72 37.46 38.35 38.76 38.68 38.74
31.65 31.38 31.47 33.50 31.45 31.33 31.58 30.51 28.20 23.21 22.80 22.73 23.19 23.61 24.39 24.46 26.49 27.81 26.26 24.20 22.34 28.57 27.98 27.55 30.09 30.06 32.20 33.41 36.26 35.66 35.73 37.11 37.68 37.14 37.75 38.97 38.73 38.38
30.26 29.66 30.46 32.70 30.18 27.58 28.68 28.74 27.26 28.74 27.73 25.79 23.92 24.83 26.15 26.08 26.08 23.92 23.19 22.91 22.85 26.59 27.19 25.58 28.74 28.19 30.97 33.73 35.59 36.49 36.81 36.68 36.48 36.34 36.36 37.80 37.69 37.84
30.08 29.57 28.67 28.12 25.21 25.62 24.68 23.50 23.74 25.02 25.94 27.07 25.85 26.08 25.62 25.88 25.79 25.84 25.13 25.28 26.40 27.31 29.45 25.12 27.99 27.42 28.10 29.14 35.48 36.43 36.61 36.20 36.16 35.97 35.62 35.85 37.95 37.82
29.67 29.37 29.57 27.17 26.55 27.02 23.85 22.01 22.46 23.66 28.16 28.64 27.53 27.92 28.76 29.52 29.37 27.41 24.83 24.50 22.71 26.62 29.79 29.07 26.74 27.06 28.00 28.14 29.76 35.82 36.03 36.28 36.13 35.75 35.54 35.58 35.94 37.70
28.19 28.81 27.69 25.49 25.95 25.73 20.30 18.78 19.24 22.15 22.11 22.17 23.29 25.75 27.65 27.48 29.72 29.13 28.57 25.62 25.15 22.59 27.78 27.31 28.37 27.94 25.38 28.84 31.14 31.09 30.02 35.49 35.86 35.73 35.59 35.70 35.45 34.60
27.80 26.64 26.69 26.71 26.39 26.13 24.91 21.33 21.14 23.35 22.83 22.33 23.78 23.72 25.65 26.15 26.98 26.50 26.47 24.04 23.96 23.58 28.21 29.57 28.45 27.95 25.88 26.87 30.87 32.56 31.15 28.94 29.19 30.86 35.31 35.63 35.95 34.55
26.96 26.99 27.72 28.12 27.72 26.60 24.64 25.01 25.83 23.96 21.53 20.16 20.79 21.77 22.53 24.05 25.37 26.85 28.63 29.42 30.52 30.07 31.40 32.38 29.84 28.18 25.88 25.50 26.25 31.37 32.97 31.86 30.09 27.75 27.56 32.25 35.42 35.40
27.28 28.25 28.84 28.11 28.25 26.45 27.29 27.23 23.67 20.96 21.18 15.55 18.55 20.14 21.95 24.80 26.00 26.30 27.66 28.09 28.65 30.78 33.33 32.90 31.24 28.29 26.31 25.33 25.48 29.33 31.21 28.81 28.80 28.00 26.10 29.06 27.85 26.50
27.27 27.73 26.58 25.20 23.18 23.68 22.57 24.69 23.11 22.41 19.32 17.41 16.98 20.06 22.38 22.54 23.03 24.74 24.05 25.95 25.62 27.43 31.77 31.58 31.28 30.54 26.18 25.59 27.71 27.08 29.31 29.93 28.32 25.92 25.13 25.12 27.25 29.08
24.62 23.74 22.59 23.91 24.16 23.11 23.18 22.78 22.50 22.24 19.58 18.18 16.74 18.41 20.51 21.44 21.78 23.37 24.15 24.64 23.58 24.16 25.48 29.27 32.04 31.90 29.67 30.21 28.68 28.02 29.19 31.71 31.10 29.66 26.87 24.54 26.80 30.32
23.17 21.18 20.07 21.11 24.85 21.48 19.77 20.54 20.82 19.85 20.22 18.96 17.27 17.95 18.06 19.50 20.16 21.78 24.24 23.49 22.22 22.72 22.97 25.36 27.42 28.12 30.04 27.89 29.08 28.11 30.74 31.57 31.47 29.17 27.93 29.74 30.38 32.28
24.62 20.96 20.50 23.94 22.64 25.08 21.28 20.73 18.87 19.25 19.78 19.27 17.28 15.94 17.18 18.90 19.20 20.32 21.79 22.23 20.49 22.01 22.71 24.79 27.42 24.86 22.94 22.40 26.74 29.71 28.31 28.20 27.48 24.10 26.30 26.12 29.88 29.67
25.66 23.83 23.27 24.66 25.70 23.44 22.39 21.78 20.02 17.67 17.37 18.61 13.83 15.98 13.47 14.19 17.23 18.88 19.41 19.00 18.83 19.83 21.78 23.54 24.73 23.12 21.21 21.28 23.33 24.83 29.41 25.29 25.31 25.71 26.41 28.46 27.78 29.25
26.12 26.24 25.68 25.92 26.80 23.73 21.97 21.36 17.87 15.03 14.41 11.48 13.25 15.26 16.81 14.90 12.70 18.06 18.17 17.76 17.98 20.23 19.12 20.80 22.94 25.84 25.70 25.05 23.67 24.25 22.82 28.57 27.20 24.38 26.07 23.36 27.34 24.28
26.09 25.96 26.65 27.13 26.23 25.70 24.31 23.27 19.88 16.78 16.40 17.21 13.80 11.34 17.80 11.97 12.41 12.57 15.46 16.83 18.34 18.18 19.14 21.26 24.73 27.04 27.13 25.88 25.15 21.81 25.17 22.09 25.69 27.70 27.62 26.30 19.92 22.49
27.57 27.62 27.81 27.64 26.91 26.18 23.12 20.66 22.56 16.85 16.53 15.37 13.83 13.62 11.24 9.88 13.94 12.82 14.00 16.34 18.53 17.50 16.90 16.90 22.53 24.89 26.76 25.47 25.48 24.27 19.63 19.40 21.64 22.21 19.48 27.21 27.43 27.49

GFSNE_sfc_wetblb_057.txt.gz
Wetbulb
37.93 38.55 38.35 38.70 39.54 38.99 35.75 34.51 31.33 23.89 26.47 28.20 28.41 32.16 32.38 32.87 34.88 34.22 32.74 37.38 39.97 39.54 39.52 39.33 39.17 39.42 39.86 40.11 40.25 40.70 41.42 42.06 41.76 41.53 41.57 42.19 43.63 44.72
37.06 35.89 36.53 36.65 35.37 34.24 33.46 34.42 32.71 30.60 26.88 28.55 28.79 29.60 31.46 34.47 35.54 32.77 32.54 37.11 36.57 37.57 37.85 39.00 39.35 38.52 38.44 38.66 38.70 39.15 40.16 41.02 40.92 40.56 40.88 40.79 41.76 43.46
35.18 35.25 35.05 34.75 34.10 33.56 34.36 33.70 30.52 27.79 24.05 25.69 27.56 28.94 27.98 28.71 30.66 30.68 32.24 31.05 31.25 36.18 37.00 37.69 37.82 38.13 38.66 38.62 38.59 38.87 39.23 39.62 39.72 39.78 39.91 40.26 40.84 41.90
34.32 34.43 35.79 36.41 33.09 32.55 29.31 26.60 25.49 25.41 24.02 22.89 24.35 25.75 25.66 27.17 27.40 27.10 30.80 32.72 31.07 34.54 36.49 37.26 37.50 37.50 37.57 37.46 37.98 38.14 38.17 38.64 38.34 38.35 38.27 38.19 38.77 39.69
34.41 33.21 33.12 32.39 29.05 26.48 26.12 24.75 24.53 27.31 24.08 22.84 23.09 24.31 25.15 25.50 25.69 26.48 27.03 27.95 31.81 34.74 35.11 35.35 35.70 36.36 36.90 36.94 36.97 37.40 37.45 37.66 37.54 37.81 37.73 37.12 37.08 37.64
34.17 33.97 33.66 30.59 27.36 25.94 25.85 23.77 25.02 23.12 23.13 22.25 22.76 22.60 23.46 25.00 24.90 24.37 24.83 26.09 27.36 31.35 32.45 33.36 34.75 34.93 35.52 35.87 36.51 37.07 37.57 37.75 37.68 37.61 36.96 36.52 36.59 37.73
32.16 33.02 31.79 31.69 34.31 28.52 26.11 23.62 23.67 22.38 21.72 21.56 21.42 22.02 22.53 23.06 23.37 24.25 25.86 25.48 25.29 26.32 26.88 27.82 28.68 29.64 30.70 33.54 34.80 36.25 36.67 37.05 37.44 37.43 37.89 37.14 36.99 37.92
29.39 29.66 29.13 31.92 31.16 31.48 30.51 29.66 26.99 22.18 20.70 20.40 21.28 21.54 21.76 23.29 27.19 24.29 22.53 20.90 19.12 25.20 24.01 24.41 27.34 27.00 29.08 30.77 34.09 35.45 36.51 36.93 37.08 37.26 37.35 36.93 37.25 38.11
28.57 27.34 28.57 30.48 28.45 26.17 26.91 26.80 25.70 26.68 25.53 23.17 21.72 22.58 23.82 24.29 23.65 22.09 21.90 21.66 21.95 24.62 24.64 23.47 26.98 26.10 28.83 31.46 34.21 35.40 35.76 36.30 36.64 36.72 36.68 36.13 36.19 37.14
27.69 26.96 26.30 25.41 25.49 25.18 23.99 22.68 22.85 23.02 23.96 24.80 24.07 23.14 23.25 24.05 24.06 25.08 24.62 24.34 25.30 25.69 27.09 23.76 25.15 26.45 28.32 27.99 32.71 34.51 35.67 35.84 36.19 36.31 36.21 35.64 35.34 36.97
28.05 27.43 27.85 24.67 27.05 26.98 23.54 21.13 21.65 22.09 25.94 27.58 27.05 27.26 28.16 28.70 28.82 26.69 24.54 24.41 22.58 23.84 25.34 24.39 23.65 25.70 26.38 28.90 29.06 33.10 34.84 35.57 35.94 35.92 36.00 35.76 35.48 36.16
26.97 27.39 28.02 25.06 26.16 26.02 20.10 16.99 16.65 20.25 22.12 22.15 22.53 23.94 25.78 25.65 28.35 27.41 25.89 22.70 22.39 21.14 23.96 21.10 24.38 24.05 24.33 26.48 29.13 30.83 31.04 33.81 34.23 35.97 35.93 35.93 35.48 32.48
26.89 25.94 25.18 27.16 26.79 27.36 26.67 20.87 18.64 22.13 23.05 21.81 21.87 22.01 22.36 23.34 23.42 24.56 25.55 26.01 24.77 24.15 27.23 27.72 26.39 26.61 27.17 25.15 27.56 30.29 31.72 32.54 27.75 31.24 35.81 35.62 35.56 33.84
25.91 26.06 26.23 28.76 28.82 28.59 26.62 26.27 26.43 24.56 17.02 18.13 19.03 19.34 19.85 20.90 22.67 24.01 25.29 26.46 26.85 26.33 28.28 30.22 28.73 28.28 27.13 25.41 25.66 29.49 31.59 33.05 31.13 26.89 26.63 31.46 35.00 35.32
26.66 26.71 28.78 29.50 29.06 27.73 28.48 28.55 25.36 20.61 17.88 14.08 16.87 17.44 18.68 21.26 23.48 23.93 25.10 25.52 26.27 27.49 30.34 31.87 30.63 30.76 28.67 26.48 26.16 26.35 29.06 31.49 29.83 30.50 30.26 24.28 25.66 24.64
27.32 26.45 24.51 25.49 23.17 23.54 23.35 24.78 22.18 19.42 18.08 18.77 15.09 16.60 19.12 20.25 20.25 21.98 21.50 22.53 23.58 23.37 27.96 28.82 30.36 30.20 27.52 26.91 27.35 26.66 26.59 28.20 31.93 26.38 23.09 22.64 24.90 25.35
26.70 24.03 22.65 21.29 21.69 23.73 23.13 22.81 21.88 20.79 17.94 15.36 14.55 15.46 17.99 19.11 19.20 21.04 21.15 22.76 21.81 21.81 22.76 25.15 27.60 29.34 31.27 29.52 26.14 24.93 25.59 24.95 31.75 27.12 25.33 23.40 26.12 26.34
24.91 15.99 13.90 11.92 15.75 20.86 22.90 20.90 20.14 18.67 17.93 17.13 13.34 15.88 15.46 15.53 17.27 19.70 21.14 20.69 19.12 20.23 20.88 22.95 25.88 24.50 27.18 27.49 29.05 27.23 29.20 29.71 29.90 29.59 26.89 27.42 30.02 31.39
24.79 19.53 14.36 15.50 18.16 21.10 24.68 20.84 19.02 18.65 18.66 16.79 14.25 12.29 13.57 16.05 14.12 16.89 19.33 19.20 18.51 18.47 19.66 23.23 24.33 22.38 19.81 15.95 27.57 29.49 26.82 28.86 26.99 21.89 23.86 27.35 28.20 29.49
26.54 24.46 20.53 20.25 20.59 22.87 24.30 20.98 19.17 16.59 14.57 14.65 10.21 7.40 6.25 11.46 10.52 14.16 16.93 16.18 17.41 18.78 19.10 20.78 21.71 21.98 21.99 19.08 21.97 21.77 29.04 23.62 24.29 23.18 24.74 26.97 27.86 29.78
24.80 24.47 24.05 22.93 22.72 23.31 23.13 20.92 15.19 11.15 8.32 5.90 6.93 7.82 6.82 9.84 8.98 12.02 13.18 14.93 15.38 18.66 17.28 16.83 19.54 23.40 26.03 22.74 19.49 20.01 20.47 28.42 25.98 22.76 24.40 24.36 25.82 25.29
25.66 24.70 24.22 24.60 24.55 25.53 24.95 21.30 16.76 12.09 10.18 8.31 9.13 8.90 2.87 6.02 6.12 6.73 8.13 10.97 16.90 17.19 17.00 17.92 21.17 24.00 25.90 26.04 23.27 17.74 20.67 17.83 24.45 27.75 27.84 26.11 22.66 20.43
26.81 26.61 26.32 26.37 25.41 24.93 24.36 22.57 20.89 17.11 15.93 12.86 9.96 7.27 1.52 5.90 6.99 9.08 7.65 14.46 14.20 16.46 15.33 15.42 18.86 22.51 24.07 23.62 24.13 17.63 15.55 17.35 20.10 22.40 21.29 27.15 27.92 28.19

GFSNE_sfc_wetblb_060.txt.gz
Wetbulb
35.99 35.87 36.30 36.81 37.00 37.27 36.94 35.67 31.05 24.15 24.93 26.63 27.29 29.89 30.23 31.21 33.13 32.92 31.58 35.86 39.04 37.82 37.45 37.27 37.69 38.18 38.97 39.41 39.80 40.20 40.42 40.75 40.96 41.66 42.96 43.04 42.87 42.86
35.34 34.23 34.69 35.26 34.50 33.20 34.32 34.05 33.33 32.15 26.56 26.59 26.41 27.12 28.65 31.01 32.26 30.90 30.65 35.33 35.30 36.21 37.38 36.81 36.63 37.00 37.19 37.53 38.01 38.50 38.84 39.20 39.86 40.52 41.45 42.62 42.33 42.54
33.84 34.21 34.79 34.69 33.34 35.33 34.76 34.16 29.66 28.49 23.75 24.07 25.41 26.07 24.71 25.16 27.44 28.38 29.89 29.06 29.60 34.46 35.71 36.21 36.96 37.25 37.17 37.15 37.58 37.44 37.80 38.21 38.75 39.52 40.56 41.40 41.70 41.76
33.32 33.44 33.80 35.86 31.28 29.57 27.20 25.89 24.97 24.36 23.39 21.39 22.57 22.94 23.42 23.90 24.86 24.71 28.36 30.68 28.93 32.64 34.36 34.70 34.88 35.06 35.88 36.22 36.72 37.57 37.52 37.66 37.95 38.14 38.65 39.31 39.92 40.15
33.69 32.85 32.69 31.66 29.52 26.30 25.68 24.56 24.11 26.69 23.49 22.20 21.95 22.81 22.50 23.15 24.22 25.29 26.02 26.41 29.50 33.00 32.51 32.75 32.98 33.39 34.08 35.16 36.53 36.45 36.85 37.20 37.31 37.63 38.09 38.31 38.24 38.29
33.90 32.89 32.58 31.35 28.07 25.93 25.48 23.62 24.25 22.82 22.53 21.59 21.77 21.92 21.73 23.80 23.59 23.25 23.86 25.26 26.31 28.78 29.52 30.10 31.28 32.09 33.51 33.76 33.39 34.14 35.61 36.88 36.95 37.30 37.15 37.09 37.10 37.58
31.98 32.50 31.63 30.73 32.53 28.71 25.32 23.32 23.33 21.92 21.14 20.64 20.20 20.95 21.53 21.63 21.30 24.19 23.73 23.16 23.62 24.68 24.15 25.01 26.34 26.91 27.67 30.73 32.18 33.59 34.27 35.42 36.49 36.87 36.94 36.81 37.01 37.24
32.35 31.60 30.34 31.76 31.77 31.86 30.82 28.93 25.83 21.62 20.25 18.94 19.36 19.35 20.45 22.25 24.19 21.82 20.92 20.45 19.35 23.43 22.36 23.51 25.95 25.31 27.04 28.17 31.55 32.94 34.10 34.77 36.24 36.68 36.51 36.70 37.15 36.98
28.91 28.01 27.98 29.78 29.32 27.46 28.55 27.47 25.86 26.48 24.66 20.67 18.80 19.85 21.10 21.53 21.69 20.85 21.34 21.85 21.88 24.16 25.31 23.07 24.72 24.46 27.50 30.19 32.62 33.45 34.08 34.86 35.62 35.92 36.35 35.84 36.13 35.58
27.42 27.14 26.73 25.79 25.69 25.48 24.07 23.29 23.61 23.17 23.24 23.72 22.19 21.92 21.73 22.92 23.32 24.99 25.76 24.97 25.57 25.09 24.95 21.53 24.14 24.32 26.64 27.73 31.90 33.53 34.14 34.62 35.27 35.84 35.97 35.97 35.44 34.95
28.62 28.07 26.88 25.66 27.11 28.66 24.78 22.33 22.75 22.09 25.05 26.72 26.84 27.10 27.62 27.30 27.09 25.23 22.54 21.99 19.90 21.60 23.75 22.84 22.61 23.52 25.12 26.33 28.26 32.78 34.25 34.76 34.58 34.26 34.98 36.12 35.83 35.18
27.64 27.40 29.49 25.82 27.71 27.28 22.06 19.77 18.29 20.41 20.77 22.38 22.59 23.39 24.83 24.20 26.14 24.44 23.52 20.87 21.31 20.58 22.53 23.17 23.99 24.26 22.77 23.64 26.65 27.87 27.82 32.77 33.99 34.08 34.93 36.20 36.02 31.78
27.13 26.48 26.36 28.53 28.04 27.91 27.95 22.22 19.71 22.23 22.33 22.59 21.93 21.20 21.72 21.42 21.89 22.75 23.22 22.19 21.42 21.04 25.05 25.79 25.03 25.39 26.44 25.30 23.99 26.42 28.48 30.95 32.27 31.82 34.03 35.99 36.15 33.72
26.69 26.99 26.65 28.94 29.10 28.92 28.31 27.48 27.72 25.31 19.78 18.60 18.27 19.17 18.97 19.32 20.44 21.93 23.54 23.86 24.43 24.10 25.79 26.76 26.01 27.73 27.35 23.68 23.36 26.43 29.06 30.96 31.78 26.04 24.46 30.78 35.09 35.06
28.23 27.53 28.57 29.28 29.46 28.33 29.21 28.94 25.79 22.33 19.50 12.44 16.99 17.39 18.12 19.33 21.99 22.42 23.23 23.83 24.67 25.18 27.30 26.91 26.86 26.72 27.76 27.06 25.59 24.22 25.31 29.20 31.95 31.36 29.97 24.43 24.21 23.59
27.65 27.97 26.74 26.20 21.60 22.59 22.29 24.73 22.96 20.15 19.13 18.04 15.87 15.83 17.92 18.77 18.63 20.35 19.82 21.06 21.86 19.87 25.10 26.31 25.95 26.06 25.85 28.54 27.45 26.22 26.75 25.09 28.10 30.73 23.51 24.36 23.67 23.59
28.82 27.62 25.48 24.30 23.59 22.55 21.81 22.49 22.48 22.02 18.94 16.49 14.18 14.43 16.45 17.65 17.37 18.29 19.29 20.26 19.27 19.27 19.80 22.87 25.77 26.88 29.24 28.16 25.33 24.98 26.58 28.11 29.36 27.81 25.00 22.58 23.95 24.32
27.57 20.97 20.95 19.15 19.08 19.78 19.13 20.09 20.93 19.82 19.06 17.20 13.29 15.14 14.56 13.97 14.71 16.87 18.59 17.13 17.57 18.53 18.32 20.85 23.93 23.38 22.69 26.27 28.36 25.22 26.71 28.70 29.23 28.07 26.81 29.30 29.19 31.15
27.53 23.80 22.47 19.98 18.09 19.54 20.16 20.14 20.57 20.20 18.51 18.11 17.22 15.25 12.99 14.14 11.83 14.06 15.34 16.73 16.85 17.74 18.33 19.83 20.88 20.97 19.26 9.92 24.16 29.18 24.97 26.76 25.70 23.38 24.91 28.18 27.88 27.74
27.23 25.37 24.63 22.17 20.42 20.47 21.16 20.98 21.33 18.89 15.95 16.16 14.60 9.24 3.56 8.46 9.71 11.94 13.19 7.81 14.98 17.48 18.40 18.54 17.75 18.76 18.83 19.98 20.34 20.04 28.48 23.35 23.82 23.69 25.68 26.21 28.02 29.50
25.80 26.21 25.95 25.35 23.18 22.15 22.16 21.38 19.85 17.70 14.42 10.51 11.58 7.02 1.29 8.44 7.55 9.22 9.12 9.36 10.15 17.64 16.00 15.67 17.62 21.75 23.09 24.46 18.57 18.51 19.16 27.86 26.37 22.78 23.95 24.74 24.57 24.24
26.56 25.92 25.58 25.48 24.82 23.63 22.64 22.26 20.24 16.23 14.09 12.50 7.82 4.28 1.03 4.19 4.98 3.87 3.03 6.75 12.80 14.45 16.10 17.11 19.91 22.63 24.29 25.19 23.35 17.78 18.67 18.30 24.20 27.21 27.95 26.85 22.93 21.41
28.17 27.13 26.42 25.63 25.58 25.36 24.86 24.10 22.54 20.81 19.48 18.14 13.64 10.90 0.85 4.51 5.29 4.43 4.01 10.51 11.63 11.56 14.25 14.78 17.43 20.56 21.56 23.77 23.10 19.76 17.86 19.30 20.62 22.19 20.95 27.26 29.02 29.21

GFSNE_sfc_wetblb_063.txt.gz
Wetbulb
34.20 34.08 34.32 35.77 35.61 35.69 36.41 35.84 34.52 28.92 24.37 26.13 26.80 29.29 29.74 29.26 30.79 30.04 29.49 33.52 35.90 36.09 35.92 36.32 37.01 37.53 37.79 38.13 38.65 39.23 40.01 40.47 41.01 41.48 41.70 42.08 42.59 43.57
34.35 33.25 33.21 33.64 33.42 32.42 32.48 32.28 32.29 30.81 27.82 28.70 27.17 27.07 27.63 29.58 29.91 27.95 27.60 33.22 33.20 33.64 34.18 34.77 35.43 36.17 36.40 36.87 37.28 37.80 38.40 38.88 39.56 40.00 40.50 41.09 42.05 42.75
33.24 32.56 33.06 34.04 32.79 33.26 34.29 33.71 32.88 29.37 25.78 24.20 25.22 25.16 23.85 24.15 25.31 25.06 27.14 26.73 27.43 32.48 33.19 33.77 34.47 35.32 35.73 35.75 35.96 36.25 36.47 37.19 37.79 38.56 39.44 39.97 40.94 42.23
32.97 32.41 33.12 35.18 31.94 30.17 28.19 26.47 25.27 24.23 23.39 21.36 22.22 22.74 22.94 23.47 23.27 23.34 26.60 28.84 27.08 30.97 32.61 33.43 33.32 33.56 33.99 34.12 34.61 35.29 36.10 36.66 36.59 36.67 37.65 38.34 39.37 40.61
33.12 31.94 32.29 31.73 29.90 27.85 25.97 24.94 23.94 26.14 23.42 22.04 21.55 22.41 22.28 22.40 22.78 24.12 24.70 25.52 27.94 31.53 30.75 30.96 31.33 31.77 32.32 32.72 33.39 34.32 35.38 34.87 35.67 36.34 37.35 37.40 37.57 38.08
32.79 32.42 31.82 31.03 29.89 29.48 26.68 25.00 24.48 23.16 22.48 21.40 20.97 21.03 20.89 22.72 22.61 21.91 22.71 24.43 24.24 27.11 28.29 28.70 29.71 30.86 31.74 32.11 32.36 33.00 33.50 34.10 34.85 35.77 36.25 36.36 36.66 37.62
30.49 31.80 31.83 32.91 33.93 30.55 27.03 24.78 22.97 21.86 21.26 20.49 19.94 19.19 19.55 19.96 20.18 23.07 21.75 21.59 22.45 24.07 23.68 24.01 24.81 26.16 26.94 29.51 30.91 32.33 32.95 33.55 34.13 34.80 36.05 36.14 36.19 36.80
29.80 30.84 32.56 32.07 31.50 34.03 32.08 29.26 25.54 21.93 20.37 18.94 18.59 17.70 18.55 20.19 19.77 20.51 20.02 19.45 18.79 23.12 22.29 23.39 25.42 24.76 26.17 27.13 30.28 32.01 33.28 33.99 34.50 34.82 35.41 36.04 36.04 35.94
28.94 28.54 28.28 28.97 29.39 28.22 30.69 30.07 28.70 27.63 25.41 20.86 17.70 18.78 17.23 20.33 20.68 20.43 20.83 21.49 21.80 23.99 23.60 22.47 24.53 23.52 26.05 27.86 31.08 32.29 33.02 33.72 34.50 34.72 35.54 35.44 35.28 35.46
30.67 28.29 26.74 26.13 26.80 26.57 24.62 23.61 23.41 23.90 24.14 23.06 21.05 21.42 21.81 22.24 22.34 23.34 23.70 23.71 23.68 23.93 23.75 20.28 23.38 23.02 25.42 26.25 30.52 31.98 33.00 34.34 34.93 34.91 35.35 35.52 35.25 35.36
28.73 28.30 27.85 26.20 28.54 30.34 25.02 23.27 23.33 23.60 25.81 26.44 27.11 27.38 27.39 27.72 26.05 19.55 18.64 19.39 17.78 20.19 23.15 21.85 21.15 22.75 24.78 25.46 26.93 31.01 33.01 34.46 34.98 35.20 34.91 34.62 34.80 35.15
26.72 28.19 30.52 28.74 28.58 29.14 23.00 20.11 19.13 21.59 21.48 21.57 22.42 23.76 24.55 24.02 25.57 22.69 19.27 18.51 19.06 17.55 22.01 20.41 21.95 23.82 21.47 23.46 24.26 25.50 27.12 30.51 32.80 34.27 34.31 34.45 34.43 32.70
27.37 27.54 27.55 29.54 29.72 29.25 28.70 22.13 20.66 23.25 22.33 21.94 22.42 21.75 21.65 21.64 21.09 21.44 21.83 19.48 18.80 18.88 22.99 23.91 21.58 23.17 24.77 24.54 23.62 24.94 24.73 27.54 29.63 31.51 33.80 33.68 34.18 34.33
27.52 27.95 27.79 29.81 30.29 29.79 28.40 27.95 28.56 25.46 22.36 21.05 19.31 19.43 19.08 19.60 20.23 20.49 22.22 22.39 22.68 22.55 24.72 23.99 22.63 23.60 23.35 22.82 23.26 24.13 25.20 28.36 30.39 31.59 29.84 28.81 33.10 35.06
29.83 29.36 30.05 30.06 30.86 29.19 29.84 29.27 26.73 22.50 20.59 14.68 17.26 18.41 18.02 19.83 21.28 22.15 22.49 22.52 23.00 23.67 25.93 24.52 23.23 23.77 23.90 23.45 24.81 25.52 26.08 27.78 28.99 28.00 31.77 29.17 24.35 24.38
30.47 31.09 29.52 28.40 27.97 27.68 24.77 26.43 24.64 20.29 19.85 18.98 17.06 16.17 17.45 18.52 17.78 20.04 18.35 19.28 18.83 19.10 23.72 24.09 23.81 24.18 23.69 26.34 27.61 25.89 26.29 25.77 27.18 28.36 26.19 28.26 27.41 23.62
26.57 27.48 26.92 26.35 25.57 24.80 24.36 23.83 23.12 20.70 18.93 16.27 14.84 15.01 15.64 17.41 16.36 17.06 17.52 17.77 15.88 17.00 18.59 21.43 23.52 25.25 24.64 27.36 22.78 24.96 25.89 28.51 29.72 29.57 26.60 25.00 24.62 29.44
27.03 26.23 25.28 24.55 23.10 23.32 22.93 22.34 21.30 19.51 20.64 18.65 14.29 15.06 15.26 14.91 13.66 15.48 16.89 13.99 14.15 15.87 16.76 19.19 19.99 19.96 21.59 23.45 29.11 24.46 25.01 26.54 28.58 26.50 26.35 27.03 26.46 30.42
28.33 25.25 23.97 24.10 22.89 23.14 22.40 21.75 20.48 20.09 20.89 18.49 17.03 14.97 15.76 14.45 10.92 12.83 13.35 13.72 13.14 15.60 16.59 19.34 18.38 17.30 16.93 9.95 22.57 28.56 23.85 24.64 24.80 22.43 25.49 22.80 26.46 27.10
28.89 26.28 24.48 22.36 23.63 23.35 22.13 21.48 21.44 21.12 17.68 17.02 16.15 15.70 12.48 10.35 8.93 11.41 11.73 5.36 9.80 14.85 16.47 17.58 17.12 16.97 17.04 16.24 18.24 19.61 27.83 23.82 19.06 20.41 20.99 24.87 26.26 29.46
27.09 27.34 27.31 26.71 24.51 24.13 23.42 22.15 20.90 19.81 15.94 11.84 16.21 15.27 8.98 9.15 7.34 9.24 7.97 7.51 7.13 15.45 14.16 14.27 17.01 20.78 21.71 22.19 16.68 17.50 19.64 26.46 26.86 24.15 23.05 21.37 21.72 21.27
28.51 27.17 26.84 27.03 26.78 25.31 24.21 22.97 20.63 18.60 16.09 15.39 14.24 14.02 10.82 6.42 6.95 4.78 0.85 4.10 10.47 10.53 13.01 15.46 18.13 20.69 22.66 24.31 22.79 20.36 19.62 18.39 23.71 26.72 27.51 27.16 21.90 18.01
25.85 28.37 28.16 27.00 26.70 26.47 25.31 23.89 22.74 21.10 19.66 18.39 17.98 16.26 9.93 3.84 7.20 4.52 2.62 7.19 10.15 9.86 10.57 12.09 16.06 19.19 20.22 22.29 22.12 19.90 18.51 18.74 20.53 21.63 22.50 27.04 28.43 28.65

GFSNE_sfc_wetblb_066.txt.gz
Wetbulb
34.96 35.22 34.61 34.95 35.41 36.11 36.56 36.37 35.56 30.41 28.93 28.86 28.92 31.53 31.44 31.02 31.10 31.41 29.26 31.29 33.60 34.32 34.87 35.27 36.14 37.01 37.45 37.98 38.46 38.86 39.21 39.86 40.33 40.82 41.34 42.00 42.71 43.24
34.50 33.70 33.63 33.87 34.28 33.49 33.46 33.81 33.71 31.20 28.85 29.29 29.13 29.55 28.93 29.98 30.25 29.75 27.96 31.89 31.36 32.16 32.69 33.53 34.42 35.02 35.52 36.13 36.85 37.45 38.11 38.60 39.35 39.92 40.48 41.03 41.66 42.25
34.10 33.34 33.32 33.53 33.43 32.59 32.78 32.64 31.66 32.90 29.12 28.15 27.25 27.14 26.57 26.56 27.23 27.08 27.86 27.57 28.23 30.90 31.98 32.84 33.29 34.16 34.62 34.84 34.97 35.55 36.22 36.75 37.46 38.03 38.80 39.56 40.42 41.39
33.64 32.67 32.41 34.48 32.26 31.72 30.58 30.00 29.56 28.94 25.73 22.91 24.18 24.75 24.75 25.69 25.27 24.63 26.50 28.28 28.21 30.04 31.70 32.75 32.39 32.21 32.66 32.78 32.98 33.42 34.04 34.70 35.29 36.35 37.08 37.68 38.11 39.12
33.69 32.59 31.71 31.28 30.33 29.80 28.75 27.18 26.47 26.95 25.29 23.69 23.08 24.21 24.21 24.38 23.77 25.05 25.46 26.42 28.01 29.78 29.60 30.12 30.49 31.23 31.65 32.01 32.44 32.77 33.20 33.71 35.12 35.75 35.42 35.45 35.96 36.98
32.69 31.95 31.59 31.17 30.38 29.93 29.67 28.08 26.67 24.68 24.11 23.04 22.50 22.37 22.60 23.51 23.77 22.61 22.69 25.35 24.46 26.30 27.88 28.42 29.63 30.41 31.10 31.34 31.74 32.52 33.18 33.47 33.93 34.51 34.91 34.91 35.28 36.43
31.54 31.16 31.04 31.62 33.41 31.11 28.60 27.04 25.47 23.07 22.75 21.95 21.17 20.99 20.85 20.13 20.31 22.90 21.90 22.41 23.30 24.80 24.92 25.60 26.75 27.67 28.06 29.47 30.31 31.21 31.52 32.76 33.67 34.05 34.59 35.14 35.16 36.09
30.09 30.34 30.65 33.62 32.55 33.85 34.04 32.01 26.64 23.73 22.08 20.50 20.62 19.82 19.93 20.20 21.75 21.40 20.77 20.20 18.73 25.63 24.34 24.43 26.79 26.10 27.49 28.32 29.61 30.88 32.16 32.83 33.53 34.16 34.57 35.32 35.41 35.54
29.34 29.74 30.35 30.39 30.31 28.18 30.15 31.31 29.79 28.98 25.56 23.40 20.93 20.84 18.95 21.53 22.15 21.02 21.27 21.30 21.31 24.36 24.56 22.32 25.87 24.37 27.19 28.07 29.89 30.89 31.81 32.49 33.23 33.82 35.05 35.16 34.94 34.92
29.45 29.05 28.67 28.06 27.69 27.61 27.08 26.16 25.39 25.33 25.78 25.26 23.54 22.27 22.17 23.84 23.18 23.63 23.00 22.88 23.32 24.00 24.90 19.56 24.40 24.01 26.86 27.68 29.80 31.18 32.14 32.54 33.37 34.61 35.71 35.61 35.18 35.02
29.97 29.19 28.26 27.48 28.91 31.03 27.24 24.30 24.24 24.25 27.20 28.77 28.19 27.02 27.62 27.91 27.11 23.04 20.02 19.09 17.70 20.19 24.16 21.62 23.73 23.28 25.54 26.69 28.98 30.64 32.13 32.86 33.33 33.92 34.04 35.32 35.32 35.00
30.43 28.72 30.38 29.03 29.64 30.49 27.19 23.70 20.65 22.89 23.74 23.03 22.58 24.36 26.24 25.20 26.13 24.45 21.41 18.03 18.17 17.43 23.83 20.99 21.39 23.20 21.53 27.19 27.81 30.14 30.46 30.41 31.70 32.70 33.59 33.98 34.71 33.99
29.20 28.19 28.17 30.08 31.18 31.54 30.33 24.63 23.16 24.64 23.53 22.58 22.42 22.98 23.43 23.27 23.31 23.36 22.85 20.82 18.78 18.19 22.67 22.80 22.08 22.22 22.79 23.32 26.73 28.26 29.40 30.11 30.41 31.30 32.89 34.10 33.61 33.67
29.60 29.28 29.27 30.64 31.05 31.45 30.50 29.41 28.18 25.64 23.86 22.17 21.53 21.32 21.23 21.62 22.49 22.71 23.06 23.24 23.24 22.09 23.98 24.27 22.33 21.70 20.76 20.96 21.55 27.20 29.33 30.85 30.57 29.94 31.65 33.36 31.89 32.90
31.59 31.32 30.97 30.95 31.86 30.88 31.19 30.30 28.23 27.19 25.35 23.25 22.44 21.61 21.85 22.45 22.78 22.34 23.69 23.61 23.15 23.51 24.67 25.39 24.16 23.11 23.27 21.96 21.80 24.81 27.31 28.91 30.38 29.60 30.91 31.97 31.21 30.94
30.09 30.46 30.57 29.84 27.88 28.50 28.74 29.73 29.36 27.34 25.82 23.53 21.61 21.13 20.52 19.69 19.77 21.31 19.99 20.17 19.12 19.42 23.08 24.32 24.05 23.69 22.35 23.63 24.53 25.82 27.35 25.78 30.12 31.18 31.16 29.05 31.15 30.59
24.76 24.06 28.05 27.02 25.53 25.38 25.60 26.08 26.28 25.52 23.30 21.96 19.61 19.22 18.58 18.28 18.46 19.50 18.91 18.96 17.20 16.98 18.20 21.26 23.20 23.87 23.39 23.51 22.63 25.68 26.14 27.03 29.33 29.48 29.97 29.53 30.84 31.31
26.67 25.22 26.13 26.50 25.83 24.87 24.29 24.26 24.43 24.31 23.61 22.03 20.03 20.02 19.13 17.77 17.41 17.83 18.43 17.26 15.60 16.39 17.20 18.98 19.96 19.70 20.63 23.71 27.32 26.21 25.78 25.91 27.29 28.52 28.79 27.72 28.37 30.18
29.13 27.77 26.01 26.64 26.52 25.16 24.50 23.91 23.29 23.66 23.73 21.77 21.40 19.81 18.51 17.82 16.02 16.39 16.54 16.28 15.54 16.30 17.56 18.89 18.72 17.32 15.67 13.83 21.84 28.72 24.97 25.38 24.73 25.59 27.31 26.97 27.26 28.38
28.95 28.63 27.84 25.65 24.18 24.97 24.52 24.46 24.13 23.71 21.39 20.86 19.23 19.21 17.74 17.02 15.71 15.06 16.09 12.67 13.55 15.11 16.72 18.19 17.27 17.32 16.77 16.98 18.65 22.09 25.83 25.74 23.75 22.98 24.44 26.93 29.01 29.05
26.06 27.00 28.02 27.89 25.70 24.90 25.51 25.38 24.38 22.87 21.26 17.42 18.92 17.87 16.18 16.43 14.74 14.22 14.40 9.97 9.75 15.40 15.37 15.35 17.02 19.66 20.73 22.18 18.24 20.11 25.14 25.83 27.24 25.54 25.42 23.76 24.90 25.95
17.05 18.01 20.31 25.85 27.30 27.83 25.66 25.11 24.04 22.77 21.11 18.21 17.50 18.15 16.54 15.52 15.74 13.16 10.65 11.97 14.33 14.99 14.55 16.49 17.72 19.50 21.72 23.22 22.54 21.98 23.65 23.98 24.94 26.96 27.49 27.70 24.50 22.03
13.06 14.37 16.48 17.48 18.89 24.79 26.98 25.54 24.30 23.11 22.48 20.25 19.52 17.55 15.54 14.99 14.92 14.01 12.22 12.05 13.10 13.86 13.64 13.47 15.45 18.53 19.79 22.07 21.45 22.14 22.16 22.81 24.11 23.78 24.95 27.11 28.27 28.84

GFSNE_sfc_wetblb_069.txt.gz
Wetbulb
44.34 44.03 42.64 42.63 42.25 41.42 41.11 40.71 37.66 33.47 34.28 37.14 36.99 39.60 40.04 40.18 38.12 37.69 36.83 34.51 33.36 33.44 33.37 34.09 35.10 35.91 36.42 37.15 37.97 38.68 39.48 39.94 40.33 40.64 41.06 41.69 42.45 43.01
42.97 42.17 41.79 41.61 41.07 40.85 40.36 40.30 39.80 36.85 33.12 37.39 37.76 38.68 39.02 36.97 36.32 35.84 35.36 32.73 32.58 32.12 32.23 32.97 33.77 34.63 35.13 35.56 36.10 36.88 37.72 38.54 39.29 39.86 40.40 41.02 41.72 42.29
41.98 41.20 40.94 41.15 39.97 40.10 40.24 39.69 38.60 38.07 33.65 36.19 37.49 37.53 35.62 35.09 35.17 35.40 34.17 33.36 33.83 31.94 31.64 32.36 33.00 33.79 34.41 34.38 34.35 34.80 35.51 36.23 37.01 37.72 38.64 39.50 40.40 41.05
41.05 40.64 39.72 39.48 39.42 39.99 39.36 38.58 38.15 38.20 35.73 33.52 36.30 34.23 33.42 34.74 33.92 32.81 31.97 32.21 32.96 31.76 31.29 31.30 31.60 31.99 32.16 32.31 32.57 32.98 33.48 34.11 34.56 35.28 36.20 37.07 38.01 38.98
40.94 40.50 39.96 39.62 38.74 38.99 38.58 37.70 37.69 36.29 35.33 33.31 32.54 33.64 33.06 33.26 32.39 32.39 31.24 31.54 31.94 31.30 30.57 30.46 30.68 31.10 31.77 31.88 32.36 32.78 33.04 33.17 33.30 33.84 34.60 35.32 36.17 37.04
40.78 40.35 39.86 39.01 38.39 38.21 37.82 37.42 35.09 33.24 34.60 32.34 31.51 31.60 31.80 32.48 31.01 28.87 28.36 30.64 30.05 30.98 30.80 30.34 30.11 30.90 31.25 31.40 31.49 31.92 32.35 32.96 33.38 33.87 34.73 34.85 35.03 35.17
40.50 39.67 39.52 38.91 37.10 36.43 35.54 35.81 35.10 33.95 33.04 31.23 30.38 30.46 30.23 29.95 28.52 28.93 27.21 28.47 29.40 30.79 30.53 31.24 31.35 31.74 32.45 31.77 31.75 31.79 31.91 32.15 32.82 33.45 33.83 34.53 34.83 35.32
38.82 39.47 39.03 36.30 36.52 35.48 35.34 35.00 34.97 34.17 32.20 31.06 30.28 29.13 29.56 29.68 29.09 27.21 26.61 25.50 23.92 31.60 29.06 28.44 30.91 30.15 31.59 32.63 31.28 31.05 31.65 32.28 32.83 33.34 33.61 34.42 35.02 35.16
38.77 38.19 37.10 36.27 35.43 35.97 33.92 31.78 32.52 31.05 29.55 32.05 29.87 30.04 29.13 29.48 27.88 26.49 26.51 26.10 25.50 28.58 27.87 25.68 29.76 28.61 31.65 32.02 31.28 31.21 31.56 32.27 32.86 33.24 33.44 34.19 34.85 35.26
38.04 37.67 36.89 36.33 36.08 34.72 33.47 32.57 32.80 33.21 32.55 30.97 31.48 31.41 31.23 30.13 28.58 28.17 27.54 27.19 27.79 28.64 29.05 23.63 28.78 28.00 30.88 31.92 31.69 31.93 32.23 32.61 33.20 33.56 34.01 35.05 35.25 34.93
36.96 36.97 36.47 35.99 34.40 32.85 31.71 30.60 31.43 31.82 31.31 30.25 29.89 29.60 28.75 27.18 28.66 28.71 25.82 25.28 23.93 25.50 28.47 26.07 27.45 26.59 29.05 30.63 33.56 31.59 32.08 32.49 32.64 33.03 33.44 33.96 34.36 34.57
35.46 35.00 33.05 32.94 32.79 31.13 31.99 31.55 29.66 30.52 30.98 29.90 29.97 29.62 28.97 29.56 28.16 28.85 28.05 24.64 24.09 23.17 28.85 24.35 25.11 25.92 24.10 30.14 31.95 32.67 33.85 32.99 32.81 33.24 32.88 33.24 33.73 35.85
33.53 33.05 32.95 32.02 31.46 32.04 31.74 32.26 31.70 32.12 30.35 29.52 29.21 29.29 28.92 28.93 29.59 30.07 29.61 27.70 24.71 24.03 27.93 25.73 24.32 24.89 24.16 24.84 28.50 30.70 32.36 33.80 35.20 35.51 34.04 33.45 33.75 34.13
32.95 34.47 34.19 32.07 31.89 31.57 32.13 32.01 31.11 29.77 30.67 29.50 28.20 27.72 27.75 28.48 29.72 30.38 29.73 28.99 28.81 26.61 27.86 26.98 23.69 23.64 23.71 22.90 23.68 29.41 31.26 33.23 35.21 32.78 33.56 34.16 33.55 34.22
33.66 33.97 32.82 31.94 31.62 31.06 31.65 31.69 31.02 31.75 29.91 28.19 27.34 27.55 28.74 29.76 29.74 28.97 28.56 27.98 27.63 27.34 26.72 26.84 26.24 25.80 24.58 22.36 23.11 25.84 27.21 30.81 33.78 33.61 34.50 34.12 33.47 34.61
32.27 33.20 32.37 31.49 31.45 31.63 31.13 31.30 32.75 32.73 30.82 29.16 28.78 29.24 29.44 27.90 26.87 28.28 26.08 26.40 25.21 25.21 26.62 26.66 26.39 25.96 24.41 25.34 25.43 25.67 27.82 27.28 31.81 32.18 32.96 33.91 34.56 35.63
32.47 32.64 31.86 30.62 28.98 29.62 29.53 30.02 31.01 30.49 29.88 29.90 29.23 28.22 26.99 26.74 26.41 27.81 25.75 25.30 23.43 23.17 23.52 25.64 26.65 26.60 26.18 24.95 23.69 26.68 27.35 29.19 30.52 30.84 31.18 30.61 33.29 34.03
31.18 30.29 30.03 30.39 29.27 29.13 28.68 28.02 29.46 29.12 29.55 28.81 28.26 27.39 26.67 26.18 26.01 26.35 25.60 24.52 23.24 23.03 22.99 24.13 24.34 24.10 25.03 27.24 27.73 26.41 28.58 29.10 29.69 29.86 31.04 29.57 31.38 32.78
30.54 30.93 30.14 30.29 30.29 30.37 29.75 28.33 28.39 29.85 30.06 28.69 27.86 27.57 26.80 26.06 25.44 25.58 25.04 24.21 22.96 23.06 23.35 24.07 23.23 22.12 20.40 20.51 26.89 27.86 27.20 27.44 27.79 28.49 29.80 30.45 30.01 32.10
21.46 22.79 26.04 29.62 30.77 29.99 30.00 29.41 29.41 29.50 28.70 28.11 27.71 27.79 27.24 26.32 25.59 24.53 24.65 23.38 22.86 22.39 21.89 23.45 22.88 22.16 20.82 21.11 21.64 25.94 26.20 26.70 26.89 26.31 27.88 30.04 31.41 30.37
18.42 18.90 20.44 21.75 22.32 25.18 30.51 30.40 30.37 29.66 28.93 28.30 27.53 27.14 27.25 26.17 25.70 25.47 24.78 20.88 20.09 21.15 20.29 21.54 23.15 21.97 23.40 24.46 21.95 24.98 28.77 27.05 27.68 27.59 27.16 27.71 28.10 29.28
15.08 14.95 16.88 18.23 19.23 20.92 22.36 23.86 30.08 29.28 28.31 27.49 27.32 27.73 27.60 26.40 25.66 24.87 24.18 23.08 21.75 21.73 21.60 22.75 23.38 24.12 24.97 24.48 24.15 25.94 27.33 29.11 27.90 26.63 27.65 27.49 27.27 25.55
13.43 13.82 14.52 15.80 17.03 18.36 18.43 19.09 19.09 25.45 28.45 27.43 27.15 26.86 26.94 25.09 25.95 25.78 25.03 22.28 21.64 20.70 20.98 20.54 21.66 23.91 23.96 23.48 23.75 25.25 24.78 26.41 27.92 27.21 28.59 27.31 27.71 27.97

GFSNE_sfc_wetblb_072.txt.gz
Wetbulb
47.37 47.20 46.31 45.97 46.02 45.30 44.25 42.64 39.62 35.81 37.25 41.14 41.00 43.87 43.53 42.55 42.12 42.44 41.05 39.72 35.83 34.96 34.28 34.24 34.85 35.52 36.24 36.90 37.64 38.26 38.92 39.47 40.20 40.61 41.22 41.72 42.26 42.80
46.81 46.29 45.96 45.64 45.33 45.20 44.06 43.20 42.07 39.38 35.99 40.65 41.29 42.52 42.67 41.62 41.97 40.50 39.73 37.58 36.66 35.59 34.01 33.31 33.76 34.55 35.18 35.56 36.08 36.50 37.27 38.02 38.76 39.38 40.16 40.80 41.62 42.24
46.54 45.68 45.03 45.60 44.69 44.31 43.85 42.98 41.44 40.80 37.21 39.43 41.34 42.07 40.68 39.75 39.60 40.38 39.93 38.76 38.06 36.20 34.06 33.25 33.06 33.31 33.27 33.38 33.83 34.66 34.97 35.51 36.05 36.91 37.76 38.79 39.86 40.80
45.29 45.18 44.39 43.98 44.03 43.88 42.88 41.75 41.28 41.33 38.80 35.86 39.30 39.45 39.31 39.38 37.82 38.19 37.58 37.32 36.80 35.95 34.29 32.84 32.73 32.16 32.12 32.42 32.71 32.93 33.23 33.62 34.03 34.63 35.42 36.44 37.33 38.54
44.99 44.54 44.12 44.03 42.90 42.76 42.25 41.23 41.06 40.24 39.89 36.84 36.30 38.74 37.36 37.76 36.16 37.52 36.92 36.81 36.18 35.44 34.32 33.02 32.86 32.10 32.01 32.19 32.33 32.64 32.83 33.06 33.18 33.52 33.83 34.27 35.01 35.89
44.46 44.31 43.97 43.49 42.56 42.08 41.11 40.61 40.01 39.15 37.93 35.50 34.45 34.51 35.55 37.24 36.58 34.58 33.84 35.52 34.50 35.40 35.26 34.21 32.81 32.95 32.58 32.55 32.56 32.61 32.53 32.78 32.95 33.25 33.73 34.15 34.65 34.88
43.46 43.46 43.71 42.68 40.45 39.44 39.64 39.46 39.20 36.56 34.56 33.35 33.09 33.35 33.80 34.19 33.10 35.10 33.05 33.19 34.02 34.96 34.50 35.11 35.25 35.32 35.64 34.81 34.31 33.29 32.76 32.75 32.69 32.88 33.38 33.72 34.36 34.51
41.44 42.24 42.66 40.67 39.05 35.75 35.56 35.08 35.92 35.56 34.25 35.10 33.57 32.04 33.55 33.94 34.36 33.36 32.40 30.03 28.26 35.64 33.23 32.34 34.43 33.54 34.97 35.60 34.20 32.02 32.04 32.23 32.53 32.98 33.22 33.63 34.49 34.65
40.83 40.80 40.60 40.68 38.87 39.85 37.12 34.63 34.19 34.03 32.82 35.74 33.95 33.27 32.39 34.07 33.45 32.24 31.32 30.61 30.12 33.15 32.08 29.42 33.27 32.09 34.78 34.77 34.16 32.91 32.45 32.58 33.11 33.56 33.84 34.39 34.29 34.20
40.76 40.80 40.41 40.40 40.38 39.37 39.03 37.39 36.53 36.20 35.35 34.49 34.98 35.12 34.49 34.54 33.67 32.85 31.52 31.05 31.16 32.05 33.52 27.80 32.12 31.15 33.90 34.52 33.81 33.40 32.82 32.52 33.07 33.46 33.75 34.12 34.44 34.60
40.23 40.53 40.28 39.81 37.43 36.79 36.84 35.10 34.67 34.57 35.07 33.73 33.06 32.57 30.92 29.92 30.06 31.59 28.48 27.42 26.67 29.51 32.98 30.10 30.41 30.04 31.51 32.60 35.26 33.49 32.42 33.74 33.53 33.82 33.52 33.74 33.93 34.40
38.86 39.01 36.12 36.45 34.39 33.38 35.45 35.41 33.52 33.25 34.02 34.24 33.51 31.97 31.19 32.21 29.74 30.50 29.86 26.67 26.63 26.82 31.60 27.92 28.84 28.85 26.79 31.73 32.85 33.54 34.83 33.87 34.01 34.59 35.26 35.00 34.32 35.86
34.05 34.75 36.10 34.29 33.06 33.21 32.77 34.19 34.12 35.15 33.21 34.12 33.04 32.83 32.54 32.92 32.62 31.79 31.54 30.13 27.73 27.31 31.75 30.00 27.97 27.96 26.81 26.96 30.78 32.47 32.87 34.28 34.82 35.26 34.99 34.73 34.14 34.36
32.70 34.24 35.58 33.77 34.18 33.12 32.97 32.44 32.31 32.26 34.96 34.09 32.54 31.29 31.02 31.41 31.59 32.60 32.57 32.39 31.90 29.97 31.75 30.97 27.03 26.68 25.60 25.05 25.75 30.45 31.12 33.82 34.99 34.42 35.95 35.62 34.89 34.67
34.64 34.20 32.08 32.21 32.45 32.54 31.82 31.54 31.18 32.94 32.86 32.50 31.59 31.38 31.91 32.94 32.84 32.44 32.18 31.50 31.00 30.91 29.99 30.26 28.60 28.06 27.35 25.41 25.88 27.89 28.14 30.67 33.56 34.63 34.93 34.89 34.92 35.82
33.09 34.60 33.89 31.98 31.93 32.51 33.61 32.91 33.71 33.90 33.17 32.81 32.23 32.74 32.70 32.86 31.12 30.98 29.23 29.22 28.30 28.40 30.41 30.85 29.72 28.43 26.20 27.09 27.59 27.01 28.09 27.30 32.14 33.46 33.24 33.90 35.15 35.71
31.37 34.18 34.05 33.97 32.78 32.83 33.16 32.97 33.45 32.02 31.03 32.72 32.10 31.25 31.54 31.37 30.21 31.09 29.68 28.06 26.07 26.38 27.72 29.71 30.48 29.86 29.15 27.43 25.53 27.30 27.19 29.26 32.59 32.07 31.13 31.44 33.89 35.89
30.96 31.27 32.41 33.28 32.34 32.00 32.30 32.14 32.44 31.38 31.08 31.50 31.41 30.16 30.03 30.15 29.27 29.89 29.30 26.78 25.67 26.49 26.87 28.36 28.51 27.52 27.42 29.15 29.56 27.18 28.81 29.62 31.61 30.48 30.88 30.24 31.25 34.86
26.62 25.85 26.53 27.57 28.86 28.95 32.36 32.42 32.20 32.29 32.95 32.20 31.52 30.15 29.70 29.32 29.82 28.42 28.23 27.06 25.84 26.22 27.13 28.18 27.04 25.57 22.69 22.13 28.80 28.71 27.66 28.85 28.24 28.16 29.71 29.78 29.39 32.05
23.84 23.01 23.14 23.98 24.40 25.06 26.61 26.97 31.28 32.38 32.42 31.71 31.65 31.50 30.82 29.76 28.94 27.05 27.05 26.80 26.09 25.95 26.34 27.33 27.01 26.11 23.94 22.99 23.62 27.57 28.50 27.61 28.11 27.41 27.76 29.41 32.30 31.00
20.91 21.22 21.46 21.15 21.78 22.68 24.31 24.52 26.08 28.66 31.40 31.49 31.44 30.52 30.94 30.02 28.51 28.03 27.57 26.44 25.65 25.44 24.37 25.28 27.80 24.05 25.99 26.68 23.97 26.99 31.04 28.73 28.38 27.95 27.48 27.66 28.66 30.66
18.77 18.59 19.20 19.32 19.83 20.80 21.95 22.12 22.55 24.30 25.59 30.34 30.87 30.55 30.94 30.41 28.77 28.09 27.78 27.07 25.30 25.18 25.81 27.30 27.59 26.73 26.56 24.96 24.46 27.01 29.81 30.92 29.48 27.54 27.74 26.79 27.15 25.21
16.94 17.02 17.05 17.75 18.21 18.72 18.67 19.20 19.88 21.12 22.30 24.00 25.35 30.29 30.51 29.77 29.32 29.06 28.49 27.31 26.02 25.42 25.11 24.74 25.95 26.40 25.79 25.69 24.82 25.59 27.45 27.92 29.77 28.55 30.89 27.46 27.23 27.55

GFSNE_sfc_wetblb_075.txt.gz
Wetbulb
49.03 48.67 47.44 47.49 47.15 46.24 45.47 44.25 40.93 36.40 37.45 41.34 41.53 45.53 45.88 45.55 44.71 43.97 43.20 42.77 38.64 37.91 37.82 36.26 35.89 36.01 36.48 36.92 37.32 37.95 38.53 39.16 39.66 40.02 40.45 41.19 42.00 42.65
48.34 47.55 47.31 47.20 46.46 46.07 45.30 44.58 43.32 40.67 37.53 40.92 41.81 44.54 45.30 43.43 44.36 43.11 42.47 42.04 40.20 39.29 38.47 36.91 35.43 35.15 35.34 35.52 35.68 35.99 36.64 37.77 38.41 38.78 39.35 40.16 41.22 41.89
47.75 47.04 46.63 46.78 45.38 45.30 45.14 44.48 42.82 42.70 39.22 41.52 43.02 44.27 43.53 43.31 43.10 43.22 42.56 41.03 41.37 39.35 38.52 35.99 34.67 34.51 34.11 34.04 34.10 34.24 34.62 35.15 35.72 36.41 37.17 38.22 39.38 40.19
46.83 46.72 45.79 45.36 45.27 45.20 44.89 43.96 43.48 43.37 41.09 39.02 41.64 41.79 42.13 42.61 41.82 41.06 39.63 39.73 40.04 38.80 38.08 35.02 34.63 34.39 33.71 33.28 33.08 33.14 33.43 33.71 34.02 34.70 35.30 35.85 36.90 38.00
46.47 45.30 44.83 44.68 44.41 44.96 44.66 43.63 43.50 42.15 42.25 40.42 39.53 41.81 41.07 41.06 40.14 39.82 39.02 39.54 38.89 39.05 37.60 36.13 36.17 35.22 34.01 33.83 33.52 33.29 33.38 33.31 33.12 33.27 33.62 33.84 34.69 35.51
45.14 44.76 44.28 43.84 43.33 43.96 43.50 43.59 42.65 41.74 41.03 39.50 38.78 37.80 37.76 38.87 38.72 36.70 35.85 37.64 36.53 37.48 37.07 35.87 36.32 36.62 36.42 35.67 35.02 34.09 33.83 33.90 33.46 33.21 33.27 33.75 33.91 34.13
43.63 43.65 44.17 43.24 41.45 41.22 41.79 42.02 41.29 39.64 38.90 37.82 36.44 35.48 35.88 35.68 34.86 36.31 34.75 35.56 36.18 36.18 35.15 36.27 36.44 36.07 36.46 36.78 36.60 36.54 34.82 33.94 33.29 33.08 33.12 33.24 33.83 33.92
40.98 41.78 42.54 41.21 40.78 37.59 37.50 36.56 37.62 37.95 36.86 35.71 35.11 34.14 34.86 35.96 36.38 34.77 33.74 32.33 30.12 36.87 34.05 33.73 35.42 33.88 35.37 36.28 35.75 33.73 33.06 33.02 33.10 33.21 33.49 33.51 33.93 34.27
40.39 40.85 40.46 41.06 40.18 42.04 38.84 35.37 35.14 34.58 33.00 36.75 34.45 34.47 34.73 36.03 35.35 33.44 32.58 32.13 31.12 33.55 33.43 30.68 34.00 33.12 35.32 35.07 35.71 34.68 34.16 33.86 33.10 33.33 33.57 34.30 34.21 34.32
40.86 41.00 41.58 41.79 42.06 40.47 40.41 39.85 39.83 39.32 37.73 36.58 35.95 36.00 36.72 36.97 35.76 34.56 33.39 32.30 32.41 32.61 32.98 28.62 33.12 32.26 34.87 35.29 34.86 35.75 35.23 34.51 33.21 33.25 34.12 34.16 34.35 34.13
40.15 40.02 39.93 39.92 38.08 36.65 37.46 37.54 37.28 37.57 38.00 35.69 35.68 35.61 33.75 31.83 30.81 32.76 30.92 29.52 28.56 28.97 32.68 30.68 31.69 30.40 32.07 32.65 34.87 33.22 32.89 33.51 33.86 34.39 34.58 34.84 34.92 34.75
36.38 36.58 34.43 34.75 32.89 33.74 35.63 35.40 34.10 34.17 34.55 35.84 36.30 34.65 33.44 33.68 31.17 31.65 31.51 28.58 27.80 27.22 31.35 29.68 29.39 29.59 26.97 31.88 32.62 33.87 34.35 33.93 33.99 34.44 35.04 35.31 35.36 34.67
32.78 33.68 35.45 32.98 32.79 33.59 33.86 34.39 33.50 34.87 33.80 34.66 35.08 35.18 35.45 34.48 34.42 33.70 32.83 31.24 28.52 27.78 31.61 31.15 28.72 28.25 27.42 27.26 30.24 32.45 33.24 33.70 34.12 34.66 34.78 35.22 35.30 35.33
31.55 34.15 35.01 33.76 33.27 32.58 32.49 32.59 32.62 32.13 33.67 32.42 33.08 33.31 33.39 33.66 34.34 34.47 33.68 33.36 33.29 31.39 32.43 32.73 29.58 27.50 26.05 25.18 25.06 29.76 31.94 33.39 33.50 33.24 34.71 35.15 35.07 35.35
31.83 32.38 31.93 32.75 32.91 32.98 32.37 31.85 31.55 32.79 32.19 31.41 32.10 33.10 33.67 34.82 34.70 33.94 34.01 33.88 33.46 33.21 32.36 32.59 30.60 28.65 27.87 25.99 25.77 27.52 28.09 31.22 32.85 32.55 34.23 34.10 34.35 34.87
30.09 31.35 30.45 30.52 31.70 32.27 32.56 34.51 33.41 32.99 32.72 32.23 32.56 33.75 34.75 34.07 33.18 33.67 31.90 31.59 29.94 30.54 31.82 32.35 31.65 30.45 27.45 27.30 27.06 26.96 29.03 27.10 31.03 31.99 32.97 34.20 34.46 35.35
27.81 30.24 31.69 31.60 31.67 32.47 33.04 33.74 34.01 34.00 33.09 33.19 33.05 32.78 32.66 32.47 32.38 33.21 32.02 30.10 28.49 27.85 27.88 30.76 32.05 31.63 30.57 28.63 26.75 27.50 27.84 28.93 31.17 31.73 31.42 30.75 32.96 34.68
26.02 28.46 27.05 27.56 26.63 27.41 29.82 29.41 32.84 32.90 33.57 33.28 33.03 31.77 31.41 31.34 31.02 31.64 31.06 29.63 28.01 27.38 27.18 28.75 29.14 28.90 28.52 29.71 30.66 27.96 29.59 29.68 31.25 31.40 30.62 29.05 29.92 33.94
25.58 25.51 24.41 23.82 24.30 25.14 26.00 26.81 27.25 28.85 31.01 32.93 32.30 32.35 32.02 30.98 30.64 30.24 30.12 29.03 27.89 26.90 27.15 28.98 28.00 26.27 22.89 22.81 28.54 30.16 27.70 28.25 28.84 28.13 30.16 29.54 29.49 30.54
24.02 23.09 22.71 22.40 22.16 21.92 22.85 23.42 24.70 25.83 28.00 27.42 32.49 32.52 32.26 31.67 30.53 29.64 29.19 28.35 27.70 26.72 26.35 27.52 27.49 26.82 24.81 23.84 24.15 28.15 29.46 27.65 27.39 27.75 27.78 29.28 30.81 30.97
21.76 21.23 21.40 21.07 20.67 20.54 21.85 22.31 23.32 23.64 24.40 25.56 27.03 30.28 31.90 30.75 30.24 29.83 29.42 27.96 27.81 26.66 24.85 25.38 27.85 25.31 27.66 26.83 23.26 25.97 30.68 30.30 29.53 27.65 27.18 26.61 27.09 28.79
19.84 19.02 19.45 19.26 19.16 19.16 19.99 20.65 20.79 21.11 21.99 23.18 23.94 25.70 28.69 30.54 30.06 30.11 29.37 28.34 26.81 26.61 25.81 27.64 28.86 28.17 26.43 24.34 24.01 26.09 28.40 29.96 29.52 28.89 28.30 26.71 26.21 23.19
18.23 17.93 17.97 18.36 18.57 18.60 18.15 18.25 17.93 18.38 19.20 20.62 21.33 21.00 21.85 23.53 29.47 30.57 29.82 28.69 27.69 26.87 26.09 25.66 26.63 27.25 25.58 25.37 25.23 25.42 26.41 28.33 29.18 29.13 28.90 28.62 28.15 28.05

GFSNE_sfc_wetblb_078.txt.gz
Wetbulb
47.26 45.97 45.08 44.87 43.99 42.95 41.52 39.96 36.37 31.40 32.91 35.44 35.87 39.46 39.97 39.97 40.46 38.38 38.06 42.80 42.39 39.91 38.84 38.84 39.35 38.31 37.53 36.96 37.45 37.75 38.43 38.89 39.28 39.97 40.33 40.94 41.67 42.37
46.41 45.53 44.51 43.94 43.27 42.10 40.97 40.54 39.34 36.35 33.60 36.18 36.48 37.92 39.60 41.96 41.47 40.34 39.74 43.05 41.08 39.50 39.06 40.09 40.00 38.07 36.87 36.60 36.37 36.46 36.89 37.06 37.69 37.94 38.60 39.43 40.06 40.66
45.79 45.04 44.02 45.32 42.40 41.61 41.14 40.29 39.02 37.76 34.66 36.43 37.20 37.81 37.06 37.14 38.70 38.47 40.39 37.58 38.61 40.86 40.50 40.08 39.43 37.54 36.32 35.76 35.35 35.23 35.29 35.51 36.00 36.33 36.86 37.63 38.41 39.29
44.98 44.59 44.47 45.20 41.55 41.43 40.48 39.09 38.54 38.09 36.45 34.83 36.15 35.65 35.71 36.48 36.77 36.29 38.79 40.07 36.97 39.66 39.68 38.93 38.11 36.96 36.74 35.78 35.23 34.93 34.68 34.49 34.72 34.93 35.27 35.57 36.37 37.13
43.98 42.86 42.14 41.57 40.01 39.75 39.63 38.66 38.26 40.49 36.65 33.74 34.94 34.86 34.45 34.97 33.16 33.53 34.99 35.16 38.13 40.42 39.32 38.23 37.57 37.50 37.25 36.71 35.90 35.78 35.41 34.72 34.61 34.20 34.04 33.99 34.16 34.91
42.75 41.65 41.14 40.91 39.58 38.82 39.21 37.61 38.34 35.41 34.21 32.84 32.62 32.26 31.59 32.44 31.71 30.29 31.33 32.90 33.44 37.59 37.62 36.12 36.66 37.67 38.30 37.30 36.57 36.17 36.14 35.81 35.42 35.08 34.72 34.23 34.15 33.79
39.93 41.19 40.54 40.99 40.81 38.85 38.09 35.93 35.59 35.56 34.83 33.38 32.58 31.87 30.56 30.17 29.38 30.50 32.21 30.65 31.57 32.84 31.12 29.98 29.82 30.65 32.06 35.51 36.51 37.37 36.74 36.83 36.66 35.77 34.24 33.98 33.85 33.70
37.32 38.01 38.62 39.23 38.63 37.67 36.74 36.50 36.04 34.39 33.76 33.52 33.62 32.14 30.55 29.26 29.94 29.96 32.69 30.41 25.77 31.08 30.44 26.63 28.86 27.60 29.62 30.38 35.46 34.82 34.91 33.65 33.71 33.79 33.86 33.98 34.26 34.53
36.08 36.29 37.48 39.72 37.94 38.34 37.11 36.03 34.69 35.02 33.19 34.70 33.11 32.11 31.79 30.79 29.86 28.94 29.43 27.63 25.95 27.84 26.55 24.23 26.83 25.60 29.10 33.72 35.45 35.43 35.22 35.33 34.86 34.50 33.90 33.96 34.14 34.28
37.06 37.07 36.42 35.80 35.95 34.83 32.98 31.78 33.20 34.84 35.58 34.94 33.56 33.31 34.31 33.43 30.57 30.24 29.19 28.19 27.34 27.38 27.99 21.60 25.49 26.12 28.76 29.45 35.01 35.44 35.12 34.80 35.38 34.65 34.28 34.30 34.34 34.26
35.55 34.84 34.52 32.19 33.99 34.58 30.29 29.50 30.16 31.67 35.67 36.67 36.66 36.11 36.10 35.67 31.87 28.34 24.71 24.11 22.60 25.55 26.76 24.45 25.67 26.18 26.08 25.84 28.05 34.67 34.19 34.26 34.39 34.58 34.60 34.72 34.77 34.74
31.16 32.33 32.82 32.03 32.51 32.70 29.91 29.33 28.46 29.50 30.55 32.85 32.61 34.16 35.33 33.89 32.43 29.29 27.74 25.10 25.09 22.54 26.44 23.87 24.59 25.96 22.51 25.88 26.02 26.93 27.27 32.17 34.02 34.37 34.49 34.82 34.77 32.65
27.84 28.33 29.23 32.33 32.88 33.06 32.61 30.34 29.95 31.02 30.38 29.92 30.56 31.70 32.95 34.18 29.91 29.45 29.65 28.32 25.58 24.74 27.35 25.73 23.07 23.39 21.81 22.18 23.57 25.42 25.67 26.65 27.78 29.30 33.60 34.36 34.82 34.26
26.64 27.39 28.52 31.15 31.20 31.31 31.56 32.13 32.31 31.13 31.03 29.92 29.80 29.69 30.05 31.79 33.64 33.04 31.25 29.96 29.20 28.01 28.31 28.83 24.67 24.02 23.52 21.42 21.52 23.55 24.42 25.71 25.57 27.60 27.33 31.17 34.15 34.89
26.40 27.88 29.51 29.58 29.90 29.49 31.44 32.22 31.46 29.96 30.72 29.37 29.23 28.98 29.32 32.27 32.86 32.56 33.21 32.56 30.37 29.42 30.84 29.81 28.42 27.64 24.41 22.29 22.07 23.00 22.49 24.13 26.66 25.87 25.74 28.57 29.06 28.58
24.86 24.62 25.01 26.56 27.94 29.37 28.53 29.91 29.16 31.69 31.31 30.00 29.64 29.44 30.00 30.73 32.44 32.41 29.99 30.08 28.81 27.92 29.63 30.18 29.36 27.23 24.82 25.15 24.23 22.77 23.78 21.03 24.02 24.71 26.24 25.17 29.37 28.21
21.65 23.35 23.90 24.61 24.43 24.43 25.01 26.29 26.90 27.96 27.34 30.09 29.73 28.87 29.04 28.52 28.90 28.78 27.98 29.70 28.38 24.92 26.91 28.19 29.25 28.88 28.49 26.86 23.65 24.10 24.31 24.98 25.12 26.76 28.42 28.75 26.01 27.46
21.77 20.68 20.50 17.14 18.18 21.16 21.95 22.66 23.34 23.65 24.32 25.18 26.70 30.56 28.79 27.14 26.56 27.62 27.45 28.75 26.08 26.26 26.79 26.73 26.09 25.87 26.75 27.27 29.22 24.87 24.83 25.33 26.77 26.20 26.17 21.38 24.97 26.16
19.78 19.18 15.40 15.60 16.43 19.92 20.79 20.40 20.62 21.96 23.34 23.42 23.27 25.29 28.45 28.08 26.33 27.48 28.03 28.67 27.06 26.30 26.11 25.79 25.16 23.86 21.16 14.18 23.34 30.48 21.41 23.96 23.47 20.63 22.81 23.38 19.65 25.25
20.34 18.65 15.19 16.64 17.81 18.35 18.46 18.29 18.87 19.46 20.20 20.43 20.62 22.29 23.97 25.20 28.61 28.53 28.02 26.47 27.03 26.86 25.71 25.33 24.37 24.65 22.59 18.22 14.91 18.29 29.94 23.88 22.00 19.83 23.88 23.08 24.65 28.68
18.93 18.14 16.30 16.78 16.74 17.36 17.40 17.57 16.90 17.52 16.76 17.52 18.68 20.52 20.72 21.26 22.08 27.88 28.17 27.91 26.15 26.62 25.71 24.10 24.57 25.35 24.72 20.00 10.82 13.05 18.71 30.29 28.58 24.59 23.64 18.56 20.83 22.13
15.43 16.06 16.29 16.44 16.00 16.61 16.11 15.71 15.46 15.35 14.98 15.71 15.78 18.04 18.40 18.06 17.88 20.58 24.49 27.67 25.95 25.15 25.00 24.85 25.84 25.23 23.53 21.62 17.06 13.04 18.81 22.42 29.21 30.43 29.19 25.76 17.29 14.06
11.22 14.99 16.56 12.97 14.09 14.00 14.35 13.68 13.79 13.27 13.42 14.23 14.79 14.28 14.79 14.43 16.16 17.92 19.69 27.07 26.46 26.03 23.58 23.34 24.55 24.86 24.41 23.34 19.83 18.08 18.01 16.95 25.49 26.89 25.45 28.43 28.59 28.29

GFSNE_sfc_wetblb_081.txt.gz
Wetbulb
45.26 45.93 45.76 44.65 44.09 43.62 42.20 39.37 36.49 30.28 31.18 34.04 34.64 37.96 37.89 37.87 39.19 40.54 37.63 42.17 42.38 42.39 42.06 41.61 41.34 41.21 40.73 39.94 38.98 38.41 38.23 38.46 38.65 39.15 39.60 40.10 40.88 41.80
47.02 46.50 44.67 44.09 43.87 43.28 41.74 40.29 37.66 35.22 33.64 34.75 35.21 36.24 37.46 40.22 39.92 38.99 37.03 41.43 42.69 42.00 41.08 40.87 41.12 41.02 40.90 39.67 38.36 37.65 37.48 37.18 37.53 37.79 38.18 38.53 39.29 40.10
46.46 45.22 43.95 43.30 42.49 41.20 39.97 39.24 38.02 36.70 34.00 35.02 35.13 36.04 34.63 35.29 37.20 36.93 37.53 37.70 38.28 41.52 40.24 40.36 40.47 40.47 40.65 39.35 37.87 37.10 36.83 36.37 36.68 36.82 36.87 37.26 38.05 38.84
44.84 44.39 42.90 43.75 40.96 40.35 39.17 38.13 37.11 37.02 35.66 35.20 34.96 33.63 34.63 36.79 36.58 34.60 38.06 39.66 36.99 39.60 40.49 40.65 40.54 40.08 39.08 38.16 37.30 37.21 36.37 36.10 36.05 35.89 36.05 36.11 36.56 36.68
43.87 41.71 41.55 40.23 37.86 37.51 37.43 36.82 36.78 38.61 35.26 32.53 31.96 32.42 32.30 32.69 31.85 32.44 33.04 33.65 37.16 40.05 39.60 39.11 39.89 39.75 38.93 37.73 37.58 37.08 36.95 36.68 36.38 35.53 35.18 35.07 35.39 35.53
41.84 40.18 39.48 38.48 37.40 36.53 36.50 35.42 36.22 34.12 33.18 31.16 30.34 29.96 30.03 30.87 30.09 29.05 28.74 29.81 30.75 36.23 37.54 36.32 36.58 38.31 39.04 38.46 37.92 37.94 37.40 37.27 36.96 36.24 35.72 35.18 34.87 34.76
37.14 37.99 37.69 38.32 39.70 37.57 35.90 33.18 32.28 30.75 30.10 29.85 31.36 28.25 27.79 27.53 27.73 28.41 28.76 28.92 29.35 31.18 31.67 33.28 29.43 28.96 29.66 33.55 35.30 37.79 37.44 37.35 37.14 37.45 36.62 36.01 35.50 34.61
34.53 34.84 35.17 37.25 36.63 36.58 36.16 35.38 33.58 30.31 28.91 27.89 30.12 29.89 30.59 28.86 29.47 29.05 27.56 28.55 24.92 30.22 28.40 26.11 27.37 26.12 27.88 28.30 33.81 35.53 36.51 36.13 35.58 35.57 35.44 35.02 34.67 34.40
32.98 33.06 34.65 37.76 35.67 34.30 33.40 33.04 32.05 33.90 31.56 30.07 29.95 30.62 30.85 30.00 30.46 31.74 29.19 28.62 27.27 27.55 26.21 23.46 25.15 24.41 27.08 31.24 34.66 35.59 35.79 35.73 35.94 35.84 35.37 34.82 34.14 34.08
34.19 33.44 32.12 31.48 31.70 32.30 30.31 28.01 28.13 29.30 30.98 31.95 30.43 31.46 32.18 33.80 33.74 33.06 32.18 28.54 26.96 26.64 26.27 19.79 23.70 23.88 25.48 26.99 33.05 35.19 35.74 35.12 34.62 34.63 35.05 34.84 34.29 34.13
32.94 32.19 31.69 29.56 32.03 33.94 29.72 27.96 28.49 28.94 33.26 34.38 34.60 34.84 35.68 35.67 35.72 33.86 29.71 27.71 20.57 23.93 25.95 23.48 24.81 23.56 24.97 25.02 27.62 33.06 33.87 34.10 34.37 34.63 34.43 34.52 34.35 34.24
28.82 29.84 30.71 30.60 31.75 32.15 29.11 27.61 26.16 27.19 28.10 28.90 29.98 30.65 31.93 31.94 33.71 33.66 32.07 27.75 24.73 20.20 25.88 24.05 23.34 23.21 19.79 24.28 25.10 25.77 24.93 29.25 31.49 31.82 32.80 33.89 34.17 31.38
26.99 27.07 27.28 29.66 30.85 30.72 30.78 27.81 27.79 29.70 30.37 30.96 31.38 30.74 30.79 30.68 31.10 32.63 31.58 29.58 27.90 25.70 26.78 25.78 22.49 22.44 21.15 21.95 23.87 25.60 23.76 24.43 24.70 26.28 30.48 31.75 32.73 32.89
25.62 26.18 26.55 28.05 28.50 29.09 29.39 30.63 31.58 29.98 30.61 30.03 29.68 29.24 28.75 29.55 30.29 32.16 31.56 30.09 30.77 29.51 28.46 28.32 21.09 22.29 21.33 20.80 21.46 24.11 22.30 23.04 21.54 23.95 25.55 28.78 31.09 33.02
25.31 25.33 25.70 26.61 27.27 27.10 29.04 28.69 27.19 26.13 26.32 26.01 28.36 29.68 29.98 30.04 29.26 30.54 33.09 32.21 30.61 29.69 29.54 27.57 25.73 25.95 25.29 24.08 22.52 22.28 18.21 21.25 22.81 22.82 21.74 24.58 26.00 27.45
23.81 23.27 23.42 24.64 25.59 24.78 24.30 24.85 24.90 24.05 23.81 24.07 23.02 25.51 29.09 30.22 29.06 31.70 31.05 31.68 30.20 28.86 29.52 28.83 28.59 28.62 26.79 25.03 24.29 23.47 23.81 17.66 21.98 22.51 25.63 24.22 26.53 27.06
21.49 21.47 22.06 22.73 22.81 22.25 21.83 22.20 22.22 22.18 20.92 21.03 22.30 22.20 24.08 26.40 28.85 29.83 30.70 29.52 28.61 27.07 26.73 27.02 28.87 29.69 28.71 27.04 23.89 24.23 23.79 22.89 24.13 23.21 24.55 26.22 26.40 26.03
21.01 18.69 15.57 12.95 15.05 18.84 18.06 18.09 18.71 18.50 19.23 19.93 19.69 20.47 20.94 23.09 23.17 29.44 29.68 27.79 27.94 27.23 26.24 25.74 27.34 26.32 24.54 26.73 29.14 24.90 21.13 22.45 24.87 25.18 24.54 19.68 22.11 24.10
18.16 17.61 11.67 10.08 10.84 17.06 17.12 16.60 15.27 16.82 18.45 18.22 16.73 17.24 19.24 20.30 21.10 20.92 27.80 27.95 27.37 26.93 24.72 25.72 26.58 24.99 20.59 16.11 23.92 30.56 24.09 23.07 22.12 20.02 21.51 18.83 21.39 23.08
19.80 16.75 13.09 13.08 14.09 16.35 15.80 15.08 15.10 14.30 14.89 14.66 14.11 14.91 15.70 17.15 16.79 18.27 18.74 26.60 27.59 26.64 26.14 26.31 25.47 24.81 21.05 19.10 17.13 18.02 29.07 20.45 18.28 17.45 18.49 21.15 23.05 27.33
17.72 16.40 12.58 11.68 11.56 13.16 6.89 7.52 4.86 5.89 8.17 4.87 11.05 13.48 13.36 13.90 13.96 15.07 16.26 18.28 20.88 26.85 25.20 23.93 25.85 26.15 25.24 20.53 14.22 13.71 15.02 26.70 26.74 21.44 21.44 18.48 19.89 20.90
14.12 13.28 13.21 11.85 10.98 8.41 3.05 3.45 7.60 3.86 9.66 7.98 9.46 11.98 11.12 11.29 11.80 12.45 13.96 14.73 16.99 23.64 25.80 25.82 26.14 24.68 23.02 21.43 18.03 11.76 14.08 16.66 26.62 30.30 28.58 25.86 17.08 13.00
8.39 8.25 7.24 5.69 6.53 3.70 7.14 0.91 2.20 -0.01 4.48 8.12 11.09 9.09 9.15 8.00 10.60 11.84 11.81 13.03 16.90 18.52 24.66 23.92 24.93 25.12 24.25 23.93 21.10 17.05 15.98 15.16 19.72 24.12 23.33 28.60 29.23 28.11

GFSNE_sfc_wetblb_084.txt.gz
Wetbulb
46.33 46.33 45.92 46.12 45.73 43.98 42.74 38.68 35.31 30.82 30.95 33.98 34.48 38.40 38.52 38.03 39.08 38.20 40.10 42.71 44.12 43.05 42.88 43.66 44.61 43.67 43.20 42.73 42.03 41.83 40.80 40.26 39.33 39.29 39.35 39.91 40.28 40.74
46.49 45.94 46.42 45.87 44.76 44.62 41.90 39.68 37.19 34.97 31.51 34.74 35.77 36.41 37.44 39.25 39.45 39.13 38.10 42.31 42.86 42.56 41.83 42.40 42.93 43.25 42.94 42.41 42.03 41.47 40.31 39.35 38.74 38.24 38.02 38.52 39.00 39.56
46.90 46.63 46.21 45.56 44.59 41.98 40.35 38.74 37.35 36.02 33.31 35.12 35.15 35.72 34.11 34.68 36.35 37.00 37.01 36.01 36.83 41.15 41.75 41.88 41.46 41.56 41.26 41.46 41.40 41.37 39.56 38.72 38.18 37.87 37.87 37.95 38.30 38.40
46.28 45.76 45.30 45.46 42.46 40.78 38.69 37.55 36.54 36.05 33.79 32.98 33.74 33.25 33.30 34.43 34.22 34.14 37.12 38.32 36.49 39.96 41.67 41.72 41.48 41.09 40.52 40.10 39.88 39.95 38.65 38.51 37.63 37.22 37.47 37.27 37.59 37.96
45.46 44.73 43.72 42.26 38.85 36.73 36.42 35.85 35.36 37.26 34.69 31.82 31.77 31.88 31.96 31.66 31.60 31.91 31.90 32.13 34.75 39.34 39.63 39.94 40.61 40.72 40.72 39.65 39.48 38.58 37.90 37.49 37.37 37.07 36.87 36.52 36.33 36.72
44.35 42.62 40.88 38.24 36.17 34.83 34.58 33.54 34.06 32.02 31.51 29.78 28.65 29.16 29.24 30.31 29.18 28.79 28.86 29.01 29.84 34.57 36.94 36.14 36.95 37.94 39.66 39.46 39.06 38.48 38.28 38.18 37.51 37.22 36.91 36.14 35.73 35.79
38.71 37.03 36.33 37.43 38.63 36.01 34.00 30.91 29.86 28.32 27.82 27.02 27.34 26.93 26.83 26.84 26.91 28.71 28.12 28.34 28.32 29.91 31.28 31.81 31.63 31.62 33.56 36.82 37.15 38.18 37.92 37.88 37.53 36.98 36.74 36.48 36.07 36.28
34.15 33.71 35.61 35.99 36.06 35.42 34.71 34.44 31.83 27.97 26.58 25.72 26.27 26.64 27.55 27.64 27.79 28.42 31.31 29.95 29.73 29.34 31.34 29.42 27.95 26.75 28.36 27.70 32.73 34.93 35.92 36.35 37.01 36.46 36.06 35.82 35.75 35.56
32.02 33.24 34.70 34.60 32.93 31.26 31.72 31.92 31.08 32.49 30.30 28.31 26.39 26.52 27.41 27.66 27.96 29.32 30.66 30.55 30.21 30.31 28.32 24.55 24.73 24.53 27.60 29.75 34.00 35.08 35.60 35.90 35.85 35.64 35.48 35.10 35.16 34.54
33.39 31.69 30.47 28.97 29.87 31.11 29.69 28.43 29.14 29.40 30.33 30.44 29.58 29.29 29.20 29.43 29.02 30.90 31.14 31.99 32.58 28.40 28.54 26.27 23.65 23.79 24.95 25.94 31.82 33.74 34.87 35.80 35.21 34.55 34.54 34.49 34.53 34.50
30.97 30.91 29.92 28.52 31.41 32.44 29.05 27.85 27.19 27.77 31.37 33.37 33.81 33.88 34.04 33.86 33.91 31.90 29.48 27.61 26.67 26.82 27.40 27.65 24.03 23.55 24.12 24.50 26.61 32.95 34.02 33.56 32.38 33.08 32.80 32.92 33.64 34.09
28.38 29.13 29.93 29.04 30.19 30.82 27.55 26.47 25.65 26.83 27.41 28.45 30.05 30.57 32.46 31.91 31.88 30.99 30.71 26.83 26.40 26.27 28.08 26.95 25.19 22.93 19.47 24.09 24.33 24.97 24.73 29.07 30.83 31.13 31.49 32.17 32.32 28.60
26.74 26.67 27.03 27.95 28.10 28.59 29.19 27.81 28.23 29.85 29.39 28.38 28.67 29.49 30.67 31.11 30.96 31.19 30.89 30.08 28.75 28.55 27.47 28.63 23.89 23.29 21.29 21.40 22.70 24.64 24.86 24.46 24.04 24.87 29.53 30.57 31.24 30.50
25.03 25.66 26.07 26.38 27.22 28.10 28.60 28.18 27.51 27.02 25.38 24.42 24.19 24.23 25.30 27.00 30.44 31.18 31.20 31.78 32.38 30.93 31.58 30.33 27.22 25.09 22.89 19.38 20.25 23.59 24.12 23.08 19.54 23.20 23.98 27.04 29.43 30.54
24.93 24.84 25.28 25.99 26.42 26.75 26.36 25.38 25.13 22.81 21.54 20.40 21.09 21.15 23.23 24.64 27.05 30.40 31.08 31.36 32.04 31.62 31.28 30.51 29.26 27.57 24.95 21.02 20.56 21.51 21.63 23.17 22.11 21.49 21.30 22.95 23.96 24.18
24.31 24.11 24.01 24.73 24.82 24.78 24.22 24.07 23.94 22.30 20.94 19.97 18.78 21.31 21.39 22.27 22.70 25.48 26.09 29.79 29.42 29.57 30.54 30.75 29.83 28.59 25.55 25.03 25.71 25.19 25.10 19.66 20.98 20.76 24.28 22.66 24.99 27.77
22.51 22.28 22.56 22.24 21.27 21.14 21.36 21.20 20.76 20.22 18.46 17.97 18.23 16.37 17.87 18.68 20.29 21.60 22.79 23.77 27.99 26.60 27.56 28.37 28.46 27.96 27.93 27.85 25.41 24.73 24.14 23.32 22.89 22.59 22.13 22.80 25.65 26.92
22.33 19.68 16.88 15.29 16.49 18.20 17.53 17.20 17.68 17.06 16.83 16.99 14.36 14.92 14.58 14.99 17.20 17.63 19.93 20.28 23.26 28.23 27.61 27.67 25.20 26.29 26.79 27.11 29.62 25.33 17.61 22.10 22.82 23.28 23.91 20.09 22.30 23.96
19.49 18.20 14.13 12.74 13.45 17.10 16.73 15.57 13.19 14.17 16.50 14.22 12.55 11.95 13.57 13.94 13.67 13.62 15.90 17.27 17.92 21.73 27.68 27.33 26.96 25.59 21.30 16.20 24.71 30.27 23.49 22.54 21.85 18.70 22.80 20.67 16.24 22.57
19.84 17.74 14.90 13.94 14.70 15.06 14.36 13.56 12.64 9.90 8.78 11.56 7.84 6.96 10.77 11.56 10.08 10.90 12.42 12.55 14.58 17.33 20.71 26.85 26.71 25.89 23.21 17.13 17.95 19.68 29.14 23.46 20.27 15.96 16.35 19.74 22.66 26.82
16.82 15.25 14.51 13.16 11.09 10.87 2.18 -0.54 -3.81 -2.55 -1.99 -5.26 1.64 3.25 5.29 9.15 7.74 8.53 9.84 10.81 12.77 14.97 15.64 23.58 26.61 27.65 25.27 19.69 14.11 13.94 15.46 26.18 25.54 19.36 19.09 17.26 17.55 18.97
11.56 12.95 13.34 11.12 5.15 4.62 -2.36 -4.71 -4.89 -4.71 -1.82 -0.36 -1.99 1.57 -2.43 3.26 5.32 6.31 7.93 8.30 9.82 12.72 15.80 17.67 27.70 26.36 21.18 20.90 18.66 11.89 13.25 14.23 23.77 28.32 28.23 25.53 17.72 13.92
7.81 10.17 7.83 3.03 4.07 0.91 6.58 -1.99 -1.99 -6.71 -1.48 1.91 2.71 3.72 -6.71 2.75 6.04 7.27 5.66 7.47 9.85 11.38 13.11 14.91 25.46 23.38 22.21 22.67 20.42 17.61 15.16 13.09 17.61 20.71 19.51 28.55 28.87 28.19

GFSNE_sfc_wetblb_087.txt.gz
Wetbulb
47.45 46.32 46.20 45.98 45.51 44.94 43.43 41.19 38.92 34.64 33.51 35.57 34.59 37.22 37.60 37.44 38.79 37.39 37.32 42.10 44.38 44.79 44.44 44.96 46.15 46.56 46.41 45.11 44.67 44.26 43.68 43.98 43.47 42.07 40.84 40.45 40.26 40.80
47.36 46.05 46.59 46.27 45.90 45.67 43.64 42.20 39.59 38.18 32.32 34.56 34.89 35.92 36.55 38.41 38.84 38.42 36.84 41.76 42.92 43.22 43.40 43.31 43.81 44.35 44.81 44.62 43.72 43.24 43.30 43.33 42.75 41.59 40.48 39.83 39.60 39.60
46.93 46.36 45.95 46.13 45.52 44.48 43.80 41.87 39.55 36.65 32.59 33.94 34.54 34.93 33.99 34.60 36.06 35.71 36.56 35.92 36.18 40.96 41.56 42.42 42.20 42.16 42.49 42.50 42.25 42.69 42.71 42.33 41.58 41.06 39.94 39.46 39.55 39.64
46.66 45.85 45.55 46.11 44.51 43.86 41.96 40.12 38.65 35.51 33.91 31.55 33.19 32.84 32.65 34.05 33.73 33.39 35.88 36.70 35.20 38.97 40.53 41.18 41.80 41.63 41.27 41.02 40.74 40.82 40.93 40.72 40.61 40.11 38.81 38.66 38.59 38.87
46.33 46.02 45.67 45.15 43.01 41.30 39.94 38.64 35.53 36.55 33.54 31.28 30.40 30.97 31.37 31.39 30.76 31.41 31.17 31.25 33.61 38.26 39.41 40.17 41.28 41.69 41.56 41.07 40.71 40.42 40.15 39.51 38.92 38.46 38.33 38.18 37.22 37.49
46.27 45.63 44.77 42.98 41.77 38.87 36.38 33.86 33.27 31.35 30.28 28.61 27.41 27.97 28.66 29.74 28.69 27.84 28.23 29.02 29.56 33.94 36.34 36.80 37.24 38.72 39.97 39.86 39.83 39.64 38.48 38.36 38.04 37.65 37.28 36.66 36.68 37.09
43.73 42.65 41.50 40.05 38.31 36.11 33.54 30.83 29.84 28.36 27.50 26.60 26.11 25.76 25.92 26.61 26.97 27.81 27.19 29.47 28.36 29.54 30.37 30.70 32.11 32.37 32.74 36.68 37.63 38.66 38.41 37.89 38.00 38.00 37.63 36.84 36.11 36.37
37.78 36.19 36.24 37.43 36.00 35.26 34.80 33.42 30.96 27.57 26.69 24.95 25.21 25.15 24.99 26.02 26.55 26.48 26.49 26.13 25.00 29.02 27.40 29.02 30.09 30.62 30.88 28.53 33.37 35.76 36.15 36.04 36.23 36.29 36.72 36.40 35.68 35.43
35.08 34.26 34.54 34.04 33.00 32.01 32.10 31.63 30.91 32.01 29.56 27.81 25.19 25.09 24.58 26.34 27.05 26.18 25.32 26.56 27.47 29.62 29.48 29.09 27.33 27.44 29.53 29.90 33.34 34.78 35.43 35.63 35.77 36.05 36.17 35.45 34.94 34.83
33.93 33.31 31.52 30.22 31.83 31.47 29.52 28.72 29.14 29.57 29.92 29.44 27.53 26.85 27.21 28.15 28.44 28.91 29.34 30.20 30.82 30.88 31.96 27.09 27.06 26.45 26.98 27.77 32.21 33.95 34.75 35.01 35.49 35.98 35.37 34.90 34.25 34.11
31.35 31.22 30.20 28.99 30.49 31.03 28.20 27.01 26.80 27.76 30.58 31.59 32.13 32.71 32.96 33.37 33.37 31.55 28.92 28.07 26.20 26.84 28.90 28.52 27.83 24.96 24.93 25.51 26.86 32.49 33.73 34.60 35.29 34.49 33.41 32.80 33.10 33.18
28.81 28.23 29.01 28.09 29.17 28.98 27.30 26.81 25.81 27.31 28.14 28.83 29.36 29.80 31.46 31.38 32.45 31.78 30.24 26.72 26.72 25.55 27.50 25.67 26.35 26.37 25.01 24.34 25.23 26.56 26.92 32.36 31.86 31.68 31.87 31.60 31.58 28.02
26.82 26.06 26.58 26.78 26.98 27.71 28.46 27.85 27.02 26.65 26.41 26.02 25.77 25.99 26.64 26.80 27.82 29.90 31.27 29.83 27.64 26.68 29.27 29.41 26.40 25.56 26.06 21.16 22.82 24.44 25.14 24.15 24.91 25.67 29.74 30.29 30.72 29.72
25.06 25.24 25.12 26.07 26.77 27.66 28.00 26.37 26.07 25.21 23.56 22.73 22.15 22.25 21.64 23.23 23.74 24.59 26.36 29.47 31.78 30.35 30.41 30.96 28.26 25.90 25.25 23.87 23.24 24.47 24.02 23.07 19.65 22.20 23.73 26.70 28.98 29.96
24.88 24.65 25.05 25.54 26.11 26.76 25.59 24.78 24.25 22.88 21.52 19.57 19.00 18.76 20.69 21.03 22.44 23.29 24.74 25.51 26.75 29.97 31.73 32.15 30.22 28.47 27.63 25.43 23.33 22.59 21.44 21.92 22.68 21.41 20.24 23.07 23.72 23.09
24.34 24.22 24.12 25.08 25.27 24.58 23.74 23.46 22.46 21.49 19.74 18.32 17.58 18.98 18.56 18.90 17.81 20.18 19.38 19.39 21.07 22.08 29.53 31.89 31.56 30.06 27.43 27.16 25.58 23.56 22.86 22.18 20.90 21.45 21.58 23.33 23.16 23.99
23.40 22.94 22.83 22.06 20.80 20.90 20.30 19.99 19.54 18.76 17.35 17.21 16.80 14.91 14.65 15.23 14.77 17.79 16.62 16.85 17.20 18.06 19.41 27.92 30.62 30.45 29.92 27.87 24.69 24.85 24.10 23.91 23.20 23.74 21.43 21.99 23.75 24.65
22.45 20.11 17.29 16.51 17.22 18.16 17.51 16.83 17.03 16.38 16.01 15.54 13.30 12.55 11.27 12.01 12.48 13.07 13.68 13.33 12.80 14.62 16.97 18.98 28.05 26.56 27.11 27.94 30.15 26.17 20.29 21.47 22.52 23.81 23.74 22.50 22.58 23.62
20.17 19.41 15.21 14.48 15.49 17.36 16.31 15.20 13.87 14.48 14.51 12.55 10.03 8.90 9.89 11.25 10.38 9.73 10.65 10.89 10.35 12.10 14.58 19.15 20.90 25.96 21.72 20.49 22.40 30.72 24.92 22.43 21.19 20.11 21.74 20.45 16.79 22.14
20.24 17.53 15.09 15.09 14.99 14.39 13.55 12.48 11.13 7.43 5.53 8.38 4.53 2.68 2.77 8.38 6.45 6.67 7.45 6.48 8.08 9.69 12.02 16.42 18.10 26.09 23.60 19.78 16.03 17.37 29.85 22.55 20.74 17.94 16.18 18.27 21.69 25.72
15.29 14.52 14.09 12.94 11.98 11.57 3.93 -0.77 -6.75 -6.03 -5.30 -7.84 -2.43 -2.43 -2.94 3.69 4.50 5.49 5.47 5.58 5.92 8.41 8.90 11.77 16.32 20.36 21.32 23.43 15.57 12.24 14.50 27.15 26.79 21.67 19.73 16.45 21.89 18.57
11.31 12.77 12.56 11.05 3.53 1.91 -5.84 -6.39 -8.93 -8.38 -3.70 -4.39 -2.04 -7.84 -8.56 -4.39 1.70 2.67 4.06 4.01 4.54 6.06 8.85 12.87 16.21 18.47 23.24 21.52 15.95 8.15 14.35 13.00 22.61 27.81 26.63 24.73 18.01 13.66
6.18 8.17 6.73 1.76 3.74 4.04 5.05 -2.96 -4.76 -8.75 -3.31 2.11 -0.62 0.06 -6.03 -4.76 1.75 4.16 4.20 3.53 4.11 5.10 8.22 10.29 13.44 16.38 23.48 23.32 18.92 16.50 16.20 14.41 18.60 20.72 19.91 28.01 28.14 28.10

GFSNE_sfc_wetblb_090.txt.gz
Wetbulb
48.21 47.90 47.19 46.09 46.08 46.22 44.42 42.29 41.49 36.42 35.49 37.99 38.18 39.96 39.78 39.29 39.99 40.11 40.12 41.63 43.49 44.30 44.89 45.76 46.86 47.58 47.82 48.15 47.99 47.10 46.47 46.02 45.69 45.22 44.83 44.27 43.06 42.13
49.24 47.70 47.97 47.03 46.53 45.99 44.49 42.32 41.45 40.35 37.28 38.86 38.16 38.80 38.99 39.15 39.78 40.62 39.06 41.28 42.28 42.49 42.66 43.90 44.77 45.71 46.01 46.33 46.25 46.32 45.62 45.09 44.79 44.56 43.91 43.48 43.29 41.89
48.86 48.62 47.94 48.07 46.59 45.90 44.78 43.36 41.09 39.87 37.77 37.95 37.46 37.61 36.70 37.09 38.24 38.58 38.46 37.82 38.49 40.54 41.49 42.27 42.91 43.17 43.47 43.64 43.62 44.27 44.53 44.68 44.10 43.42 43.18 42.96 43.06 42.04
48.52 48.38 48.06 47.09 46.07 45.35 44.28 41.99 41.46 39.61 37.36 35.95 36.35 35.02 35.04 36.33 36.37 35.57 37.17 37.59 37.21 38.36 39.87 40.83 41.50 41.95 42.02 41.63 41.51 41.80 41.97 42.17 42.38 42.49 42.40 41.58 41.78 41.09
49.35 48.44 47.68 45.68 44.84 43.81 43.10 41.70 40.01 39.39 37.18 34.79 34.07 33.12 33.58 33.61 33.59 33.73 33.92 34.49 34.68 37.60 38.35 38.75 39.53 40.71 41.61 41.51 41.31 41.08 40.93 40.62 40.24 40.44 40.21 40.24 40.14 39.14
49.02 47.91 47.30 46.02 45.27 42.97 41.60 40.12 38.09 36.52 33.32 31.41 30.35 30.89 31.13 32.36 31.32 30.82 30.40 31.95 31.88 34.35 36.31 36.30 36.95 37.89 39.11 39.67 40.11 40.53 40.19 40.12 40.01 39.23 38.24 37.52 37.32 37.94
46.12 45.43 44.34 43.47 41.49 40.43 38.79 36.12 34.38 31.70 30.66 29.47 28.85 28.60 28.61 29.29 29.50 29.96 28.87 29.41 30.41 31.81 32.15 32.30 33.17 33.90 34.77 35.56 37.02 38.68 38.75 39.01 38.38 37.92 37.45 37.39 36.91 37.14
41.23 39.18 38.61 38.08 36.83 35.78 34.96 34.06 33.53 31.54 29.82 28.71 28.23 27.77 28.09 28.83 29.40 28.52 27.68 26.58 25.91 30.70 29.44 29.45 32.70 32.19 33.06 33.93 34.61 35.53 37.17 38.50 38.75 38.25 38.10 37.71 37.09 36.71
36.72 35.95 35.97 35.23 33.85 32.68 32.53 32.08 31.42 32.03 29.70 29.68 27.68 27.56 27.54 28.18 28.41 27.42 27.35 27.03 27.18 30.12 29.82 28.54 31.39 30.38 32.61 33.01 34.33 35.13 35.73 36.55 36.54 35.88 35.67 35.71 35.72 35.47
36.02 34.45 32.25 31.36 31.83 31.73 30.82 30.23 29.86 29.75 29.91 29.35 28.99 28.52 28.86 29.38 29.17 29.48 29.31 29.78 30.42 31.01 32.15 27.12 30.52 29.10 31.40 31.76 32.88 34.56 35.69 35.66 35.72 35.54 35.51 35.47 35.27 34.67
31.49 31.34 30.61 30.22 31.33 31.60 28.79 27.39 27.03 28.01 30.58 31.18 31.65 32.10 32.41 32.89 32.87 31.57 28.59 28.67 26.69 27.67 30.21 28.79 29.28 28.49 29.72 29.60 30.61 32.52 34.70 35.04 35.27 35.16 35.39 35.64 34.91 34.04
28.69 28.79 29.46 28.88 28.92 28.49 27.56 26.97 26.10 27.30 27.15 27.23 27.09 27.59 28.54 28.93 28.92 30.08 30.04 27.54 26.88 26.15 29.46 27.54 27.75 27.40 26.27 28.30 28.26 29.60 32.18 33.78 34.44 34.97 34.28 32.44 32.15 31.82
27.17 25.92 26.28 26.61 26.95 27.57 28.58 28.29 26.74 26.15 24.74 24.50 24.09 24.69 25.68 24.53 25.82 25.84 25.43 24.85 23.67 25.31 30.26 29.61 28.13 28.29 27.52 27.12 27.24 27.85 28.20 29.16 31.03 31.96 32.23 32.02 31.62 30.95
25.84 25.19 25.35 26.29 27.07 28.10 27.65 26.46 25.00 24.22 23.35 21.92 21.22 20.98 20.40 21.29 22.00 22.51 23.89 25.16 26.17 25.27 26.75 28.30 29.06 28.19 27.66 26.33 24.98 27.65 27.44 27.98 27.89 27.83 28.83 29.09 29.81 30.39
25.37 25.07 25.52 25.92 26.35 27.22 25.38 24.89 23.62 22.25 20.75 19.15 18.00 18.04 19.34 19.48 20.38 20.37 21.18 22.76 22.20 22.72 25.13 25.83 26.72 29.25 29.90 27.07 26.49 25.85 26.50 27.88 27.47 27.29 27.56 27.22 27.45 27.95
24.85 25.04 24.57 25.07 26.04 24.38 24.31 23.28 22.03 20.72 19.28 17.91 17.02 18.02 17.74 17.09 16.08 17.30 16.77 17.09 16.38 17.70 22.17 24.14 24.02 25.42 28.64 28.66 28.10 27.22 27.06 25.90 26.46 26.76 26.79 26.79 27.49 27.40
24.09 23.81 23.58 23.16 22.33 22.07 21.35 20.71 20.31 19.45 17.93 17.31 16.27 14.98 14.27 13.64 13.27 14.94 14.08 13.70 12.50 13.60 14.86 18.70 21.54 22.78 24.65 30.05 27.26 27.84 26.65 26.41 27.11 27.08 25.31 25.44 27.03 27.91
22.79 20.93 19.22 18.33 18.36 19.06 18.40 17.87 17.74 16.80 16.10 15.28 14.13 13.05 10.87 10.20 10.84 12.24 11.69 10.48 9.58 10.52 12.03 14.31 16.57 18.29 22.61 29.12 31.12 26.97 27.26 26.92 26.70 26.90 26.03 24.74 25.36 28.22
20.56 20.20 16.35 15.64 16.25 17.38 16.45 15.25 14.00 14.26 13.69 11.94 11.27 9.39 8.73 8.57 9.22 8.03 8.45 8.39 7.40 8.69 10.18 12.74 14.04 15.94 15.54 18.31 26.33 31.60 27.13 25.30 25.53 24.83 25.96 24.96 24.21 26.46
17.56 15.32 14.57 14.52 14.57 14.05 13.47 12.27 11.93 9.15 6.95 7.69 7.05 4.82 2.70 7.11 5.85 6.01 6.41 5.16 5.52 6.71 7.85 10.62 12.15 14.60 13.75 13.36 16.23 25.01 30.88 26.70 25.04 24.37 23.11 24.14 25.51 26.05
13.08 13.24 13.93 12.57 11.37 11.02 6.92 2.25 0.74 1.49 -0.43 -3.32 0.96 0.85 1.09 4.21 3.61 4.70 4.98 3.62 3.97 5.72 4.88 6.82 10.60 15.12 17.05 19.49 18.57 22.31 23.32 28.62 26.71 25.39 23.42 22.26 23.01 23.23
6.93 8.80 9.79 8.20 5.09 5.76 3.16 0.70 1.74 -0.60 0.17 0.26 0.86 1.59 0.38 1.06 2.18 1.95 3.13 3.40 4.38 4.86 5.61 8.48 11.48 14.09 14.93 15.40 19.00 20.58 21.27 21.05 25.30 28.66 26.75 26.19 23.87 20.76
1.40 4.79 6.43 5.72 6.14 6.29 5.53 1.39 -0.23 -5.12 -2.54 0.78 3.17 3.39 -0.52 -0.22 2.44 3.10 3.89 4.31 3.84 3.84 4.24 5.78 9.18 12.21 13.05 15.31 18.76 21.66 18.09 19.17 22.46 22.54 23.99 27.41 27.48 27.71

GFSNE_sfc_wetblb_096.txt.gz
Wetbulb
61.46 61.06 58.75 56.42 55.14 56.50 53.36 51.38 49.70 46.75 47.52 50.57 48.50 49.95 50.32 49.73 49.35 50.19 50.46 46.16 45.28 45.05 45.35 46.49 47.84 48.32 48.36 48.64 49.24 49.58 49.47 49.13 48.81 48.98 48.87 48.01 48.07 48.23
61.25 60.64 60.20 58.57 58.23 57.72 54.73 52.01 51.53 49.38 46.86 51.64 49.95 52.69 53.12 50.78 50.32 49.56 49.27 47.50 44.68 43.64 43.50 44.09 45.05 46.35 46.94 47.09 47.33 47.93 48.44 49.06 48.50 48.54 48.51 47.30 47.18 47.18
61.07 59.83 58.95 58.21 56.46 54.31 52.89 52.07 49.74 49.50 47.58 50.39 52.83 55.13 52.74 51.19 49.74 48.09 49.65 48.61 46.72 42.79 42.11 42.50 42.88 43.20 43.75 44.09 44.57 45.41 46.22 46.67 47.14 47.38 47.00 46.30 46.50 46.14
57.41 56.23 54.73 54.25 53.49 53.03 51.17 50.28 49.67 49.69 48.60 47.36 50.66 44.61 50.11 44.94 43.93 46.25 44.24 45.53 47.12 44.95 42.39 41.71 41.60 41.36 41.43 41.35 41.43 41.53 42.33 42.79 43.35 44.34 45.19 45.70 45.76 45.03
58.05 55.75 54.57 53.12 51.74 51.55 50.88 49.76 50.54 50.02 48.73 47.56 47.91 44.33 42.56 41.08 40.40 42.40 43.05 44.56 46.03 43.71 39.84 39.32 39.82 40.42 40.53 40.41 40.33 40.41 40.40 40.67 40.71 41.07 41.55 42.19 43.30 43.82
58.64 54.78 54.35 53.32 51.61 51.37 50.70 49.53 49.18 48.15 47.72 44.54 41.48 36.89 37.69 38.95 39.70 39.26 39.26 42.01 42.92 43.29 40.78 38.62 39.02 39.42 39.47 39.18 38.59 38.88 39.02 39.19 39.92 40.16 39.84 39.36 39.22 40.36
54.60 53.50 53.90 51.71 47.04 47.15 49.88 49.09 47.18 42.80 38.81 38.25 35.63 34.66 35.58 34.72 34.91 38.42 37.30 39.27 39.87 40.66 39.94 39.55 39.28 39.36 39.47 38.32 37.67 38.52 38.61 38.83 39.06 39.14 39.57 39.21 38.81 39.09
50.35 42.68 40.71 40.06 37.62 36.98 36.36 34.95 37.97 37.64 35.03 34.69 33.80 33.52 32.79 32.98 34.18 34.98 35.46 35.74 33.59 40.46 36.37 35.81 38.62 37.00 37.71 38.63 37.42 37.20 37.32 37.32 37.18 37.03 37.22 37.29 37.73 38.26
38.66 37.98 36.29 35.42 35.74 34.47 33.59 33.50 33.05 33.05 32.00 34.96 33.53 32.81 33.01 33.85 35.26 35.37 34.01 32.29 30.93 35.46 35.38 33.82 37.73 36.33 38.21 37.79 37.05 36.85 36.70 36.43 36.39 36.28 36.33 36.59 37.28 37.45
33.98 33.99 32.55 32.30 33.23 33.28 32.55 31.13 30.91 31.19 32.27 33.22 33.65 33.98 34.16 34.45 33.83 33.09 32.63 33.13 34.23 34.85 35.51 31.73 35.96 35.20 37.69 38.12 37.46 37.54 36.89 36.19 36.01 35.91 36.04 36.33 36.55 37.09
30.95 31.17 30.48 29.74 31.00 32.61 30.86 29.89 30.23 30.63 32.62 32.75 32.31 31.83 31.49 31.17 31.46 33.12 31.79 30.61 30.26 31.82 35.26 32.93 33.60 33.61 35.84 36.44 38.15 37.16 36.61 36.14 35.91 35.79 35.52 35.96 36.50 36.42
28.64 28.72 29.10 28.91 29.15 29.68 30.11 29.97 28.67 30.04 30.76 30.88 31.27 29.83 28.92 30.48 27.43 29.20 29.44 27.99 28.04 27.70 32.63 30.85 31.78 32.45 31.11 35.12 36.25 37.42 37.42 35.08 34.90 35.13 34.67 36.05 36.51 36.73
27.37 26.84 27.68 28.23 28.34 28.51 28.80 31.13 30.37 31.07 28.91 29.14 29.36 29.34 29.32 29.67 29.09 29.37 30.01 27.79 25.78 25.71 30.52 28.52 27.81 27.77 27.85 28.97 32.88 35.02 36.25 36.28 36.61 37.03 35.09 35.93 35.79 35.55
28.47 29.56 29.19 27.80 27.57 28.83 29.66 27.78 26.32 27.36 29.47 28.33 27.09 26.79 27.14 27.13 27.82 27.60 26.74 26.60 27.22 25.94 26.88 26.50 25.64 25.31 25.03 24.68 25.85 30.67 33.20 36.53 37.17 35.83 36.83 36.65 35.09 35.16
29.60 27.44 26.55 26.96 27.39 28.62 27.55 25.17 25.47 28.57 27.36 25.93 25.57 25.26 25.40 25.70 24.56 24.35 24.72 24.69 24.26 24.40 24.73 25.24 24.01 24.24 24.24 24.17 25.50 28.13 28.73 32.13 35.83 36.01 35.93 35.67 36.64 35.43
28.75 28.86 27.78 27.48 27.08 27.27 27.73 27.68 27.42 26.39 24.38 23.99 24.21 24.10 24.30 23.22 22.24 22.89 21.49 22.32 22.14 23.26 25.89 26.61 25.98 25.34 23.73 25.08 25.84 25.91 28.31 28.96 33.18 34.36 34.95 35.12 35.82 35.35
28.14 28.21 27.27 26.15 25.58 26.09 26.11 26.45 25.93 24.37 22.85 22.94 21.59 21.15 20.81 20.79 20.35 21.23 20.11 19.98 19.03 19.87 21.17 23.87 25.49 25.52 25.01 23.83 22.26 24.64 26.06 28.81 31.71 32.93 34.10 32.42 33.81 34.94
25.61 23.64 22.86 23.12 22.59 22.19 21.72 21.47 21.96 21.00 20.62 18.90 18.74 18.16 17.37 16.94 16.83 17.62 18.04 17.47 16.59 17.88 18.62 20.71 21.49 21.02 21.68 23.86 25.99 24.46 27.60 28.39 30.23 31.68 33.31 31.56 31.41 34.54
21.10 20.18 19.77 19.31 18.98 18.80 18.40 17.79 16.67 17.19 17.24 16.92 15.97 15.47 15.26 15.06 14.32 14.68 14.88 15.25 14.65 15.57 16.86 18.44 18.25 17.55 15.84 15.40 23.51 27.67 24.48 25.82 26.14 26.27 33.23 31.73 31.11 32.32
18.73 18.03 16.77 16.58 16.22 15.64 15.53 14.62 14.50 14.36 14.12 14.03 13.05 13.15 13.15 12.74 12.28 12.48 12.96 12.44 12.55 13.02 13.87 16.37 17.40 17.37 15.43 14.88 15.32 19.92 22.03 21.89 23.37 23.41 31.17 32.92 32.48 27.76
15.70 15.71 15.62 14.84 14.26 13.97 13.54 13.25 12.83 12.46 11.84 11.87 11.62 11.65 11.80 11.37 10.87 11.49 11.42 10.62 11.06 11.96 11.66 13.44 16.43 17.72 18.38 19.06 15.81 18.23 23.82 26.19 26.75 25.65 29.02 29.89 29.18 28.58
13.55 13.34 13.45 13.28 12.53 12.34 12.10 11.85 11.49 11.03 10.80 10.37 10.32 10.45 10.85 10.79 9.70 10.07 10.38 10.32 10.85 11.44 11.71 14.30 16.40 16.78 16.52 15.15 14.46 17.02 20.40 24.29 25.38 27.37 29.65 30.84 30.31 26.51
11.86 12.01 12.11 12.00 12.06 11.46 11.19 10.46 9.40 9.46 9.44 9.10 9.17 9.64 9.41 8.75 10.14 10.74 10.84 10.92 10.59 10.57 11.10 11.59 13.81 15.25 15.15 15.30 15.31 16.68 18.12 18.80 21.64 27.88 29.50 27.88 28.49 28.01

GFSNE_sfc_wetblb_099.txt.gz
Wetbulb
62.53 62.46 61.39 61.70 61.71 61.38 60.08 56.05 52.28 48.70 49.96 53.50 53.13 53.66 52.16 51.23 50.88 51.73 51.27 49.61 46.41 46.15 46.21 47.45 48.92 49.63 49.95 50.50 50.60 50.38 50.41 50.41 50.43 50.59 50.42 49.62 49.44 49.64
61.64 61.56 61.33 61.51 60.83 60.46 58.64 56.58 54.39 51.73 49.28 53.32 51.57 53.01 51.18 50.24 49.40 49.36 49.86 49.09 46.17 44.94 44.58 45.17 45.98 47.27 47.63 47.59 47.93 48.52 48.81 49.11 49.45 49.52 49.74 49.43 48.66 48.38
61.77 61.21 60.99 61.82 60.83 60.28 57.68 56.39 54.49 53.12 50.20 52.82 53.40 53.15 50.29 48.92 50.27 49.82 50.15 50.39 49.90 43.80 43.21 43.45 43.68 44.46 44.94 45.13 45.46 45.95 46.52 47.11 47.56 48.11 48.18 47.97 48.16 48.02
61.05 61.13 60.60 59.21 56.93 57.18 58.30 55.20 53.83 53.52 50.40 48.72 51.19 51.23 51.53 51.45 51.99 49.93 49.44 49.27 50.02 45.33 43.20 42.72 42.87 42.79 42.72 42.42 42.51 42.58 43.15 43.95 44.35 44.88 45.53 45.75 46.10 46.43
61.37 60.78 59.15 56.33 55.83 56.52 55.68 53.26 53.17 51.99 51.01 48.92 48.67 50.23 50.30 44.83 46.75 43.92 45.09 43.59 44.91 44.46 42.19 41.38 41.69 41.56 41.46 41.11 40.95 40.89 40.94 40.67 40.48 40.79 41.30 41.75 42.61 43.44
60.36 58.35 57.78 57.37 55.68 54.46 53.85 52.24 51.33 50.20 49.21 47.59 46.98 41.70 38.28 38.91 39.30 38.25 38.45 41.29 41.06 44.84 43.74 40.65 39.76 39.71 40.09 40.14 39.90 39.79 39.65 39.57 39.43 39.22 39.03 38.76 39.06 40.45
57.59 51.81 41.05 39.97 38.12 38.27 44.38 47.43 48.11 47.34 45.57 42.72 36.08 35.32 35.53 34.97 35.45 37.30 36.01 36.04 39.02 40.68 39.91 40.62 40.52 39.77 39.29 39.18 38.73 38.89 38.46 38.26 38.19 38.24 38.31 38.64 38.77 39.23
42.34 38.47 37.25 36.52 35.30 34.70 34.17 33.75 33.25 36.33 36.41 36.06 34.07 34.05 33.00 33.36 34.04 33.53 32.82 32.30 33.01 38.80 37.60 36.63 38.00 36.57 37.39 38.47 38.49 38.31 37.99 38.10 38.38 38.31 38.24 37.62 37.44 37.26
35.14 34.64 33.93 34.39 35.03 34.62 32.79 32.54 32.14 32.57 30.86 33.74 32.06 31.52 31.79 32.33 33.77 33.44 33.60 33.87 34.04 35.68 34.77 32.51 36.34 34.80 37.02 37.81 37.95 37.99 37.64 37.32 37.32 37.26 36.92 36.23 36.08 36.05
31.93 32.12 32.09 32.39 33.17 33.23 32.49 31.54 31.26 31.41 32.08 33.04 32.74 33.60 34.08 34.75 34.44 34.34 33.96 33.62 33.93 34.57 35.31 30.38 35.05 33.48 36.07 37.89 38.71 38.55 37.99 37.36 37.13 36.80 36.36 35.99 35.76 35.51
30.72 31.46 30.87 30.09 30.60 32.44 32.18 31.26 30.96 30.92 32.16 32.12 32.22 31.84 31.60 31.80 31.93 32.16 31.16 30.75 29.77 31.37 34.36 32.55 33.36 33.41 34.90 36.13 38.06 38.24 37.45 37.49 36.84 36.45 36.18 36.09 35.85 35.43
29.49 29.55 29.34 29.07 29.16 29.62 30.67 30.96 30.45 30.86 31.43 31.85 32.72 32.00 30.94 32.05 29.17 29.46 29.11 26.43 26.97 26.60 31.56 29.32 30.60 31.50 29.84 35.37 36.15 36.75 37.06 36.44 36.12 36.12 36.15 35.99 35.89 35.40
29.89 28.97 28.54 28.49 28.87 29.54 29.72 29.35 27.93 29.50 30.48 30.45 29.99 30.26 30.80 31.01 31.12 30.89 30.49 28.26 25.39 24.46 28.29 27.07 25.76 25.35 25.65 26.55 29.81 32.08 32.80 33.82 34.62 36.34 35.74 35.92 35.95 35.58
29.56 29.69 29.16 28.43 28.84 28.78 28.99 27.21 26.80 27.93 29.43 28.25 27.98 28.06 28.13 27.60 28.24 26.94 26.92 26.69 26.59 25.28 26.34 25.81 22.88 22.81 23.00 23.13 23.75 28.51 30.31 31.92 33.00 33.22 34.90 35.88 35.54 35.78
29.79 27.94 28.47 29.30 30.01 28.42 26.39 25.93 27.35 27.51 26.27 24.77 24.59 25.20 25.19 25.68 25.88 25.44 25.86 25.71 25.57 25.98 25.93 26.16 25.12 23.98 23.21 21.88 21.96 24.90 26.10 29.26 31.57 32.06 33.36 34.05 34.90 35.40
29.65 29.94 29.01 28.03 27.93 28.36 28.29 28.08 28.52 26.49 24.14 24.34 22.99 22.87 23.74 23.31 22.34 23.12 21.52 22.28 21.50 22.17 24.71 26.80 26.12 25.66 23.31 23.38 23.62 23.53 25.81 24.65 29.23 30.53 31.77 32.90 34.35 35.75
28.09 27.49 25.73 24.78 24.29 24.32 24.27 24.21 24.12 23.20 21.56 20.53 19.56 19.35 19.14 19.01 18.89 20.65 19.81 19.06 17.73 17.91 19.20 22.51 24.46 24.67 24.39 23.01 21.04 22.66 23.19 24.65 27.61 28.39 28.75 28.61 31.11 33.81
25.08 23.12 22.06 21.42 20.34 20.39 20.06 19.78 20.41 19.26 18.71 17.80 18.05 17.11 16.06 15.75 15.93 16.56 17.19 16.79 15.76 16.53 16.45 18.43 19.33 19.17 20.29 21.88 24.18 22.42 23.86 24.52 26.67 27.70 28.10 27.24 28.36 31.85
20.99 20.48 19.19 18.72 18.11 18.21 17.85 17.31 15.99 16.69 16.60 15.51 15.10 14.84 14.45 14.09 14.49 13.52 14.29 14.74 14.10 14.46 15.19 16.45 16.54 15.60 13.73 13.40 20.43 24.47 19.63 19.88 20.78 21.96 25.43 26.18 26.47 28.41
18.95 18.02 17.07 16.83 16.43 16.06 15.70 14.57 14.43 14.46 14.53 13.74 13.10 13.40 13.21 12.71 11.78 11.70 12.39 12.37 11.86 12.01 12.62 14.38 15.22 15.48 13.62 12.24 13.33 17.69 21.51 19.51 20.50 21.68 23.65 26.55 26.22 31.12
16.56 16.41 16.44 15.52 14.81 14.52 14.09 13.87 13.40 13.36 12.74 12.43 12.10 12.00 11.99 11.60 10.63 10.96 11.56 10.99 11.07 11.57 10.81 11.69 14.63 17.19 17.99 18.38 14.73 16.18 20.99 23.46 23.33 22.97 24.44 23.17 20.92 28.40
14.90 14.69 14.81 14.50 13.78 13.57 13.33 12.98 12.09 11.64 11.48 10.99 10.81 11.27 11.36 10.97 9.68 10.29 10.86 10.75 10.88 11.38 11.65 13.89 15.91 16.12 15.28 14.17 13.09 14.69 17.72 21.41 23.91 24.67 24.59 24.09 20.71 26.38
13.10 13.24 13.17 13.08 13.14 12.51 11.95 10.90 10.35 9.96 10.00 9.87 9.90 9.88 10.01 9.08 10.22 10.62 11.05 11.12 11.25 11.15 11.55 11.98 13.44 14.63 13.44 13.75 13.91 15.04 15.97 17.98 20.72 20.57 23.15 29.29 29.48 29.47

GFSNE_sfc_wetblb_105.txt.gz
Wetbulb
56.96 56.81 56.68 56.73 56.58 56.42 55.73 53.94 52.76 49.47 49.87 49.74 51.09 53.71 54.41 53.34 52.66 52.63 53.11 51.60 48.93 47.90 47.88 48.92 50.51 51.41 51.90 52.46 53.66 54.76 55.96 56.19 56.18 55.99 55.72 55.89 56.05 56.14
57.18 56.65 56.52 56.69 56.10 55.81 55.61 55.41 54.58 53.44 51.37 53.41 52.77 52.95 53.33 54.15 54.09 53.70 54.02 51.56 49.61 47.40 46.75 47.10 48.33 49.58 50.25 50.66 50.95 51.54 52.60 53.53 54.50 55.02 54.99 54.91 54.69 54.51
55.61 55.91 55.94 56.39 56.11 55.99 56.29 56.38 55.75 55.21 53.20 54.71 55.10 55.74 52.08 52.64 53.76 53.81 53.35 53.06 52.46 47.18 45.61 45.79 45.93 46.25 46.80 47.51 48.03 48.81 49.57 50.54 51.21 51.91 52.61 52.91 52.96 52.09
54.64 55.23 55.39 56.27 55.18 56.10 55.97 55.49 55.75 55.95 54.71 53.48 55.46 54.74 52.33 52.62 52.55 52.55 52.22 51.66 50.91 48.62 45.56 45.59 45.75 45.33 45.11 44.78 44.80 45.13 45.69 46.61 47.27 48.30 48.77 47.64 46.70 46.96
55.89 55.16 52.00 49.93 52.04 48.30 50.11 51.23 51.35 52.47 52.39 50.46 49.17 50.59 48.37 43.21 44.22 44.59 43.37 43.62 45.64 45.75 42.95 42.21 42.72 43.37 43.65 43.39 43.33 43.69 43.78 43.07 42.43 42.70 43.15 43.62 44.17 44.58
45.58 42.49 40.60 39.81 39.76 42.24 41.61 40.41 42.70 44.03 44.43 43.67 43.54 39.37 38.40 39.03 38.96 37.75 38.03 40.01 40.15 43.47 43.69 41.70 41.28 40.80 40.91 41.06 40.85 41.26 41.36 41.23 40.93 40.51 40.30 39.48 39.58 40.92
39.11 37.95 37.75 37.39 36.60 36.28 37.32 35.61 37.57 37.45 36.76 36.81 33.58 34.68 33.20 33.31 32.64 34.39 34.03 34.67 36.00 37.05 37.50 38.93 39.24 40.01 40.25 40.69 40.61 40.54 40.17 39.83 40.15 40.12 39.60 38.81 38.45 38.68
35.95 35.85 36.16 35.44 34.50 34.19 33.76 33.67 33.20 32.93 31.82 32.63 30.96 30.97 30.45 31.15 32.18 32.22 32.04 31.23 30.57 36.53 33.85 32.63 35.53 35.24 36.80 38.00 38.40 38.59 38.82 39.08 39.21 39.20 39.12 38.40 37.89 37.51
33.89 33.26 32.89 33.28 33.59 33.32 32.39 32.33 32.27 32.05 30.84 31.59 29.32 28.86 29.09 29.33 29.29 28.69 28.13 27.80 28.64 31.34 31.69 29.39 29.52 29.92 33.61 35.84 37.44 38.37 38.57 38.32 38.19 38.45 38.20 37.32 36.96 36.45
31.23 30.83 30.36 30.83 32.21 32.10 32.00 31.17 30.84 30.88 31.37 30.80 29.36 28.75 28.46 30.16 28.47 28.21 27.43 27.40 26.95 29.18 26.45 24.05 28.38 26.18 28.28 30.28 34.07 36.06 36.26 34.58 34.59 34.95 35.40 36.66 37.12 36.61
30.22 30.18 30.18 30.47 30.69 31.49 28.76 26.95 26.59 27.58 31.47 32.47 32.34 32.41 32.42 30.75 28.40 24.60 21.90 19.93 18.82 21.72 24.41 21.00 23.89 21.87 23.23 24.56 28.10 29.86 29.57 29.80 29.96 30.67 32.17 33.34 33.52 34.38
28.70 29.70 30.60 29.41 29.39 28.22 26.42 25.36 24.27 25.00 25.64 25.61 26.65 26.98 26.94 26.40 26.21 23.97 22.04 18.66 18.89 16.20 21.85 19.23 19.70 19.39 16.45 22.15 22.52 23.39 24.12 27.03 28.47 28.97 30.13 31.62 31.98 32.71
27.30 27.74 28.72 29.41 28.67 28.83 28.53 25.82 24.28 24.23 24.41 23.73 22.33 21.03 20.82 20.79 21.24 21.90 21.10 19.19 17.34 16.99 20.91 19.45 18.45 18.33 18.20 17.47 20.55 22.26 22.73 23.36 23.16 24.88 28.17 29.41 30.82 31.31
26.64 26.79 27.94 28.77 28.39 27.01 24.86 24.66 23.99 21.75 19.56 18.46 17.38 16.96 16.89 17.54 18.15 18.50 19.33 18.91 18.79 17.55 18.79 18.72 13.09 16.06 15.59 14.61 14.79 19.48 20.39 23.30 23.22 23.20 24.27 26.70 27.15 28.38
25.86 26.71 26.37 26.02 24.58 22.91 23.07 21.83 19.91 16.96 15.10 13.12 13.51 14.29 15.29 16.28 17.07 17.23 17.50 17.69 17.65 18.18 19.39 18.89 17.17 17.08 14.79 12.90 12.83 14.52 15.13 18.18 20.97 20.21 21.50 22.66 23.50 24.49
23.63 21.96 21.83 21.63 19.85 19.06 18.57 18.34 17.20 15.29 14.01 12.73 12.20 12.82 14.43 14.10 13.28 14.61 12.91 13.43 12.10 12.73 17.75 17.92 16.91 15.73 12.07 13.23 13.79 13.16 15.86 14.92 18.55 17.74 17.19 18.91 21.00 23.13
19.52 18.86 17.28 16.48 15.04 14.86 14.68 14.72 14.35 14.09 12.22 11.94 10.82 10.90 11.41 11.50 11.27 12.60 12.08 11.53 8.98 9.34 10.44 13.65 15.92 16.08 15.56 15.23 12.28 14.80 13.23 13.33 14.73 15.79 16.90 16.49 19.07 21.39
16.75 13.16 10.78 10.71 11.38 11.61 10.58 10.66 11.68 11.26 11.52 11.51 9.74 9.97 9.10 8.72 8.53 10.02 10.42 8.54 7.03 8.26 8.82 10.81 11.72 11.40 11.84 13.52 16.65 11.84 11.41 11.69 13.85 15.73 16.78 14.76 15.53 19.82
13.10 11.01 8.41 5.31 7.82 10.61 10.39 9.91 8.94 10.04 11.32 9.63 8.34 7.65 7.82 8.04 7.57 7.50 7.58 7.45 6.84 7.91 8.57 10.39 9.96 8.37 5.15 2.80 11.19 17.35 11.78 12.84 13.44 13.31 15.07 15.45 15.20 17.41
12.51 9.88 7.65 7.18 9.98 9.70 9.36 8.33 7.64 6.35 5.55 6.84 4.48 3.09 1.23 6.01 4.47 4.83 6.10 5.00 5.53 7.16 7.74 8.90 8.81 8.82 7.02 5.90 6.25 9.63 17.23 12.53 12.18 12.03 13.19 15.76 17.92 21.55
10.39 10.01 8.80 8.42 7.83 7.51 0.88 0.29 -6.68 -2.63 -4.53 -5.09 -0.38 0.94 -3.67 3.32 2.94 4.54 5.20 5.00 5.20 6.13 5.05 6.15 8.82 12.84 11.74 10.61 5.93 7.02 10.52 17.46 17.12 14.37 15.06 14.09 13.65 15.75
8.07 7.82 7.90 6.18 3.17 3.11 -2.08 -4.53 -2.54 -5.97 -0.94 1.10 -6.68 -9.58 -8.13 1.40 2.11 2.95 3.95 4.06 4.06 5.38 6.21 7.74 10.10 10.21 8.84 7.68 5.83 6.54 8.72 11.58 16.49 18.90 19.78 18.74 13.94 10.99
0.45 4.43 3.15 1.05 2.87 -0.09 2.79 -2.23 -3.78 -10.12 -2.57 -2.90 -4.14 1.16 -4.63 -0.18 2.34 3.33 2.67 2.53 4.32 4.25 4.33 5.58 7.59 8.98 7.91 8.21 7.63 8.25 9.07 9.65 11.99 13.06 15.08 20.78 21.98 23.18

GFSNE_sfc_wetblb_111.txt.gz
Wetbulb
56.46 55.59 55.21 55.45 54.62 54.41 53.57 52.26 50.84 48.43 49.46 50.94 49.46 51.81 51.57 51.08 51.00 52.42 52.72 50.86 48.74 48.23 47.27 48.09 49.66 50.91 51.13 51.75 52.24 53.07 53.91 54.71 55.08 55.37 55.83 56.71 57.67 58.80
55.97 55.43 55.40 56.10 55.88 55.48 55.16 54.81 53.89 52.21 50.23 52.56 51.46 51.20 52.50 52.98 52.58 51.45 52.63 51.30 47.40 44.78 44.43 45.24 45.57 46.13 46.41 46.84 47.64 48.46 49.23 50.22 51.10 52.11 53.29 54.22 55.30 56.27
55.59 55.46 55.05 55.77 55.70 55.64 55.23 55.18 54.51 53.98 51.55 53.47 53.03 53.05 50.20 49.46 46.98 47.02 46.57 46.15 46.00 43.00 43.56 43.40 42.77 42.55 42.56 42.62 42.70 43.10 43.81 44.74 45.84 47.00 48.11 49.69 51.13 52.29
54.82 54.52 54.28 54.55 54.33 54.66 54.23 53.90 53.69 53.68 53.39 52.13 52.98 45.95 41.55 42.08 42.87 40.54 41.59 40.82 40.91 41.38 40.91 39.13 39.39 39.51 40.68 40.49 40.85 41.11 41.37 41.45 41.59 42.00 42.54 43.96 45.28 46.79
54.45 53.97 49.53 48.75 49.62 47.38 47.22 46.76 46.17 46.82 46.06 46.36 43.49 40.78 39.62 36.72 37.62 36.82 37.37 36.52 37.52 39.66 36.85 36.89 36.82 37.28 37.60 37.37 37.50 37.35 37.38 38.14 38.96 39.45 39.29 39.42 40.19 41.42
42.45 40.45 39.23 39.43 40.85 41.51 40.24 40.24 41.46 41.24 40.01 39.21 37.33 34.60 33.82 34.02 34.25 30.56 31.09 31.49 32.15 34.79 33.55 34.19 34.06 35.80 35.42 33.79 33.44 33.42 35.82 36.11 35.39 35.45 34.69 33.94 34.43 35.63
37.77 36.84 36.60 36.69 36.24 36.21 35.90 35.21 36.45 35.87 34.79 33.71 31.99 30.97 29.39 28.82 27.18 28.37 27.61 28.08 30.54 28.90 27.65 27.56 29.89 30.28 28.29 28.03 29.40 30.60 32.50 33.00 31.90 31.83 31.51 31.50 31.76 32.64
34.82 34.69 34.59 34.62 33.95 33.85 33.21 32.55 32.25 32.01 30.52 29.35 28.51 27.14 26.39 27.04 27.67 25.60 24.19 22.46 21.99 27.77 23.38 22.48 26.89 24.34 23.61 24.21 27.61 28.58 30.95 29.95 29.76 29.30 29.54 29.98 30.34 30.24
33.77 33.13 32.82 33.20 32.76 31.88 31.92 31.73 31.72 31.41 29.82 29.29 24.75 24.56 21.89 22.20 23.23 21.31 20.32 20.03 18.88 22.70 20.34 19.09 21.93 20.76 21.81 23.82 25.68 28.29 28.41 27.67 27.52 27.63 27.83 28.00 28.57 28.87
32.17 32.01 31.76 30.86 30.88 30.10 28.60 28.29 28.91 28.40 27.59 26.90 24.84 23.91 23.21 22.05 20.95 20.48 19.07 18.64 19.23 21.00 18.34 12.60 18.49 17.26 18.62 20.04 24.38 26.60 26.05 25.89 25.76 25.71 25.52 25.50 26.42 27.20
28.78 29.47 29.85 30.21 31.36 30.75 26.85 25.54 25.24 24.64 25.98 26.17 25.37 24.39 23.51 22.70 20.86 16.85 14.09 12.22 10.96 14.68 17.01 13.10 14.97 14.88 16.30 16.98 20.14 23.36 23.46 22.76 23.57 23.27 23.65 24.26 24.93 25.28
28.52 29.02 29.69 28.31 28.06 27.24 25.37 23.51 19.92 19.30 20.03 19.38 18.96 18.99 19.20 19.00 19.56 17.42 14.61 10.50 10.62 7.83 14.91 11.84 13.46 13.18 10.48 16.94 16.79 17.95 16.63 20.11 21.17 21.73 22.76 23.84 24.59 22.15
26.48 25.68 26.57 26.58 25.67 24.59 23.15 21.40 19.44 19.64 18.26 17.34 16.31 15.96 15.96 15.83 15.61 15.86 15.63 13.44 10.29 9.78 15.30 13.81 12.24 11.80 10.60 10.25 13.78 14.88 15.09 15.67 16.18 17.41 21.04 20.97 21.99 21.43
24.85 24.92 24.63 24.21 23.12 21.94 20.47 20.26 19.10 17.30 16.00 14.19 13.21 12.27 12.15 12.40 13.51 14.29 15.25 15.35 15.12 13.39 15.31 14.42 3.17 10.13 9.13 7.91 7.58 13.21 14.10 15.33 15.97 16.07 16.49 18.00 19.42 19.85
24.68 24.58 23.90 22.28 21.08 20.03 19.68 18.31 15.96 14.46 12.57 10.89 10.24 10.00 11.23 12.49 13.26 12.96 13.79 14.17 13.48 13.85 15.39 15.19 12.71 12.45 10.66 8.65 8.35 9.69 10.19 12.91 14.62 14.78 14.24 14.51 14.60 15.40
20.99 19.74 18.96 18.43 16.60 16.23 15.97 15.32 14.25 13.39 11.65 9.68 9.07 9.77 10.96 10.58 9.61 10.38 8.92 9.36 8.00 8.31 13.16 14.09 13.87 12.75 9.22 9.83 10.01 8.82 10.83 8.42 12.50 13.40 14.10 13.98 14.73 15.83
18.59 17.32 15.60 14.57 13.34 12.91 12.43 12.01 11.92 11.34 9.36 8.55 8.06 7.68 7.38 7.62 7.17 8.21 8.05 7.47 5.16 5.41 6.35 9.64 12.40 12.76 11.61 10.78 7.36 8.90 9.14 10.11 11.26 11.76 11.92 10.86 13.35 14.70
15.18 12.52 11.23 11.11 10.59 9.82 8.71 8.74 9.13 8.89 8.69 8.21 6.04 5.18 3.59 4.06 4.20 5.60 6.29 4.83 3.44 4.15 4.76 6.58 7.38 6.79 7.43 9.43 13.59 9.04 8.13 8.58 10.17 11.37 11.99 9.67 9.97 13.11
11.30 10.06 8.68 9.33 8.47 8.74 8.06 7.16 6.03 6.90 7.58 5.30 3.46 2.50 1.73 2.50 2.06 2.87 3.62 3.34 2.34 3.34 3.83 5.37 5.38 4.39 0.89 -2.39 7.05 13.99 8.29 9.11 9.59 9.32 10.57 10.19 9.35 11.82
11.05 8.82 7.43 7.45 7.80 6.60 6.22 5.06 3.73 2.00 1.07 3.06 -0.78 -3.91 -7.69 -0.60 -0.82 0.42 1.20 -0.24 0.27 1.22 2.20 4.17 4.31 3.96 1.23 0.11 1.77 6.21 14.50 10.00 9.70 8.30 9.04 11.68 13.99 17.50
8.91 7.62 7.23 6.11 4.63 3.29 -2.49 -4.98 -10.02 -8.39 -9.29 -12.01 -8.05 -7.19 -12.56 -3.92 -2.89 -0.76 -0.58 -1.38 -1.50 0.69 -0.18 1.03 3.66 7.71 7.07 7.28 2.12 3.33 7.82 14.70 15.01 12.58 12.10 10.67 9.67 11.17
7.57 6.22 5.14 3.18 1.33 -0.32 -8.39 -11.29 -9.84 -11.29 -9.29 -7.30 -12.74 -16.54 -14.37 -10.02 -4.82 -2.95 -2.88 -3.36 -1.71 -0.10 0.36 2.11 4.82 5.70 4.33 3.31 2.01 3.21 6.50 10.62 15.74 19.11 20.59 18.84 13.49 9.01
-0.16 2.78 1.48 -0.06 -0.55 -3.89 0.08 -8.94 -10.02 -19.08 -11.10 -9.12 -7.48 -5.48 -13.82 -9.29 -3.15 -2.63 -3.23 -2.51 -1.21 -1.43 -0.76 0.03 2.34 3.47 3.12 4.45 5.26 6.12 7.74 10.04 12.76 15.19 20.18 22.43 21.73 21.66

GFSNE_sfc_wetblb_114.txt.gz
Wetbulb
55.10 55.31 54.96 55.17 54.79 54.53 53.28 52.23 50.33 47.30 48.77 51.30 51.09 52.51 52.66 51.92 51.33 52.19 52.19 44.86 44.87 45.01 45.12 45.62 46.21 46.25 46.30 46.43 46.76 47.06 47.85 48.24 49.16 49.86 50.62 51.93 52.76 53.59
55.80 55.64 55.43 55.53 55.31 55.01 54.46 53.93 53.17 51.83 49.96 52.60 53.14 52.97 51.10 51.49 47.07 47.50 46.77 44.65 42.75 42.14 41.96 41.80 41.67 42.60 42.63 42.68 43.05 43.37 43.78 44.01 44.45 45.27 45.97 47.08 48.31 49.35
56.18 55.48 55.36 55.81 55.33 55.39 55.15 55.07 54.35 54.17 51.70 53.21 53.88 47.77 43.90 43.91 41.85 43.39 42.07 41.50 41.01 39.02 38.47 38.55 38.71 39.13 39.07 39.09 38.24 38.33 38.78 39.72 40.69 41.63 42.55 43.32 44.21 45.28
55.37 55.21 54.83 55.17 54.57 55.05 54.51 54.03 54.23 54.24 53.20 51.73 47.23 41.85 37.76 40.64 38.91 38.39 37.92 37.52 40.42 37.45 36.90 35.43 36.67 37.49 36.75 35.94 35.02 34.47 36.59 37.23 36.28 36.87 37.34 37.34 38.27 39.73
55.25 54.91 54.37 53.89 53.24 50.60 50.12 50.02 47.88 47.02 45.75 46.76 39.24 38.25 36.42 35.00 35.46 35.25 34.20 33.69 36.95 35.47 34.08 32.35 34.77 35.45 33.36 32.25 32.22 32.00 31.93 33.51 33.80 33.09 33.13 32.99 33.60 34.76
44.12 43.25 43.09 44.80 45.23 44.24 42.56 41.75 42.56 40.57 40.14 39.18 35.58 33.62 32.84 32.47 31.83 29.01 29.53 30.54 31.57 30.30 30.22 29.50 31.56 31.34 30.07 29.16 28.94 29.60 30.09 32.04 32.11 31.09 30.69 30.22 30.61 31.53
37.61 37.17 37.45 38.26 37.84 38.11 37.90 37.69 37.91 36.13 34.85 33.13 31.05 29.65 28.38 27.80 25.78 26.71 25.23 26.46 28.71 26.36 25.67 25.96 28.00 27.13 26.20 25.53 26.24 27.92 29.64 30.54 29.63 29.04 28.75 28.61 28.40 28.64
34.64 34.42 34.45 34.47 33.73 33.82 33.28 32.83 33.68 33.06 30.34 29.50 27.97 23.72 23.02 24.03 24.14 22.44 21.52 20.90 20.22 26.29 22.06 21.86 25.22 22.73 23.26 22.85 25.37 26.52 28.96 28.31 27.85 27.29 27.00 26.95 26.57 26.47
33.52 32.88 32.36 32.76 32.23 31.67 31.15 30.42 29.67 29.06 27.76 26.63 23.45 22.60 19.83 20.83 21.82 19.48 18.29 18.32 18.15 21.25 18.91 18.08 21.40 19.18 20.88 22.21 23.74 26.14 26.86 26.11 25.93 24.93 25.04 24.97 24.82 25.08
32.86 32.26 31.08 30.22 30.71 29.56 27.82 25.81 25.19 25.15 25.22 25.09 22.99 22.10 21.36 19.93 19.61 18.48 17.21 16.82 19.08 20.54 17.66 12.81 17.71 16.45 18.80 20.38 23.00 24.89 24.75 24.28 23.51 23.77 23.84 23.73 24.13 24.53
30.82 30.89 30.49 29.60 30.77 30.38 25.82 23.25 22.47 23.30 25.61 24.94 23.88 23.36 22.47 21.32 19.71 16.95 14.37 12.74 11.62 14.85 16.56 13.56 15.41 14.85 16.60 18.69 21.01 22.15 21.97 21.67 21.73 22.24 22.41 22.92 23.38 24.01
28.01 28.34 29.04 28.08 28.09 26.87 24.16 22.28 19.75 19.61 19.21 18.32 18.25 18.54 18.92 18.37 18.71 16.62 14.90 10.90 10.52 8.99 15.64 11.99 13.05 12.88 9.81 16.11 17.30 18.18 18.21 18.96 20.34 20.53 21.37 21.93 22.24 21.44
24.68 24.26 25.27 26.20 25.56 24.83 23.59 21.37 19.35 19.14 17.87 17.21 16.16 15.55 15.67 15.43 15.24 16.08 15.75 13.79 10.57 9.83 15.13 13.61 11.27 11.68 10.48 10.78 13.90 16.18 16.75 17.09 17.18 17.87 19.45 20.18 20.99 20.56
22.44 23.06 23.97 24.53 23.63 22.47 20.80 20.75 19.69 17.68 16.39 14.52 13.00 11.84 11.94 12.12 13.18 14.07 14.91 15.07 14.89 13.22 15.03 14.63 10.32 10.49 9.67 8.47 8.18 14.12 14.77 16.09 16.65 16.21 17.23 18.54 19.00 19.36
23.86 24.18 23.87 22.82 21.51 20.05 19.49 18.11 15.97 14.65 12.97 11.20 9.67 9.64 10.84 12.23 12.82 12.35 13.24 13.74 13.14 13.78 14.78 14.63 12.47 11.82 10.62 8.76 8.19 9.75 10.36 13.45 15.42 15.68 15.56 16.06 15.89 16.23
20.27 18.45 18.12 18.23 16.21 15.52 15.44 15.03 13.82 12.91 11.11 9.55 9.10 9.76 10.63 10.24 8.95 9.62 8.81 9.35 8.25 9.24 12.61 13.54 12.86 11.77 9.34 10.05 9.88 8.87 11.44 9.33 13.23 13.97 14.75 14.56 15.78 15.97
17.86 16.82 15.10 14.40 12.95 12.33 12.23 11.92 12.16 10.89 8.81 8.79 7.43 6.99 6.96 7.33 6.78 8.10 7.81 7.02 5.03 5.21 6.57 9.61 11.69 11.60 11.21 10.03 7.83 9.73 9.95 10.59 13.01 12.58 12.74 11.27 13.62 15.29
15.19 12.63 11.40 11.30 10.29 9.50 8.97 8.93 9.16 8.28 7.88 7.14 5.47 4.84 3.94 4.32 4.21 5.72 6.31 4.43 2.89 4.08 4.59 6.53 6.93 6.71 7.78 10.50 14.09 10.84 10.71 10.23 11.58 11.66 12.08 10.22 10.49 14.56
11.58 10.94 9.45 8.89 8.72 8.65 8.05 7.42 6.53 6.64 6.57 4.69 3.17 2.20 1.60 2.74 2.42 3.26 3.36 2.84 2.28 3.09 3.89 5.56 5.75 4.65 0.79 -1.26 7.87 14.31 9.40 9.12 10.06 9.97 11.53 11.65 10.38 12.62
10.99 9.38 8.65 8.98 8.31 7.18 6.74 5.69 4.29 3.00 2.82 3.26 0.71 -0.41 -3.08 0.58 0.06 0.89 1.48 -0.10 0.14 0.99 2.16 4.42 4.51 3.99 1.45 0.53 1.80 6.55 13.91 11.48 11.47 10.96 11.98 14.61 16.24 18.34
9.16 7.81 7.08 6.14 5.09 3.82 0.78 -0.10 -0.38 -0.39 -2.13 -2.97 -2.88 -2.45 -6.77 -2.67 -1.64 -0.44 -0.25 -1.76 -1.91 0.87 0.44 2.02 4.47 7.26 7.34 7.55 3.40 5.77 10.38 16.71 17.88 16.59 17.12 16.05 14.02 14.86
7.64 6.12 5.39 4.63 3.16 0.72 -2.49 -3.83 -2.44 -3.31 -2.28 -1.16 -5.30 -6.94 -6.94 -4.49 -2.99 -2.48 -1.86 -2.10 -1.12 0.35 1.40 3.32 5.86 6.38 5.35 4.45 3.67 5.61 9.06 13.27 17.85 21.48 25.80 23.37 18.11 13.17
4.50 4.08 3.51 2.94 2.13 1.23 1.52 -3.34 -2.84 -8.57 -3.85 -2.84 -3.49 -3.17 -8.94 -5.22 -2.08 -1.55 -1.66 -1.18 -0.91 -0.36 0.59 1.57 3.33 4.79 4.30 5.13 5.67 7.41 8.58 10.32 14.19 17.84 25.85 27.45 27.46 27.33

GFSNE_sfc_wetblb_117.txt.gz
Wetbulb
57.61 57.81 57.11 57.23 57.50 56.81 56.38 55.35 53.36 49.88 50.98 55.15 53.99 54.69 54.92 50.52 50.77 46.80 45.45 43.55 43.01 42.33 42.44 43.31 44.31 44.51 44.72 44.79 44.67 44.83 45.23 45.30 45.65 46.16 46.73 47.36 48.23 49.19
56.81 56.44 56.65 56.86 56.74 56.06 55.33 55.37 54.04 52.51 50.05 55.47 53.83 50.31 49.56 46.44 45.52 45.28 43.53 41.53 40.17 39.53 39.47 40.04 40.43 40.59 40.19 39.24 38.85 39.70 40.42 41.39 41.27 41.90 42.56 43.01 43.71 44.45
55.47 55.03 55.33 55.95 55.72 55.12 55.50 55.08 54.26 53.68 51.90 53.91 53.38 46.15 42.77 41.74 41.73 41.58 41.35 40.30 38.74 36.20 36.59 37.86 38.30 36.68 36.13 35.77 35.17 35.03 36.59 36.70 36.84 37.26 37.56 38.05 39.08 39.93
55.05 55.27 55.11 55.57 55.39 55.43 55.05 54.69 54.87 55.25 53.75 52.21 46.89 39.56 38.74 38.23 38.24 35.65 36.21 38.95 37.00 34.95 33.32 35.08 35.68 33.78 32.67 32.15 31.94 31.87 31.86 32.46 33.76 34.55 34.42 34.37 34.63 35.52
55.43 55.23 55.37 55.13 54.65 54.73 54.95 54.54 53.98 50.65 50.57 50.27 38.95 38.55 34.34 35.61 34.36 34.46 32.99 34.87 34.38 33.21 31.33 30.51 32.59 31.59 30.65 29.69 29.32 29.67 30.22 31.68 32.46 31.37 30.87 30.70 30.94 31.71
55.27 55.05 54.38 54.51 54.35 52.33 49.53 47.57 45.22 44.25 43.31 39.89 35.94 32.87 33.12 32.09 30.85 28.53 28.43 30.40 30.22 29.27 28.93 28.51 30.11 29.60 29.09 27.82 27.78 28.67 29.36 31.07 30.44 29.86 29.22 28.27 28.02 28.78
39.74 39.13 39.33 39.59 38.56 39.21 41.87 41.27 40.90 38.82 36.78 34.44 31.28 29.32 27.86 25.83 24.83 25.21 25.06 26.39 27.42 26.31 25.97 28.26 30.70 29.56 29.44 27.92 27.70 27.45 28.93 29.68 28.46 28.28 27.81 27.11 26.79 27.23
34.74 34.29 34.57 34.54 33.41 33.02 32.09 31.55 33.56 34.12 31.45 28.62 25.33 23.30 23.23 23.93 23.16 21.94 21.73 22.31 22.54 28.36 25.61 26.19 28.08 26.71 27.19 27.46 25.78 26.26 27.69 27.42 27.20 26.52 26.06 26.02 26.19 25.74
33.38 32.60 32.07 32.05 31.22 29.53 29.12 28.68 28.09 27.55 27.11 26.28 22.97 21.40 18.92 20.72 21.73 20.62 21.25 22.04 24.10 25.61 23.74 23.94 26.11 24.29 26.12 26.10 25.43 25.45 26.23 25.67 25.34 25.03 24.96 24.89 24.87 24.70
32.50 31.84 30.84 29.73 29.19 27.96 26.24 24.35 23.87 24.10 24.07 23.85 22.54 21.54 20.68 20.64 21.96 21.41 21.29 22.67 25.91 25.07 22.55 19.05 23.93 22.44 24.38 25.88 25.03 24.94 24.71 24.36 24.30 24.15 24.00 24.10 23.94 24.15
30.53 30.88 30.00 28.59 29.18 29.22 24.69 22.98 21.92 22.34 25.01 24.65 23.72 22.93 22.06 21.34 20.99 21.38 19.83 19.46 19.21 20.58 21.33 18.55 21.08 20.38 21.95 23.32 25.33 23.98 23.59 23.47 23.18 23.08 23.32 23.28 23.45 23.31
28.13 28.91 29.01 27.74 27.32 26.63 24.11 22.10 19.37 18.88 19.16 19.12 19.13 19.15 19.59 19.53 19.69 19.18 18.03 15.31 15.33 17.57 19.87 15.64 17.95 18.52 15.99 22.33 22.74 23.41 23.93 23.03 22.93 22.79 22.66 22.91 22.81 23.16
25.48 25.50 26.54 26.84 25.90 24.97 23.95 21.78 19.75 20.01 18.89 18.28 18.32 18.39 18.41 18.51 18.44 18.32 18.23 16.16 14.73 15.18 19.97 17.71 16.43 17.12 16.36 16.42 19.76 21.81 23.43 23.52 23.61 23.29 22.71 22.65 22.39 22.33
23.19 23.93 24.51 24.95 24.16 23.01 21.96 21.80 20.95 19.47 19.08 18.14 17.07 15.49 14.96 16.30 18.20 18.61 18.48 18.49 18.64 17.18 19.20 18.00 15.36 15.22 14.31 14.35 15.55 21.44 22.61 22.46 22.69 22.06 22.38 22.13 21.39 21.59
23.59 24.15 24.05 23.11 21.88 20.56 20.07 19.07 18.03 17.13 15.83 15.25 14.12 14.31 15.70 16.63 16.99 16.59 18.00 17.78 17.62 17.78 18.04 18.17 16.76 16.62 16.04 14.77 15.22 17.64 17.94 19.93 21.99 21.31 20.84 20.48 20.03 20.51
20.52 18.49 18.17 18.42 16.97 16.75 16.57 16.44 16.47 17.38 16.29 15.15 14.23 14.99 15.82 15.42 14.70 15.50 14.81 14.88 15.13 16.52 18.21 18.40 17.18 16.12 13.91 15.90 16.36 15.74 18.28 16.16 20.99 20.40 19.91 19.45 20.46 21.41
17.80 17.60 16.07 15.79 15.13 14.55 14.31 14.83 15.54 15.33 13.74 13.97 14.14 14.05 13.60 13.84 13.38 14.24 13.31 13.55 13.07 13.13 14.05 16.41 17.34 17.44 16.77 15.77 14.45 17.00 17.88 18.66 20.15 19.15 18.60 18.07 20.56 22.84
19.07 16.77 14.93 15.09 14.16 13.04 12.68 12.31 13.09 12.28 12.52 12.59 12.23 11.74 11.35 11.82 11.65 13.10 12.87 12.48 11.91 12.51 12.61 14.10 14.73 14.79 16.23 18.53 17.67 16.91 17.40 18.17 18.40 18.86 19.55 18.75 19.86 23.80
16.16 14.10 13.94 14.14 14.13 13.32 13.11 12.90 11.22 11.25 11.22 11.00 10.22 9.41 10.20 11.08 11.28 11.59 11.73 11.88 11.55 11.97 12.75 14.12 13.43 12.32 9.74 9.37 16.62 17.60 15.98 15.64 17.96 20.56 21.84 22.57 22.31 24.52
14.47 13.61 13.46 13.88 13.55 12.72 12.41 11.38 10.83 10.69 10.56 10.10 9.37 8.66 7.85 9.88 10.58 10.41 10.96 8.87 9.65 10.69 12.00 13.82 13.20 11.04 7.88 7.97 8.62 14.35 17.28 17.51 18.79 20.14 22.56 26.88 28.32 26.20
13.54 13.19 13.39 12.87 12.42 11.77 10.66 10.44 10.22 9.42 8.74 8.67 8.12 7.90 7.07 8.19 8.84 9.61 9.87 6.60 6.94 10.33 9.45 10.53 11.95 11.28 13.68 14.56 12.86 15.70 19.93 21.63 21.37 21.09 24.05 26.76 25.58 26.44
12.68 11.87 11.39 11.39 10.77 10.33 10.01 9.57 9.37 9.67 9.24 8.96 7.93 8.28 7.90 8.81 9.06 8.36 8.58 8.55 9.13 9.34 9.58 11.69 13.57 13.69 13.66 12.09 12.20 14.04 18.37 21.08 23.97 24.74 27.10 27.17 25.58 22.87
11.32 10.97 10.40 9.97 10.10 9.97 9.79 9.76 8.74 9.07 8.55 7.90 8.06 7.93 6.35 7.91 8.84 9.56 9.12 8.88 8.68 8.10 9.42 9.70 11.96 13.93 12.98 13.60 13.34 15.99 17.21 19.32 23.09 24.19 28.47 28.35 27.40 27.22

GFSNE_sfc_wetblb_120.txt.gz
Wetbulb
62.77 63.25 61.73 61.19 61.48 61.14 59.83 58.85 56.22 52.07 52.47 55.88 54.39 56.52 50.51 49.18 48.36 45.85 44.28 41.88 41.52 41.85 42.31 42.70 43.33 42.37 41.77 41.40 41.81 42.46 43.43 42.86 42.40 42.80 43.40 43.68 44.17 44.96
62.02 62.03 62.02 60.67 60.32 60.48 59.75 59.21 58.69 56.12 52.70 56.06 53.90 49.28 47.64 44.98 44.83 42.92 41.37 39.39 39.02 39.28 40.01 39.50 38.67 38.50 37.84 37.27 36.99 36.90 37.04 37.50 38.11 39.02 38.94 39.37 39.91 40.31
60.74 60.82 60.01 59.38 58.55 58.62 58.50 57.50 56.89 56.41 52.38 53.87 49.87 45.22 42.58 41.33 40.24 41.69 40.27 37.19 35.69 36.21 37.69 36.49 35.17 34.22 33.61 33.27 32.82 32.87 33.41 33.87 35.07 36.49 35.98 36.06 36.18 36.77
58.74 58.17 57.79 57.39 57.59 57.08 56.95 57.05 55.50 55.86 53.58 52.21 45.97 39.14 38.39 38.23 36.66 35.95 38.55 37.42 34.66 33.08 32.52 34.06 33.27 32.23 31.12 30.53 30.25 30.83 31.30 32.63 33.58 32.94 32.84 32.98 33.12 33.34
56.74 56.61 56.96 55.43 54.95 55.31 54.95 54.81 54.67 54.08 54.50 52.99 39.91 37.57 35.07 36.09 34.24 33.46 33.52 34.32 33.48 31.53 30.16 31.19 31.14 30.69 30.03 29.20 29.25 29.65 30.07 31.56 31.72 30.51 30.11 30.04 30.11 30.42
55.20 54.93 54.91 54.71 54.87 54.87 54.41 54.30 53.02 49.73 46.09 39.71 34.72 33.17 32.05 30.78 29.76 29.20 28.15 31.12 30.39 28.95 29.22 29.31 30.15 29.77 29.28 29.39 29.33 28.69 29.20 30.28 29.35 28.77 28.49 28.13 27.96 28.49
43.85 42.19 41.17 42.49 41.64 44.43 48.28 45.26 45.00 40.94 37.41 34.34 31.34 28.89 27.41 25.46 24.48 25.40 25.36 27.55 26.49 26.01 26.96 29.18 30.25 31.46 33.19 31.67 30.16 27.90 28.10 28.72 28.07 27.95 27.86 27.25 27.07 27.30
35.55 34.78 34.66 34.91 33.68 33.47 33.29 33.07 36.09 36.50 32.98 29.37 27.04 24.74 23.76 23.67 23.83 22.62 23.58 24.75 24.50 26.78 25.89 29.04 31.39 31.77 31.71 30.70 27.74 27.07 26.91 27.69 27.53 27.38 27.01 26.75 26.53 26.35
34.18 32.81 31.55 31.55 30.52 29.20 29.15 28.62 28.21 28.50 28.87 27.97 23.88 22.46 21.59 22.86 23.31 22.54 23.47 25.39 24.56 24.68 25.11 26.26 29.85 27.81 28.70 27.81 27.80 27.13 26.81 26.67 26.85 26.58 26.50 26.16 25.92 25.80
32.25 31.48 29.88 28.90 28.90 27.35 25.23 23.73 23.20 23.75 24.26 23.86 22.03 21.86 22.52 23.57 23.73 24.13 23.90 24.94 27.39 28.20 24.86 21.88 25.26 23.47 25.78 27.16 27.57 27.26 26.61 26.66 26.50 26.38 25.99 26.06 25.81 25.29
30.21 30.06 29.40 28.40 29.40 29.73 25.32 23.14 22.66 23.01 25.15 25.10 24.52 23.87 23.55 23.42 24.07 24.13 22.96 25.20 24.06 25.65 25.09 22.43 24.90 24.60 26.20 27.29 28.75 27.13 26.70 26.57 26.24 26.31 26.70 26.14 25.73 25.48
27.86 28.09 28.57 27.37 27.03 26.34 23.76 22.42 19.55 19.44 19.52 19.57 19.78 20.95 21.41 21.46 22.93 24.52 23.90 21.84 22.13 23.22 23.63 20.98 22.56 22.92 20.68 26.42 26.88 27.42 27.60 27.61 27.44 27.18 26.56 26.27 26.01 26.42
26.51 26.27 26.84 26.93 26.20 25.44 24.45 22.43 20.45 21.29 20.58 20.45 20.48 20.44 21.78 22.33 22.15 22.47 23.30 23.24 21.88 21.93 21.55 21.71 20.87 21.37 21.07 21.40 24.45 27.00 27.97 28.25 28.14 28.52 27.34 27.23 26.24 25.93
25.33 25.70 25.46 25.59 24.83 24.04 23.15 23.06 22.43 21.81 21.86 20.38 20.39 20.41 20.76 21.82 23.05 23.60 23.19 23.23 23.33 20.54 22.04 21.56 20.80 20.19 19.44 19.08 19.93 25.12 26.93 27.80 28.44 27.88 28.49 27.77 27.00 26.83
24.29 24.71 24.72 24.18 23.72 22.46 22.52 22.28 21.66 21.92 21.48 20.40 20.32 20.76 20.89 21.67 22.43 22.02 23.31 22.70 22.90 22.09 22.39 21.77 21.05 20.74 20.28 19.46 20.24 22.51 22.84 26.65 28.46 27.88 27.72 26.70 27.10 28.34
22.51 20.67 19.99 20.20 19.59 20.11 20.89 21.64 22.21 22.85 21.13 20.87 19.64 20.85 21.79 20.76 19.82 20.56 20.37 21.00 22.26 22.58 23.35 23.04 21.93 21.09 19.84 21.45 21.82 22.30 25.73 23.93 27.43 26.92 26.16 27.84 29.64 30.73
18.51 19.39 19.96 19.87 20.17 20.19 20.24 20.87 21.78 21.52 18.93 19.46 19.11 19.09 18.44 18.92 19.13 20.63 20.18 20.74 20.37 19.99 20.62 22.62 23.31 23.64 24.00 22.66 21.88 24.72 24.52 25.30 26.71 25.32 25.88 26.81 29.41 30.51
22.68 21.95 20.75 21.65 21.08 19.92 18.89 17.83 18.24 17.51 17.63 18.15 18.30 18.38 18.83 18.43 19.62 20.12 20.55 20.26 19.34 19.24 19.78 20.68 21.15 21.94 23.34 25.56 22.24 22.28 23.98 24.14 24.39 25.18 27.35 27.16 27.85 31.88
20.99 19.66 18.67 18.30 18.34 18.54 17.89 16.60 15.61 17.00 17.84 18.55 18.39 17.84 18.67 18.52 19.56 18.90 19.22 18.47 18.11 18.41 19.79 20.95 20.54 18.95 16.87 17.68 22.93 21.50 20.56 21.49 22.14 24.74 26.62 28.43 29.42 31.41
21.00 20.24 18.95 19.46 19.41 18.18 17.47 17.15 17.28 18.00 18.16 18.22 17.55 16.64 17.58 18.64 18.70 17.93 18.49 15.86 16.02 17.86 18.52 20.47 19.75 17.24 14.64 15.05 15.36 20.46 22.92 23.23 22.80 23.04 24.25 28.27 31.68 30.39
20.04 19.88 20.23 19.79 19.37 19.07 18.99 18.93 18.35 17.52 17.22 17.01 16.70 16.32 16.95 18.12 17.00 17.06 17.65 14.26 14.28 17.34 16.46 17.28 18.78 16.89 19.82 21.41 20.02 22.05 24.97 26.18 26.19 24.67 26.11 27.06 26.26 28.10
19.74 19.24 19.07 18.88 18.57 18.44 18.01 16.96 16.86 17.27 17.12 17.32 17.21 17.26 17.16 17.96 17.24 16.31 16.58 15.91 16.51 16.20 16.77 18.68 20.18 20.58 20.64 19.28 19.11 20.24 23.54 27.08 28.94 28.97 28.31 27.84 26.54 23.55
18.75 18.27 18.20 17.77 17.54 17.74 18.03 17.87 17.29 16.97 16.17 15.87 16.75 16.36 15.37 16.27 16.27 17.18 16.61 16.44 16.23 15.55 16.41 16.34 18.80 20.89 20.16 20.52 19.75 21.12 22.40 25.18 26.58 26.82 30.00 29.83 28.69 28.26

GFSNE_sfc_wetblb_123.txt.gz
Wetbulb
59.72 61.76 60.58 61.75 62.25 61.88 61.79 61.22 58.34 54.21 53.88 55.87 54.55 53.13 52.40 49.35 46.92 43.77 42.68 42.06 42.09 42.48 42.03 41.83 41.61 40.93 40.14 39.72 39.25 39.06 39.24 39.32 40.05 40.75 40.51 40.64 40.88 41.16
59.90 60.73 61.16 62.04 61.40 62.25 62.13 61.91 60.83 57.10 53.49 56.29 51.82 49.08 46.84 44.63 42.92 40.78 40.14 40.33 40.41 38.48 37.53 37.25 36.75 36.65 35.82 35.11 34.84 35.28 35.74 36.42 37.88 38.20 37.81 37.68 38.17 38.56
59.87 60.42 60.56 60.97 61.26 62.03 62.53 61.91 59.82 58.75 55.51 52.75 47.96 44.36 43.00 41.74 41.27 39.13 37.45 35.68 35.97 36.88 35.92 34.91 33.94 33.01 32.45 32.22 32.22 32.93 33.46 34.94 35.31 34.86 34.99 35.28 35.62 35.87
58.68 59.35 59.95 59.75 60.61 61.15 60.36 58.22 58.16 58.68 56.57 52.17 43.22 40.58 38.40 38.41 38.17 38.54 36.69 35.12 33.49 32.91 33.70 33.35 32.74 31.81 30.86 30.52 30.54 31.04 31.70 32.63 32.85 32.10 31.72 32.05 32.46 33.05
57.71 59.42 59.96 60.30 59.73 58.86 57.95 57.38 57.71 54.57 54.70 50.69 40.58 36.88 35.80 35.62 33.52 34.13 34.16 33.42 32.25 31.31 30.29 31.45 30.91 30.42 30.08 30.07 30.07 29.91 30.08 30.87 30.31 29.86 29.72 29.78 29.94 30.42
56.52 57.28 58.38 58.88 58.26 57.02 55.45 54.89 53.28 52.55 50.60 42.43 36.20 33.50 31.99 30.84 31.69 30.43 29.06 31.15 28.59 28.88 29.24 29.53 30.49 31.08 30.19 30.30 29.72 29.35 29.11 29.80 29.52 29.17 29.00 28.55 28.41 28.88
53.32 52.02 52.39 51.53 44.92 46.13 52.67 52.65 52.29 44.64 41.55 38.02 32.75 30.86 28.58 27.67 27.41 27.28 26.95 28.39 26.61 26.77 27.51 29.91 30.81 32.01 32.57 32.48 30.94 29.33 28.54 28.79 28.85 28.59 28.71 28.33 28.24 28.32
38.22 37.13 39.09 38.12 35.99 35.23 34.40 33.47 39.53 41.52 36.63 34.12 30.53 27.85 25.19 25.00 25.35 24.90 26.33 27.99 25.13 26.89 25.94 29.22 30.89 29.74 30.71 30.74 28.90 28.44 28.19 27.97 28.33 28.59 28.36 28.21 28.01 28.11
34.86 34.01 32.99 33.46 33.47 31.08 30.22 29.41 29.53 30.52 30.70 31.31 26.98 24.91 23.63 24.33 25.40 25.04 26.19 27.01 24.86 23.61 24.86 26.40 28.87 28.16 29.12 29.26 28.60 28.39 28.11 28.39 28.34 28.23 28.13 28.42 28.55 27.90
32.57 32.48 32.09 31.10 30.94 28.84 26.41 23.90 23.57 23.97 24.63 24.93 23.88 23.88 24.59 25.39 25.72 25.80 26.40 26.74 26.09 24.74 25.95 23.38 27.47 26.17 28.40 30.08 28.97 28.67 28.96 28.56 28.68 28.85 29.23 28.95 28.22 28.11
30.91 30.77 30.68 29.43 30.38 30.65 25.34 23.03 22.59 23.41 26.56 26.92 26.90 26.49 26.45 26.39 26.56 26.92 25.81 26.07 24.84 26.11 25.06 24.06 26.62 25.50 27.06 28.54 29.29 29.30 29.60 29.76 29.64 29.61 29.31 28.95 28.80 28.78
28.01 28.32 29.24 28.24 28.24 27.32 24.12 22.43 19.85 20.74 21.36 21.43 21.90 22.78 23.36 24.06 25.34 26.29 26.14 24.11 24.39 24.28 22.95 22.78 24.31 23.93 22.14 27.55 27.57 28.64 29.29 30.36 30.29 29.98 29.93 29.90 30.00 29.06
26.24 25.67 26.46 27.14 26.62 25.92 24.95 22.21 21.00 21.84 21.56 22.16 21.50 21.45 22.28 23.25 23.98 24.85 25.22 24.48 24.16 22.92 20.99 23.11 21.88 22.20 21.86 21.95 24.78 27.82 29.14 29.54 29.85 30.39 31.65 30.70 29.78 29.37
25.46 25.74 25.84 25.92 25.51 24.96 23.81 24.08 23.64 23.20 22.71 21.54 21.18 21.15 22.25 22.17 23.61 24.67 24.15 24.01 23.73 22.22 23.42 22.36 20.60 20.32 19.47 19.34 21.01 26.23 27.90 29.96 30.26 30.65 30.58 30.31 31.25 31.70
25.75 25.87 26.04 25.94 25.13 24.11 24.36 23.93 23.26 22.80 23.10 22.68 22.34 22.67 23.44 23.99 24.63 24.84 24.90 24.74 23.88 23.03 23.33 22.97 21.62 21.37 21.26 20.46 21.03 23.62 25.22 28.67 30.32 29.80 29.40 29.24 30.36 31.80
23.89 21.99 21.61 22.09 22.00 22.96 23.98 25.12 26.15 26.25 25.39 24.17 22.88 23.74 24.39 23.41 22.33 22.93 22.02 22.39 23.33 23.10 24.87 24.53 23.68 23.28 21.47 22.83 23.57 23.35 27.08 24.98 28.95 28.07 28.41 29.47 31.56 32.89
20.25 20.62 20.42 20.08 20.41 21.02 22.60 23.63 24.19 24.68 23.75 23.57 22.94 22.05 21.77 22.00 21.16 22.46 22.16 22.66 21.96 21.29 22.06 24.41 25.42 26.01 25.93 24.77 23.35 25.30 25.35 25.92 26.93 26.72 27.27 27.50 30.55 32.78
22.28 22.01 21.82 22.29 22.91 22.48 22.30 21.69 21.93 21.59 21.88 21.84 21.83 21.75 20.78 20.93 21.73 22.55 22.96 22.18 20.91 20.86 21.36 22.96 23.63 23.44 24.50 27.70 26.20 23.79 23.99 24.27 25.24 26.54 27.43 26.61 27.48 31.35
22.73 22.80 22.99 23.15 21.90 20.81 20.57 20.55 20.29 20.77 21.60 21.51 21.24 21.54 21.68 21.34 21.83 21.43 21.52 20.84 19.88 20.67 21.81 23.25 22.55 20.39 17.65 17.72 23.83 21.40 21.31 22.65 24.34 25.28 26.71 26.98 26.68 29.83
22.91 21.97 22.09 22.44 21.83 20.61 19.93 19.11 19.73 20.87 21.24 20.64 20.28 20.46 21.05 21.34 20.84 20.39 20.45 18.36 18.28 20.11 20.34 22.10 21.50 19.30 15.57 15.94 16.85 21.69 25.48 24.49 24.99 24.91 25.78 28.21 29.69 30.09
22.48 22.06 22.55 21.86 21.44 21.03 21.80 21.83 21.60 20.78 20.50 20.14 19.53 19.38 20.18 20.59 19.28 19.37 19.98 17.74 17.61 19.08 18.07 18.83 20.69 20.34 21.79 23.61 21.06 23.51 26.63 29.05 28.92 27.35 28.01 27.41 27.24 27.59
22.82 21.89 21.77 21.56 21.52 21.25 20.49 18.60 18.40 19.57 19.90 20.04 19.68 19.33 19.86 20.17 19.15 18.73 18.74 18.29 18.49 18.38 18.67 20.27 21.84 22.54 22.27 20.79 20.71 21.94 24.72 27.76 30.17 30.16 29.67 29.09 28.06 24.33
21.59 20.87 21.00 21.14 21.05 21.04 21.48 21.09 20.12 19.55 18.77 18.78 18.83 18.06 17.77 18.47 18.39 19.23 18.82 18.70 18.35 17.68 18.01 17.24 19.59 21.54 20.74 21.27 21.25 22.39 23.20 25.84 26.74 27.72 29.66 30.82 30.27 30.14

GFSNE_sfc_wetblb_126.txt.gz
Wetbulb
59.29 59.11 58.94 59.63 59.23 58.99 58.16 58.05 55.04 51.49 52.02 53.60 51.16 50.42 48.47 45.86 44.47 42.58 42.48 43.31 42.81 42.73 42.16 41.84 41.46 40.56 39.49 38.91 38.67 38.81 39.15 40.08 40.96 40.14 40.07 39.91 40.11 40.14
59.16 58.91 58.92 59.35 58.66 58.13 57.58 57.94 57.28 55.08 51.76 53.01 47.38 46.64 44.00 42.28 42.01 41.25 41.06 40.18 39.20 38.34 37.87 37.47 36.98 36.24 35.67 35.56 35.93 36.32 37.23 38.36 37.90 37.40 37.07 37.00 37.44 37.54
59.05 58.66 58.36 58.51 57.72 57.94 58.12 57.83 56.97 56.22 50.97 46.42 45.11 43.38 41.70 39.31 38.19 37.37 37.12 36.84 36.72 36.18 35.60 34.77 33.57 33.21 33.01 33.22 33.30 34.01 34.91 35.51 34.60 33.94 34.22 34.65 35.21 35.70
57.86 57.89 57.50 58.39 57.91 57.98 57.99 57.00 56.11 55.85 51.98 44.89 42.15 39.36 38.60 39.15 37.48 35.63 35.25 34.06 33.40 34.71 34.13 33.44 32.68 31.93 31.61 31.69 31.56 31.63 32.38 32.36 31.68 31.50 31.77 32.22 32.93 33.62
58.04 57.69 57.30 57.48 56.92 56.85 56.35 55.73 55.34 54.74 51.95 45.36 39.24 37.79 35.98 35.86 34.59 34.45 32.79 32.35 32.29 31.94 31.94 31.96 31.28 31.01 31.10 31.31 30.67 30.53 30.82 30.68 30.39 30.16 30.12 30.32 30.37 31.20
57.64 58.14 57.87 57.58 56.98 56.73 56.15 55.32 53.86 52.52 47.95 41.62 36.53 33.67 32.44 33.37 32.95 30.89 29.75 30.26 27.85 29.40 29.45 29.94 31.41 31.64 31.16 31.41 30.80 30.20 29.61 29.79 29.75 29.52 29.67 29.35 29.29 29.79
55.11 55.35 54.19 54.54 51.06 54.25 55.71 53.24 52.37 48.17 44.51 39.15 33.20 30.76 29.15 29.30 29.44 29.62 28.96 26.65 26.38 27.09 27.59 29.19 30.16 31.46 31.23 31.36 29.69 29.64 29.18 28.80 29.34 29.70 29.54 29.28 29.42 30.05
53.40 45.45 44.23 41.79 39.64 38.60 37.50 37.58 44.63 44.61 39.44 38.09 32.69 31.65 27.72 26.60 28.15 27.72 27.69 26.49 24.42 26.79 26.27 27.63 28.81 28.37 29.06 28.78 29.27 28.72 28.69 29.05 29.39 29.35 29.51 29.72 29.99 29.47
41.10 39.62 35.49 35.65 35.61 33.27 32.68 32.37 32.29 33.11 33.24 34.94 33.42 28.99 26.14 26.13 26.93 26.93 27.14 27.37 23.47 23.50 26.16 26.24 26.83 26.01 28.23 28.87 29.09 28.59 29.22 29.44 29.48 29.94 30.45 30.06 29.78 29.70
33.97 34.23 33.99 32.18 32.72 32.15 29.97 27.96 26.63 27.01 28.74 28.78 27.83 26.69 26.95 27.35 27.81 28.01 27.47 24.29 23.98 24.15 26.32 24.18 26.04 24.76 26.63 27.18 29.96 29.70 30.04 30.50 30.41 30.58 30.55 30.54 30.79 31.31
32.10 32.22 32.81 32.45 33.20 34.25 29.40 26.06 25.16 25.73 29.32 29.63 29.14 28.70 28.56 28.61 28.21 26.97 24.96 24.52 24.36 23.07 23.26 23.59 24.44 22.20 23.14 23.91 25.90 29.68 30.10 30.47 30.81 31.06 31.21 31.90 31.21 30.63
29.13 29.59 31.09 30.43 31.39 31.22 27.97 25.31 22.12 22.98 23.92 24.42 24.84 26.13 26.86 27.61 27.49 27.27 27.76 25.17 24.37 21.31 21.43 21.08 21.55 21.42 20.51 24.83 24.44 25.29 25.77 30.01 30.44 31.92 32.67 31.64 31.45 27.00
26.84 26.51 27.63 28.70 28.54 28.32 27.09 24.20 22.02 22.63 21.99 21.59 21.22 21.60 22.67 23.04 23.41 24.40 24.95 23.66 22.39 17.82 19.89 21.56 20.35 19.29 18.23 18.27 21.32 23.36 23.99 24.66 24.74 26.41 30.34 30.57 31.28 31.02
24.86 25.55 26.11 26.93 26.39 25.49 24.26 24.71 24.26 22.91 21.99 21.36 20.89 20.38 20.92 21.48 22.25 22.60 22.89 22.15 22.02 21.15 21.75 21.40 15.62 16.62 15.65 14.98 16.53 21.56 22.53 24.27 24.32 25.25 25.11 28.56 29.77 30.99
25.66 26.85 27.46 26.76 26.19 25.02 25.21 24.85 23.73 22.80 21.99 20.70 20.43 20.39 21.32 22.73 23.61 23.15 23.67 22.87 22.13 21.66 22.20 21.30 18.24 18.55 16.61 14.99 15.80 18.10 19.54 23.41 24.75 23.44 23.50 25.08 25.88 27.91
25.48 24.03 23.48 23.91 23.74 24.30 24.81 25.12 24.87 24.05 22.78 21.20 20.40 20.96 21.96 21.40 20.38 21.34 20.96 20.63 18.74 19.52 22.67 22.16 21.24 20.49 16.38 18.78 19.34 18.42 21.20 18.71 22.42 23.03 24.11 24.98 26.51 27.46
22.42 22.74 22.17 22.16 21.56 21.61 22.22 22.93 23.27 22.99 21.73 21.89 20.93 20.17 20.31 20.69 20.34 20.32 20.39 19.94 18.32 17.26 17.98 20.95 23.00 22.90 21.82 21.97 17.89 19.91 19.35 19.82 21.01 22.51 23.24 23.12 25.01 26.27
22.09 20.63 20.29 20.75 20.56 21.00 21.14 21.12 21.52 21.04 20.90 21.30 20.67 20.54 19.84 18.97 18.38 19.73 20.02 16.91 14.47 16.65 17.42 18.89 18.99 17.97 20.26 23.23 25.19 19.31 16.22 17.30 19.45 22.07 23.03 21.32 22.55 25.46
21.72 21.19 20.77 20.56 20.13 19.45 19.41 19.53 19.00 20.72 21.67 20.33 19.28 18.25 17.89 19.03 19.03 19.03 17.58 17.40 16.30 16.75 16.20 17.10 17.03 14.76 10.58 4.37 19.88 23.31 15.61 18.00 19.69 20.22 22.02 22.36 21.69 24.58
21.23 19.89 19.58 20.03 19.93 19.35 18.59 18.18 18.92 19.37 19.01 18.40 18.21 18.01 16.14 16.77 15.10 16.97 15.69 11.27 12.49 15.65 15.94 16.85 15.51 14.41 7.94 6.22 7.79 14.61 25.21 21.25 20.24 20.80 21.85 24.70 26.02 28.77
21.48 20.67 20.32 19.69 19.14 19.26 19.72 19.46 18.73 17.77 17.74 17.33 16.85 14.17 12.36 15.95 13.06 14.35 12.87 10.67 11.34 15.53 13.53 13.93 15.49 16.91 17.02 15.64 10.89 13.30 17.75 27.77 27.06 23.02 24.22 22.84 21.03 22.74
20.14 19.56 20.10 20.40 20.31 18.97 17.08 17.40 17.58 17.66 17.16 16.90 13.84 11.50 10.85 12.69 10.94 10.87 9.38 10.12 12.70 12.65 13.57 15.38 18.63 18.89 17.17 17.34 13.39 10.29 17.54 18.46 26.40 28.79 29.46 28.13 19.87 20.38
20.11 20.00 19.91 18.99 18.63 18.36 19.28 18.93 17.71 16.13 16.04 15.55 14.74 11.22 8.53 9.38 12.07 12.10 10.38 11.49 12.18 11.29 12.54 12.60 15.61 16.85 17.18 18.76 16.52 13.95 15.23 19.90 19.85 22.10 23.80 28.42 29.68 30.08

GFSNE_sfc_wetblb_129.txt.gz
Wetbulb
59.09 59.24 58.94 59.04 58.68 58.17 57.04 55.59 53.15 49.50 50.60 51.71 48.12 46.42 45.37 44.56 44.54 44.13 43.69 44.43 43.94 43.75 43.50 43.15 42.53 41.54 40.86 40.31 40.45 40.95 42.29 41.39 40.72 39.85 39.50 39.13 39.32 39.27
59.09 58.66 58.99 59.11 58.34 58.42 57.62 56.81 55.58 53.82 50.77 49.78 46.84 44.06 43.04 42.25 42.73 40.93 40.76 40.62 39.86 39.39 39.00 38.29 37.99 37.82 37.55 37.38 37.80 38.86 39.00 38.35 37.20 36.96 36.99 36.86 37.47 37.78
58.88 58.74 58.47 58.96 58.31 57.45 58.05 57.52 56.07 55.19 49.39 43.93 43.62 41.01 40.70 39.84 38.60 38.35 37.63 36.35 36.35 36.62 35.91 35.38 34.83 34.90 34.66 34.80 35.26 36.17 36.06 34.45 34.41 34.49 34.58 35.17 35.77 36.38
57.70 58.31 58.21 58.09 57.77 58.33 57.07 57.01 56.57 54.58 50.75 42.85 40.72 39.64 37.92 36.98 35.92 34.53 34.92 35.28 34.62 35.37 34.50 33.81 33.43 33.19 33.03 32.83 32.91 33.38 32.62 32.11 31.96 31.94 32.02 32.51 33.17 34.04
57.55 57.88 57.98 57.54 56.68 57.82 56.17 56.15 55.93 53.37 49.45 43.91 40.05 37.88 36.67 36.04 34.10 33.44 32.21 32.04 33.18 34.45 33.33 33.02 32.91 32.56 32.45 32.06 31.79 31.56 31.33 31.13 30.59 30.44 30.61 30.38 31.04 31.87
57.33 57.77 57.74 57.79 57.40 56.97 55.34 53.98 53.45 49.87 47.02 42.79 37.82 34.63 34.22 34.18 33.37 29.76 28.56 29.49 28.97 30.59 31.23 31.51 31.90 32.02 32.21 31.76 31.30 30.62 30.48 29.93 29.81 30.06 29.80 29.62 29.91 30.92
56.25 57.17 56.94 55.55 51.79 53.32 55.67 53.20 50.98 46.20 43.08 39.93 34.62 31.44 29.93 30.61 30.56 31.01 28.03 26.60 26.20 27.97 28.29 29.18 30.42 31.75 32.01 30.89 30.61 30.02 29.36 29.39 29.63 29.64 29.96 30.02 30.45 30.18
53.24 52.16 54.22 50.04 49.30 45.59 45.23 45.95 48.55 46.15 42.36 40.15 37.87 34.84 31.18 32.60 30.39 30.30 26.25 25.20 24.05 27.23 27.43 27.54 29.04 28.23 28.62 28.62 29.81 29.32 28.93 29.53 29.40 29.98 30.68 30.32 30.11 30.31
50.94 42.47 38.14 40.68 40.58 38.12 35.69 35.24 34.71 36.81 39.53 38.41 37.96 34.77 30.92 30.74 31.13 29.03 29.26 28.40 24.18 24.11 27.63 24.77 26.69 26.03 27.98 29.45 29.86 29.35 29.66 29.42 29.99 30.60 30.54 30.52 31.09 31.63
33.99 34.89 36.15 33.99 36.33 35.23 35.62 32.36 31.32 31.76 32.49 32.84 34.15 30.86 30.24 31.59 32.11 30.94 27.12 23.56 23.66 24.19 27.76 25.02 25.94 24.92 25.86 26.21 30.08 29.98 30.25 30.41 30.56 30.80 31.23 32.41 31.95 32.05
32.69 32.90 32.72 33.44 35.09 37.43 33.46 30.94 30.01 29.53 32.47 32.54 32.14 31.83 31.73 31.44 29.84 26.16 23.59 24.07 23.06 21.95 23.24 25.44 24.06 22.61 23.07 22.75 25.11 29.58 29.86 30.33 30.68 31.49 32.12 31.49 31.81 31.54
30.38 31.76 33.10 32.16 31.95 33.70 31.86 29.66 26.32 26.49 27.29 27.35 27.73 28.69 28.94 29.01 29.07 29.01 28.05 25.23 21.92 20.28 22.01 23.47 21.91 20.67 18.86 22.75 21.91 23.12 23.52 28.42 29.88 31.31 30.87 31.09 31.71 26.61
28.14 27.75 29.68 31.59 32.12 32.33 32.02 29.74 25.71 24.85 24.25 24.10 23.46 23.33 24.02 24.38 24.17 23.65 24.21 26.50 21.13 18.08 21.42 23.07 20.23 20.09 18.63 17.70 20.33 22.20 22.22 22.59 23.51 25.06 28.71 29.69 30.57 30.26
25.84 26.79 27.87 29.09 28.90 28.24 26.67 26.82 25.69 23.94 23.19 21.96 21.12 20.48 20.33 20.60 21.85 22.04 22.33 22.33 22.47 20.97 22.06 22.27 18.00 17.05 16.02 14.07 15.72 21.05 21.52 22.25 23.11 23.41 23.75 26.61 28.14 29.35
26.69 28.00 28.49 28.00 27.02 25.74 25.71 25.22 23.93 22.76 21.74 20.45 19.69 19.96 20.97 21.99 22.90 22.09 22.54 21.90 22.15 22.53 22.29 21.68 19.26 18.79 16.25 14.61 15.26 17.27 18.00 22.06 22.94 21.90 22.12 23.09 23.39 24.20
26.62 24.91 24.31 24.59 24.32 24.12 23.88 24.20 23.71 22.90 21.45 20.28 19.80 20.96 22.20 21.87 21.07 21.85 21.23 20.84 19.22 18.69 21.90 21.96 21.36 19.54 15.79 17.94 18.66 17.52 19.68 17.35 20.67 21.21 22.28 23.06 24.04 24.39
23.98 24.12 23.51 23.06 22.34 22.25 22.46 22.71 22.93 22.49 20.67 20.78 20.20 20.09 20.41 21.02 21.11 22.15 21.66 20.19 17.78 17.58 17.95 20.76 21.95 22.44 20.95 20.74 16.46 18.59 18.38 18.59 18.70 20.40 21.01 21.16 23.31 23.89
23.16 21.25 21.03 21.47 20.95 21.05 20.93 20.82 21.38 20.86 21.04 21.15 20.80 20.58 20.12 20.44 20.00 20.12 19.44 17.23 15.13 16.51 16.34 17.91 17.86 16.07 18.36 20.93 23.88 18.10 14.21 16.03 17.38 20.36 20.89 16.86 20.81 24.31
21.80 21.33 20.78 20.57 20.17 20.11 20.07 20.09 19.91 21.18 21.81 20.76 20.28 19.89 20.05 19.27 17.90 17.11 16.60 15.67 15.73 15.60 14.80 15.76 15.23 13.18 9.22 2.85 17.81 23.64 14.48 16.32 16.94 17.07 18.95 17.70 18.10 23.36
20.95 19.64 19.02 19.77 19.72 19.59 19.83 19.60 19.77 20.16 19.84 19.73 18.92 18.26 18.12 17.47 15.82 14.90 13.33 7.67 11.27 14.47 15.30 15.94 14.55 13.99 6.93 6.34 6.04 12.49 23.55 15.33 12.24 14.23 18.31 21.84 23.63 27.16
19.76 19.27 19.17 19.16 19.35 19.89 19.75 19.26 18.78 17.71 17.50 16.77 16.71 16.24 15.41 15.79 13.90 12.80 11.93 10.93 12.24 14.86 12.97 13.17 15.25 16.39 15.75 13.01 6.18 8.21 15.19 25.06 24.68 20.28 19.01 20.01 17.69 19.72
19.34 19.24 19.83 20.03 18.53 18.23 18.58 18.34 17.53 17.04 16.93 15.93 14.99 14.55 12.60 14.52 13.76 12.94 11.71 11.97 12.94 12.18 12.34 14.46 17.12 17.35 15.42 15.14 10.10 4.83 13.28 15.21 23.25 26.68 27.61 25.16 17.17 17.46
19.46 18.64 18.49 18.34 18.62 18.70 18.97 18.48 17.53 16.52 16.17 14.96 14.50 13.51 13.52 12.27 12.73 12.23 12.62 12.12 11.88 10.46 11.07 10.81 14.07 14.89 14.85 16.13 11.96 8.37 10.35 13.35 17.55 19.15 19.80 26.42 27.56 28.15